GFSCGP_500_spd_000.txt.gz
Wind_Speed
15 16 13 9 15 16 14 16 12 11 9 9 5 1 3 3 1 4 2 1 0 1 3 7 8 7 7 7 9 8 8 9 11 13 16 19 21 23 24 26 28 26 27 27
15 13 14 13 14 15 15 17 14 12 9 10 6 4 3 5 3 5 4 2 4 4 4 4 2 1 4 6 6 6 7 10 13 16 18 21 23 25 25 26 27 28 28 27
12 14 11 11 11 12 17 16 14 11 10 11 10 8 4 5 7 9 8 7 8 6 5 3 2 2 4 8 10 12 13 14 17 19 21 22 23 25 26 26 27 29 31 31
18 14 12 10 9 11 11 14 14 13 11 13 11 7 8 9 12 16 16 13 11 8 5 5 4 6 6 8 10 13 15 16 18 20 21 21 22 24 25 25 27 29 32 33
12 12 13 13 13 14 19 16 15 19 16 19 17 15 13 14 17 19 19 16 14 12 10 10 10 10 10 11 12 14 18 20 21 22 21 21 22 24 25 26 28 28 32 33
19 16 18 18 18 19 17 15 14 15 14 16 15 17 12 20 15 21 19 19 16 16 15 14 15 16 15 15 15 17 20 23 24 24 24 24 25 27 28 28 29 31 33 35
16 17 19 19 19 20 18 14 7 10 12 11 22 19 13 17 12 11 18 21 21 21 18 17 19 20 20 19 20 21 22 25 26 27 26 26 26 28 29 30 32 33 37 41
20 23 23 23 18 16 14 12 11 11 12 12 20 16 13 15 18 18 17 20 22 25 24 22 23 25 24 24 24 25 27 28 28 28 28 29 29 30 31 31 33 35 39 41
20 16 23 24 25 15 14 13 15 14 17 14 13 14 14 15 15 19 20 23 24 26 29 28 27 28 28 27 28 28 30 30 31 31 30 32 32 33 33 33 35 34 39 36
21 22 20 25 21 21 18 13 10 10 13 12 16 14 12 18 18 19 19 19 23 27 30 30 29 29 30 29 31 30 32 33 32 33 33 35 35 35 35 34 34 36 36 37
25 27 24 26 28 20 24 22 18 15 15 11 10 10 14 19 19 20 19 19 22 24 26 28 29 30 31 31 33 33 35 36 35 35 35 37 36 36 37 37 36 38 36 37
28 27 29 25 28 27 21 18 19 12 14 14 16 13 17 15 16 18 21 21 22 25 26 27 28 31 32 32 34 35 36 37 37 36 37 39 39 40 39 39 38 39 39 41
30 30 28 29 32 33 27 25 21 16 16 17 13 10 20 18 17 20 20 23 25 27 30 31 32 33 33 33 35 37 37 37 38 39 40 40 42 41 41 40 39 40 42 44
31 27 32 28 24 21 23 26 19 21 19 17 19 18 17 21 21 23 25 26 27 28 29 31 32 33 33 34 36 38 39 40 39 41 42 42 41 41 41 40 41 42 45 45
37 35 32 27 25 24 25 24 23 22 22 24 20 27 24 27 25 25 27 27 27 28 30 31 33 33 32 34 38 40 41 42 41 41 44 43 42 41 41 42 43 45 45 46
39 36 34 30 32 30 29 28 29 28 27 30 34 34 28 25 27 27 28 29 28 30 31 33 34 35 35 38 40 42 43 43 42 43 45 44 43 43 43 44 45 46 46 45
34 41 37 28 34 32 34 35 33 34 33 35 38 41 36 29 28 28 29 30 30 30 32 35 36 35 37 40 42 44 44 42 43 45 46 46 45 45 44 44 47 45 45 42
32 31 34 30 34 33 28 32 35 34 37 39 42 43 40 36 32 31 31 31 31 32 33 35 35 36 38 41 43 44 43 44 46 46 46 46 45 44 45 47 48 47 46 46
37 34 32 35 35 30 35 36 37 39 41 43 43 43 39 36 32 32 29 29 30 31 32 33 34 36 40 42 43 43 44 47 48 47 46 46 46 45 46 48 49 50 49 50
44 43 41 39 43 39 31 36 42 44 44 40 42 39 36 31 29 35 28 28 27 27 30 33 36 38 40 41 42 44 46 47 46 46 47 48 47 46 47 48 50 48 47 42
48 50 48 42 43 35 39 44 45 41 33 39 36 35 34 32 33 33 33 32 31 30 31 32 34 36 38 41 43 45 44 44 47 48 50 50 46 46 48 48 47 46 43 39
37 39 36 38 36 34 42 45 41 41 39 38 36 36 37 37 34 34 35 33 33 34 34 35 37 39 40 41 41 42 42 46 49 50 51 46 42 45 48 45 44 44 42 35
37 39 35 37 33 40 45 44 43 42 42 40 38 36 36 36 36 36 37 37 38 38 39 38 39 40 39 38 39 40 44 47 49 48 46 43 42 44 43 41 44 44 43 38
39 39 41 42 44 45 46 45 45 44 43 43 41 39 39 39 40 40 40 39 40 40 41 39 39 37 38 40 42 43 45 45 46 46 44 43 43 42 42 43 42 40 35 31
46 44 43 45 46 45 46 45 46 47 47 45 44 43 42 41 40 40 42 39 39 40 40 41 40 40 42 44 44 45 46 45 44 43 42 42 41 41 40 40 38 34 30 24
46 48 45 46 47 46 46 48 49 49 48 47 45 43 41 40 41 42 41 40 41 43 42 41 42 45 44 46 46 46 46 44 42 40 40 38 34 38 36 40 37 33 25 20

GFSCGP_500_spd_003.txt.gz
Wind_Speed
16 17 17 17 19 14 12 15 17 13 11 7 8 19 12 9 5 1 1 2 3 6 8 8 8 7 7 8 8 8 9 10 11 13 16 19 21 22 23 23 24 24 24 25
17 16 17 16 21 22 18 16 15 14 17 11 16 17 9 6 5 5 4 3 5 7 10 9 7 7 7 7 8 9 10 11 13 16 17 19 22 23 24 23 23 23 24 24
13 13 20 22 19 20 19 16 17 16 17 10 16 10 13 11 9 7 6 5 6 9 8 7 6 6 6 8 9 11 13 14 15 16 18 19 20 22 25 27 26 26 27 28
20 21 20 19 19 17 15 17 18 17 16 11 15 11 28 19 11 15 12 8 6 7 10 8 8 8 8 9 10 12 14 16 16 17 19 21 21 22 23 26 27 27 28 29
19 21 24 21 17 15 14 21 17 15 19 14 22 13 30 25 17 20 22 17 12 8 10 13 13 11 10 11 12 13 15 16 18 20 21 22 24 24 25 26 26 27 28 28
20 19 21 19 16 18 22 25 16 12 15 17 17 17 16 21 23 25 27 21 17 17 14 15 17 16 15 14 15 16 17 19 21 22 23 24 26 27 28 27 28 28 29 29
25 24 20 18 21 20 15 12 6 7 13 13 18 18 18 20 18 30 26 18 19 19 19 20 20 20 20 19 20 20 20 22 23 24 25 26 27 30 30 31 31 32 32 33
21 27 26 25 23 18 16 14 11 8 10 11 21 21 22 25 29 28 17 21 18 20 23 25 27 26 25 24 25 24 24 24 24 25 27 28 29 31 31 32 34 35 34 35
21 19 23 21 18 17 14 19 15 14 16 15 13 15 14 21 20 20 21 21 27 27 27 29 31 30 30 28 28 29 27 27 28 28 28 30 31 34 34 35 36 36 36 37
18 20 22 22 22 24 19 16 15 14 12 15 11 15 16 23 23 18 18 19 21 27 24 27 30 30 30 29 29 30 30 31 32 32 32 33 33 35 36 37 39 39 38 39
23 25 25 25 29 26 24 19 18 14 14 15 11 12 14 15 19 16 18 18 19 21 21 23 26 26 26 28 28 31 32 33 35 35 36 36 36 37 38 39 39 40 40 39
30 20 25 25 23 25 23 20 20 19 18 19 16 15 10 11 11 14 19 24 21 22 22 24 26 27 28 31 32 33 34 36 37 38 39 39 38 38 40 41 42 42 41 40
29 30 25 28 23 27 28 26 23 21 16 18 15 12 29 30 30 27 22 21 27 24 26 26 29 29 31 32 33 35 37 38 40 39 40 41 40 40 40 41 42 43 42 42
32 27 32 29 28 23 25 28 27 25 26 22 19 19 22 23 31 25 27 28 26 31 30 26 28 31 32 32 33 34 36 40 42 42 43 44 42 41 42 42 43 44 44 44
32 28 28 24 28 29 26 25 25 26 28 27 21 26 17 25 35 32 30 29 33 32 30 31 28 31 31 32 34 34 37 41 44 44 44 45 42 44 44 45 47 47 44 45
37 30 26 26 23 29 27 25 27 27 28 27 26 28 32 41 42 34 31 31 32 32 31 32 32 34 32 34 35 36 39 43 44 45 46 44 44 45 46 48 48 46 46 46
33 34 29 27 25 26 34 33 30 29 29 28 28 28 41 48 40 34 29 30 31 34 34 34 34 34 35 35 35 37 40 43 44 45 45 44 45 47 48 48 48 48 47 46
31 37 33 29 26 33 33 28 28 30 29 31 36 43 45 46 45 39 35 31 32 32 33 33 33 33 33 35 36 37 39 42 44 44 45 47 48 47 48 50 51 51 48 49
44 39 31 34 29 35 29 38 36 37 30 32 43 44 47 44 43 37 41 32 28 26 26 28 29 31 31 32 34 36 40 43 44 46 46 48 50 49 49 52 51 50 49 50
43 41 40 34 34 37 27 29 30 31 34 35 38 38 47 38 37 39 39 32 30 29 28 28 29 29 29 31 34 37 41 43 44 46 48 49 50 51 50 50 47 56 42 50
40 45 42 39 39 33 36 41 45 26 23 29 33 44 45 38 37 36 38 38 36 32 30 30 30 29 30 33 35 37 40 43 46 47 48 50 50 51 48 45 44 37 57 48
42 42 46 43 37 38 41 50 35 41 41 49 49 42 39 37 39 41 38 38 36 33 33 35 35 35 35 36 37 39 43 45 46 46 48 49 51 48 48 44 42 45 47 47
45 24 30 35 38 48 50 48 51 53 52 51 46 42 41 40 38 36 39 39 38 36 37 38 39 39 39 40 40 42 44 45 45 47 48 48 49 46 46 44 45 47 43 41
39 46 45 40 39 48 44 48 47 51 51 46 45 46 44 42 39 38 42 41 39 40 40 39 41 42 42 41 41 43 46 45 46 48 48 47 47 45 45 43 46 42 38 38
35 33 36 43 48 49 54 54 55 54 53 51 49 46 44 43 42 42 44 41 40 40 42 42 45 45 44 43 43 46 46 47 48 49 49 47 46 45 44 42 39 38 38 36
42 40 44 38 46 48 51 50 51 51 50 48 47 46 44 44 43 45 42 39 40 41 37 48 44 33 54 44 47 51 49 48 51 51 48 46 45 44 44 40 38 36 34 36

GFSCGP_500_spd_006.txt.gz
Wind_Speed
23 22 17 18 18 15 13 13 15 10 13 25 18 17 12 16 11 9 5 1 1 4 6 8 8 5 5 5 7 8 9 10 11 12 14 16 17 18 19 19 19 19 18 18
25 22 18 16 18 19 14 16 14 14 17 12 20 20 10 10 17 17 10 6 4 2 5 6 6 9 9 8 9 9 10 11 12 13 15 16 18 20 23 23 23 22 21 22
20 20 21 19 20 22 22 20 16 13 18 22 16 31 18 12 14 19 15 12 7 6 3 6 7 8 9 9 9 11 12 14 15 15 17 17 19 21 21 23 25 24 25 25
22 20 23 23 21 19 19 20 20 19 19 16 18 14 24 14 24 25 33 17 10 8 6 4 7 9 10 10 10 11 12 14 16 17 20 19 19 21 23 25 26 26 27 27
21 23 24 26 24 24 21 13 17 20 21 19 18 20 26 24 26 26 20 27 14 10 11 8 9 12 13 13 12 13 14 16 19 20 21 21 21 23 25 27 28 27 27 28
23 21 23 23 20 22 18 18 19 22 19 22 22 19 30 29 19 20 24 12 12 17 16 18 16 13 16 15 15 16 17 18 20 21 23 24 25 25 27 28 28 29 29 30
26 18 24 25 22 19 19 17 15 15 16 16 16 23 18 23 14 16 18 25 24 26 23 19 22 19 18 20 21 21 21 21 22 23 24 25 25 27 28 30 31 32 33 33
29 26 26 25 23 21 25 18 15 10 6 11 14 17 11 18 17 25 11 16 29 25 25 18 21 22 19 24 27 27 27 25 25 25 25 27 29 29 30 31 34 35 36 36
27 22 25 22 23 26 23 24 18 16 14 13 15 14 16 21 21 28 38 38 34 33 18 24 27 31 23 23 27 29 27 28 27 26 27 28 29 32 34 34 35 36 37 37
21 18 24 26 25 27 21 11 18 19 19 17 15 19 20 24 25 29 23 28 23 25 34 23 26 31 21 21 26 27 27 27 30 29 29 30 30 32 34 35 36 37 37 38
23 16 20 24 30 26 23 23 21 15 13 13 13 25 23 23 27 25 26 27 24 24 28 33 22 29 21 19 22 26 29 30 33 33 34 34 35 36 38 36 36 37 36 38
33 27 25 30 25 23 22 26 20 20 22 23 17 13 15 23 27 28 33 33 28 20 23 28 24 30 25 23 27 27 31 32 34 35 36 35 37 39 39 38 37 37 37 38
35 32 30 27 27 28 30 28 23 19 16 21 18 22 33 29 28 26 32 33 35 37 26 24 25 31 31 27 30 30 31 33 34 36 37 37 38 38 38 37 38 38 39 40
32 34 34 29 26 24 27 25 26 27 30 25 26 26 20 19 22 36 40 32 26 30 41 37 30 35 35 30 28 29 30 33 34 36 37 37 37 37 37 38 40 40 41 44
43 37 33 32 33 28 29 25 28 26 34 30 25 36 31 39 26 29 41 31 29 37 40 41 37 33 38 31 29 30 31 33 37 37 40 37 37 37 39 40 40 42 45 47
43 43 37 30 25 31 28 28 33 26 24 25 33 29 34 34 43 34 43 31 39 41 36 34 37 34 36 34 30 30 31 33 38 39 38 42 39 38 41 42 43 47 49 50
49 47 38 33 30 28 30 28 29 29 31 33 31 28 36 45 44 45 48 44 40 39 34 35 32 34 37 37 33 32 33 36 37 40 40 41 40 42 44 45 47 50 52 54
40 44 45 40 25 31 29 22 26 33 30 26 25 35 40 48 49 51 53 47 46 31 27 25 27 28 34 33 32 31 33 34 36 39 41 42 43 45 45 48 51 52 52 52
39 33 38 39 34 28 25 28 38 40 35 33 35 44 44 55 49 45 47 54 43 26 24 24 24 25 30 29 31 30 31 33 36 39 41 43 45 45 47 51 53 53 52 54
38 21 40 15 31 30 27 35 41 48 56 37 37 37 40 60 36 49 46 38 33 29 27 28 30 30 30 31 33 31 32 34 37 40 42 44 47 48 51 54 55 53 52 52
35 30 40 39 38 35 31 40 41 45 42 45 40 41 48 48 46 36 40 37 33 32 33 32 31 33 32 33 34 32 34 36 39 42 44 48 50 52 53 54 53 53 49 47
54 49 53 45 36 36 36 42 45 46 33 16 33 43 49 44 36 38 39 45 42 32 31 32 35 36 36 36 36 35 36 38 40 42 47 50 52 54 55 54 54 52 49 45
41 41 48 30 36 48 47 49 53 37 33 39 42 44 37 38 45 49 41 40 49 47 37 36 38 39 38 38 39 38 38 38 41 44 48 50 51 52 53 54 56 52 46 44
48 53 50 48 53 45 19 44 51 53 50 51 50 48 43 42 46 49 45 42 47 49 42 40 42 38 40 47 47 43 38 38 37 38 41 51 51 53 55 57 60 47 43 44
42 46 44 44 45 42 52 38 49 50 51 51 52 49 53 50 51 50 47 43 39 35 33 26 42 44 46 59 39 53 38 38 39 39 50 50 53 54 58 52 51 38 46 47
27 39 16 33 33 44 33 39 45 46 44 49 51 52 53 55 57 51 48 45 39 34 47 44 47 43 41 42 27 44 49 48 54 50 56 56 59 57 57 50 42 53 50 46

GFSCGP_500_spd_012.txt.gz
Wind_Speed
31 32 27 19 21 19 19 13 3 5 14 16 10 11 12 5 13 2 5 3 1 3 3 3 4 6 6 6 6 5 3 4 4 5 6 7 7 8 9 10 11 11 12 12
32 30 23 18 26 29 26 23 17 7 12 20 21 15 9 13 4 4 3 5 5 5 3 2 3 4 4 4 4 3 1 2 2 3 5 7 8 9 10 11 12 13 13 13
27 24 28 25 31 29 27 26 23 6 14 21 23 23 17 13 12 4 7 9 11 2 6 7 6 5 5 4 2 1 3 4 5 6 7 7 8 9 12 13 15 15 16 17
29 32 37 33 31 31 31 21 8 14 20 26 23 25 20 17 16 8 12 16 13 11 7 9 8 6 5 5 5 5 6 7 8 9 10 10 11 11 13 14 16 17 17 18
29 37 37 38 30 36 29 21 16 20 23 23 26 27 19 19 18 10 15 8 6 9 14 12 9 9 8 10 10 12 12 11 12 13 14 15 16 16 17 18 19 19 20 21
35 36 38 34 34 41 34 24 26 27 27 31 26 23 25 28 19 19 21 15 9 12 7 7 10 14 13 15 16 17 17 16 15 16 17 19 20 19 19 21 23 25 25 25
42 42 41 37 42 45 41 32 35 36 40 40 29 31 24 29 29 22 24 16 16 13 6 20 20 16 13 16 18 21 22 21 18 17 18 18 20 20 21 24 26 26 26 26
46 47 46 44 44 39 37 34 37 41 41 37 22 30 16 14 21 19 27 20 17 10 13 17 14 11 13 13 18 25 28 22 17 17 17 19 19 19 22 25 28 29 28 29
49 47 43 45 43 37 40 42 35 34 25 29 26 21 9 16 19 18 17 19 22 20 15 18 18 14 13 17 19 19 25 28 19 20 20 18 21 20 21 24 28 29 30 30
45 46 43 39 35 33 33 33 36 35 31 30 26 18 21 16 22 15 18 18 22 22 21 24 19 11 3 5 12 19 25 25 24 24 24 24 25 24 23 24 28 31 30 29
41 41 40 38 39 33 28 31 30 26 30 35 24 19 21 18 23 17 19 23 24 22 20 17 17 7 14 13 13 20 26 27 29 31 25 31 30 27 27 25 29 31 30 27
43 41 44 43 35 29 23 34 32 34 32 33 31 28 27 23 24 18 24 16 18 25 31 23 18 16 19 21 20 21 26 29 32 29 27 31 31 31 30 28 28 30 29 28
41 45 43 43 39 28 34 34 32 31 33 31 29 31 29 27 30 26 22 20 22 24 27 31 24 20 23 24 29 30 28 28 29 28 29 30 31 32 33 31 30 31 31 33
24 47 46 46 38 33 28 28 30 34 36 34 34 33 32 33 29 33 36 36 30 26 28 23 22 21 24 24 23 32 35 33 31 30 30 31 31 33 32 33 31 33 35 36
20 49 47 45 37 36 40 40 30 30 35 33 27 29 36 38 34 33 34 37 36 31 28 28 26 25 33 35 33 34 37 32 33 32 33 34 34 35 34 34 34 35 37 38
31 33 49 50 40 33 29 37 41 29 35 30 31 34 32 32 33 33 34 36 43 43 35 33 32 39 43 35 31 38 35 33 32 33 34 37 36 37 36 37 39 38 38 38
43 38 49 51 40 34 35 38 46 44 50 42 38 40 34 38 35 37 43 45 50 43 42 39 41 34 34 38 45 41 34 33 31 32 34 33 36 41 38 39 44 41 39 39
40 43 33 49 41 40 38 45 38 29 34 31 23 28 32 29 32 40 39 45 47 45 43 47 42 37 40 45 45 46 39 39 35 39 38 37 41 44 41 40 41 41 40 42
41 45 38 41 48 42 40 42 32 35 33 33 34 37 33 33 44 43 43 42 48 55 53 44 41 38 40 36 38 42 43 43 44 43 39 41 43 44 42 38 41 43 43 43
32 45 45 50 44 47 50 48 48 43 42 44 35 38 40 37 37 42 46 51 51 46 45 38 34 45 51 48 48 52 47 48 47 45 45 45 44 44 43 42 46 45 44 43
44 43 42 41 48 53 53 54 55 54 55 54 52 45 43 37 36 37 42 50 51 49 49 44 44 43 45 43 43 50 51 51 50 48 45 44 43 47 55 40 46 46 45 41
46 54 48 47 43 45 49 51 55 60 60 57 57 51 41 51 50 40 39 47 52 50 48 49 43 44 44 39 46 49 43 38 41 42 46 44 47 49 44 48 41 47 47 40
47 52 58 53 58 53 53 52 53 58 59 52 43 47 53 54 55 50 49 43 44 43 46 39 40 42 44 44 43 40 40 39 34 37 43 46 38 32 42 34 33 39 38 46
50 43 49 51 59 54 56 52 49 51 47 52 47 41 44 50 52 57 57 44 36 33 37 40 43 43 48 50 45 43 37 31 38 48 43 45 34 43 27 36 31 36 52 48
46 35 29 29 39 61 48 45 43 44 47 45 36 36 37 37 47 47 44 41 36 43 38 45 43 49 50 48 46 46 49 41 48 43 48 54 52 41 51 41 38 43 45 47
41 40 35 24 23 26 30 27 25 27 32 42 39 42 45 49 32 43 30 33 41 43 47 47 44 45 47 48 48 48 52 54 44 53 48 49 60 57 52 50 43 42 44 45

GFSCGP_500_spd_015.txt.gz
Wind_Speed
36 34 32 30 28 23 18 20 13 7 4 5 7 6 7 11 5 3 4 3 1 3 4 1 4 5 7 6 6 6 5 4 4 3 1 2 3 3 4 4 4 5 5 6
38 31 29 33 31 29 25 20 18 12 5 6 7 7 3 7 1 4 4 1 3 6 5 6 3 3 5 6 5 3 3 2 3 4 4 5 5 6 7 7 8 10 10 11
31 28 37 34 30 31 28 21 18 8 8 15 17 12 2 3 3 2 3 3 6 5 6 7 7 7 5 6 6 5 5 5 5 7 8 9 9 10 10 11 12 14 15 16
34 37 42 38 31 28 34 24 20 20 17 16 18 18 12 6 9 9 2 3 11 7 4 8 9 10 9 7 7 8 7 7 8 11 13 14 13 13 14 15 15 17 18 20
38 35 41 40 31 30 32 27 26 21 18 20 23 26 14 17 11 1 4 4 8 5 12 7 9 11 13 12 10 12 12 12 14 15 17 19 19 18 16 19 20 20 21 21
43 39 44 43 33 37 32 35 33 28 24 30 27 27 21 15 7 5 5 2 3 10 14 5 4 7 12 16 18 17 17 18 19 20 22 23 24 20 20 22 23 22 23 24
49 47 48 46 44 45 41 40 38 36 36 37 29 32 15 6 6 6 9 10 5 8 7 8 15 14 14 13 16 18 17 16 20 23 20 18 20 20 20 23 25 23 23 25
52 53 50 52 50 49 46 46 44 41 30 32 36 40 7 13 17 12 9 11 5 0 8 10 7 8 12 13 12 16 20 18 17 17 17 19 20 18 20 23 26 24 25 28
55 52 53 56 50 47 52 55 45 44 37 39 38 38 23 23 20 19 13 17 6 4 5 9 7 7 18 13 14 14 17 19 22 20 20 24 23 23 24 24 24 28 26 28
53 53 53 54 56 53 58 55 51 51 45 47 43 41 39 26 22 16 15 15 9 10 10 5 7 6 6 10 6 9 15 20 22 24 25 29 29 25 26 27 26 27 29 30
48 53 50 55 58 57 60 57 57 51 46 42 33 35 34 31 27 18 15 19 12 16 6 6 8 5 4 1 4 9 14 20 23 26 29 31 30 31 30 30 29 28 30 33
39 49 48 54 56 56 63 60 53 51 48 44 38 37 26 24 21 17 20 15 12 10 10 12 9 10 9 7 8 9 14 20 23 23 26 28 29 31 33 33 31 28 30 32
33 45 50 50 55 57 59 54 47 38 35 37 33 35 36 31 27 24 25 24 22 22 21 17 13 12 11 12 13 21 22 26 30 31 29 30 30 31 35 34 33 30 32 31
24 37 50 52 49 53 52 46 35 35 37 37 36 30 27 31 33 32 30 27 23 24 20 20 19 17 18 15 18 27 25 27 35 35 36 34 33 35 37 37 36 33 35 34
34 33 37 48 47 53 47 39 35 37 30 34 29 28 29 32 30 32 31 29 24 21 22 21 26 33 24 26 28 25 22 31 40 42 44 38 33 35 36 39 37 34 41 39
40 35 25 43 46 55 48 42 37 39 32 29 27 29 27 28 28 30 30 28 28 23 24 29 35 37 33 28 32 31 35 41 42 43 42 54 38 35 38 39 33 38 48 45
39 38 34 36 47 54 56 45 42 41 38 35 38 33 35 32 33 30 29 31 32 29 30 34 37 35 35 35 40 36 34 36 37 44 42 46 59 44 36 50 42 45 51 54
41 41 38 32 45 53 53 40 38 37 38 43 40 40 41 35 32 29 30 32 36 31 34 35 37 40 42 44 48 39 34 37 46 48 46 45 37 40 43 46 45 49 49 46
43 41 40 39 42 44 50 46 39 30 36 36 52 50 41 41 33 33 32 36 34 36 37 41 41 42 47 48 45 38 36 44 47 46 46 45 47 46 45 46 47 55 53 54
44 41 39 41 38 42 45 47 41 34 36 46 56 57 34 31 32 30 29 30 38 42 39 40 44 48 46 36 41 38 46 49 48 49 48 52 48 45 48 46 51 54 55 52
39 40 40 40 44 46 43 36 43 39 40 43 45 42 36 34 33 32 34 39 41 40 44 48 48 43 43 47 53 46 44 48 44 43 48 44 42 49 47 48 51 50 55 43
45 43 40 41 46 47 46 42 44 44 39 37 40 43 46 47 45 44 47 48 48 48 50 52 46 48 45 47 41 38 40 43 46 45 43 39 40 35 40 41 41 40 54 37
48 49 42 39 45 44 44 44 39 38 42 44 42 44 44 44 47 46 39 43 47 48 52 47 49 46 45 32 39 42 38 43 46 45 42 38 38 43 45 39 48 50 30 30
53 47 40 38 43 49 46 46 48 53 54 52 51 49 46 44 43 50 54 56 55 49 52 52 54 47 39 39 46 47 43 44 43 41 43 44 41 43 41 44 51 55 52 46
44 50 41 37 45 48 51 48 47 45 46 46 44 45 44 45 46 47 49 55 57 53 49 56 48 40 43 43 44 47 45 44 44 42 44 45 44 46 48 55 49 47 55 49
36 42 27 36 44 41 53 56 56 52 55 48 49 46 48 48 54 49 50 46 45 34 35 41 43 46 45 45 44 45 43 46 47 50 50 47 48 42 48 48 44 47 44 46

GFSCGP_500_spd_018.txt.gz
Wind_Speed
33 33 24 24 18 21 17 20 18 16 18 13 8 5 4 6 2 6 6 4 3 1 2 2 4 5 6 7 8 7 7 6 5 4 2 2 4 4 4 6 7 7 8 9
35 29 30 32 30 21 19 24 25 18 15 11 9 6 4 2 3 3 3 6 4 2 5 5 3 4 5 6 7 8 7 6 5 5 6 6 5 5 7 8 9 11 11 13
35 29 38 39 32 25 21 25 27 17 13 14 11 12 8 2 4 4 2 2 3 2 2 6 7 6 6 7 8 7 7 8 9 8 9 9 8 10 11 12 13 14 15 16
40 40 44 42 37 30 21 15 26 25 22 16 14 12 10 6 6 6 2 2 6 3 2 4 9 12 10 9 9 10 10 11 11 10 11 12 14 14 15 18 19 19 19 20
44 44 48 45 37 31 23 16 25 25 22 21 21 22 14 14 12 6 6 3 7 3 7 11 11 15 13 11 11 13 14 13 14 14 15 16 20 22 21 20 21 21 22 24
52 50 52 47 40 38 26 29 29 32 33 36 22 23 16 15 5 10 6 2 6 9 11 11 8 11 10 9 11 14 18 18 16 17 17 19 21 22 22 20 20 19 23 24
58 54 54 55 50 48 40 39 42 41 42 43 28 26 9 9 10 7 2 5 10 12 10 7 6 12 18 17 17 13 15 13 12 15 16 14 16 18 20 21 22 21 22 24
62 63 57 57 56 51 43 40 45 46 43 40 36 28 13 9 12 11 10 10 13 11 9 14 11 13 14 18 16 14 15 11 12 13 14 15 15 16 19 22 21 23 27 26
62 63 61 59 56 54 51 49 46 48 47 45 43 40 27 17 16 18 18 18 19 14 11 13 13 14 16 17 15 15 16 15 14 17 17 19 20 23 23 24 24 25 26 29
54 57 62 64 61 59 57 51 51 54 53 52 50 44 30 22 21 21 17 16 19 17 16 16 12 9 9 12 19 16 12 15 17 17 18 20 22 26 26 27 28 27 26 26
48 55 57 65 69 61 65 63 58 56 56 54 51 48 38 26 26 22 20 22 17 16 13 11 10 7 8 3 4 2 4 7 14 17 18 20 23 26 27 30 30 32 30 27
47 48 57 57 60 63 64 67 61 61 59 58 54 47 40 25 19 24 28 25 23 14 10 9 7 10 13 12 7 4 9 16 19 20 24 29 28 29 28 33 34 33 32 29
44 52 54 54 54 60 68 69 67 64 60 63 57 52 41 30 26 29 32 30 23 18 20 18 15 9 9 9 15 15 16 19 19 24 32 35 36 38 29 31 36 38 34 30
43 53 54 62 59 57 66 70 71 64 64 62 57 50 38 29 31 33 31 27 24 21 20 20 15 14 15 10 10 16 16 19 23 30 34 36 37 46 49 30 41 46 36 24
44 47 52 52 52 51 57 63 67 63 62 64 50 48 37 28 27 31 21 23 24 25 19 19 16 16 16 18 14 15 16 24 29 30 33 37 45 44 41 55 39 40 39 40
44 45 44 48 47 48 55 60 68 64 65 64 54 45 25 24 24 22 23 26 27 28 22 20 16 17 19 20 19 19 25 27 31 32 34 38 46 39 34 43 34 31 35 40
44 43 40 43 42 47 55 56 61 60 61 52 46 36 27 23 24 25 28 28 24 24 24 23 20 20 26 29 30 25 29 34 34 36 38 39 45 48 45 38 38 41 45 41
49 47 38 35 31 39 51 52 56 54 52 48 44 34 30 28 29 30 32 31 25 21 27 27 24 25 27 30 34 33 39 39 39 42 43 44 50 50 48 41 39 41 45 44
41 47 37 42 37 35 43 50 56 59 51 46 40 41 38 35 37 39 35 35 26 26 25 27 30 31 33 36 35 37 42 43 42 44 47 48 49 50 45 39 36 43 36 35
53 44 41 39 39 39 41 48 55 55 50 45 36 40 40 39 40 39 35 38 30 33 32 34 37 37 36 36 39 43 47 50 49 47 42 48 46 44 42 37 41 41 33 36
47 46 38 40 38 36 39 44 50 55 48 43 41 31 36 35 40 44 43 40 34 35 35 36 38 40 41 43 47 49 47 46 54 46 38 45 43 42 43 38 39 36 39 42
33 38 34 40 38 37 36 40 41 45 46 50 38 34 39 37 43 42 45 40 39 41 36 41 40 45 47 50 56 59 46 47 54 38 37 44 44 42 39 38 38 39 43 44
44 18 30 38 42 39 35 36 36 37 41 51 40 43 47 32 35 38 36 40 39 40 41 43 43 49 52 58 52 51 46 42 51 35 44 45 43 41 41 41 38 38 43 46
37 40 27 36 43 40 38 41 37 38 38 38 35 41 43 35 37 36 36 37 33 34 38 42 44 50 55 60 56 56 55 46 43 45 46 46 44 42 40 42 44 44 45 43
29 30 43 39 30 38 40 42 45 46 45 42 41 39 36 38 38 40 39 38 43 38 35 44 50 51 50 57 52 51 50 49 48 45 42 44 45 43 44 47 49 48 46 46
32 36 36 45 36 36 39 42 30 36 39 40 39 45 44 39 38 38 40 44 44 44 47 57 60 49 41 38 41 46 47 46 47 46 44 46 45 48 49 50 49 47 45 42

GFSCGP_500_spd_024.txt.gz
Wind_Speed
34 33 29 26 29 24 21 18 18 20 22 21 19 16 15 14 13 12 12 13 10 9 8 8 7 8 9 11 12 12 12 9 8 8 7 6 4 4 3 4 6 7 8 7
38 33 33 33 33 32 28 23 22 23 25 24 21 19 17 15 14 14 10 8 8 7 5 5 5 6 8 10 10 11 11 11 11 10 9 8 7 7 6 7 8 10 12 13
38 35 39 39 35 35 33 30 26 24 27 27 26 24 20 16 16 15 13 11 11 8 7 7 7 8 9 10 11 12 12 12 11 11 11 10 11 9 9 11 12 14 16 17
44 44 45 39 37 34 34 29 31 28 31 29 26 20 19 19 19 17 14 12 11 9 9 8 7 10 12 12 12 11 11 11 11 10 12 12 13 13 13 14 16 18 20 19
47 45 42 45 40 37 32 36 37 30 32 28 29 29 23 25 22 19 17 15 13 11 13 13 13 12 12 14 14 14 13 12 12 13 15 16 16 17 17 18 17 14 15 15
45 49 50 47 46 41 36 39 42 35 33 38 32 31 25 23 19 21 21 20 17 16 14 14 15 16 15 16 17 15 14 14 14 17 19 19 18 17 16 16 16 15 15 15
42 51 51 52 52 50 46 42 39 38 39 37 33 40 34 25 20 20 23 20 19 19 18 15 11 9 8 11 15 17 18 16 18 18 19 16 17 15 16 16 17 18 18 21
39 49 53 55 56 52 50 45 41 40 35 34 39 38 33 27 25 28 30 25 23 22 17 12 14 10 8 9 11 16 19 24 24 19 17 16 17 16 17 18 19 19 22 24
39 43 47 57 58 57 54 58 45 33 33 34 31 35 36 31 28 30 32 30 23 19 16 14 16 12 9 9 12 16 17 18 18 17 16 17 16 11 11 14 21 15 23 24
38 42 47 54 59 59 61 51 54 46 42 40 36 32 28 29 29 32 30 27 22 18 17 18 19 17 14 13 12 11 11 14 17 15 14 12 10 8 14 18 14 18 30 29
36 40 41 53 60 61 65 67 60 46 45 40 36 35 30 32 32 32 25 25 24 25 23 21 20 23 22 15 12 10 11 14 14 11 12 13 13 15 19 18 33 28 29 29
38 35 43 48 54 59 64 68 67 61 54 47 44 36 26 28 35 33 29 24 26 31 32 27 26 24 23 15 12 13 12 15 15 14 14 15 17 20 22 22 25 29 32 32
37 41 35 42 43 53 63 62 68 60 60 53 48 44 35 35 32 30 27 24 25 28 32 31 25 21 23 20 14 13 12 15 18 17 15 15 18 21 23 24 28 29 33 32
42 41 41 39 44 45 62 67 64 55 58 55 54 38 38 39 46 34 26 21 17 24 28 29 24 20 25 25 25 22 20 19 21 21 21 21 21 22 26 26 31 30 33 35
45 44 44 42 35 34 39 49 69 73 69 61 52 52 48 44 42 36 35 31 26 20 29 28 26 26 27 29 28 27 27 25 25 22 18 18 21 26 30 31 33 35 35 34
47 46 44 43 41 42 38 41 44 54 76 78 74 70 48 47 54 47 36 36 32 25 30 35 31 31 30 30 28 30 29 31 29 22 22 22 26 30 35 37 36 37 37 32
49 48 43 44 36 37 41 42 42 49 60 64 73 71 67 68 59 46 39 38 33 26 29 34 32 30 31 26 28 29 32 34 32 25 25 24 30 34 38 40 41 39 40 36
54 48 45 42 29 38 39 34 40 44 47 57 62 58 61 58 57 54 45 41 38 32 35 35 32 30 31 32 34 35 33 33 27 27 28 29 31 36 40 43 45 40 47 41
56 51 46 40 37 30 31 32 36 37 42 48 54 54 53 52 52 53 48 39 35 36 39 36 32 31 34 34 34 38 33 33 34 29 34 34 35 38 45 47 39 39 41 35
58 54 51 38 38 34 34 37 29 29 37 35 42 48 48 51 52 46 47 36 38 38 40 41 35 34 38 38 38 35 34 36 38 33 36 39 41 44 49 54 39 44 39 39
59 57 54 50 39 39 47 41 36 32 29 32 36 41 43 49 48 47 43 39 42 39 42 40 36 35 39 40 39 40 41 41 39 40 40 45 49 51 47 47 47 41 39 39
53 54 52 44 47 42 48 42 38 34 30 30 29 35 39 44 43 41 39 43 43 41 43 42 36 36 39 40 42 44 44 42 42 43 46 50 52 53 49 49 49 48 38 42
49 46 43 51 47 53 49 47 43 40 32 29 28 28 30 34 33 28 30 38 37 40 42 39 36 39 42 44 48 49 54 45 44 46 50 56 51 57 48 50 46 43 43 42
49 50 48 44 50 53 51 52 47 33 33 31 30 30 32 33 37 36 38 38 37 39 41 39 40 40 44 46 46 53 45 46 50 51 53 59 61 57 46 43 44 48 46 43
46 42 43 44 41 34 34 40 43 37 34 35 35 31 34 35 39 38 38 38 40 43 46 45 41 44 46 49 49 47 49 51 54 55 57 58 57 55 45 44 44 46 48 47
36 38 34 40 33 29 28 26 30 42 38 35 39 38 37 41 45 44 42 42 42 47 44 39 43 44 44 45 47 50 54 60 56 56 51 49 46 46 42 44 49 50 50 50

GFSCGP_500_spd_027.txt.gz
Wind_Speed
29 33 28 28 26 25 20 17 20 19 29 21 18 16 15 13 13 13 12 10 10 9 9 9 8 9 10 11 11 11 10 9 8 7 6 6 6 5 4 4 5 5 6 6
37 36 30 30 28 29 26 23 20 15 29 22 18 17 17 17 15 13 12 12 10 9 9 8 8 10 11 13 12 12 12 11 9 9 9 9 8 8 8 7 8 9 9 11
34 33 32 34 35 34 30 26 23 22 26 30 20 19 22 22 18 18 16 15 14 13 10 9 9 10 10 10 11 11 9 10 10 10 10 11 10 10 11 11 12 12 14 15
30 35 38 38 39 37 35 30 26 25 35 22 26 21 27 21 22 20 19 17 15 14 13 12 12 12 11 11 11 11 10 9 9 9 10 12 13 14 15 15 16 17 17 15
26 33 39 43 39 39 35 29 29 27 34 17 26 25 21 21 21 21 19 19 18 17 16 16 15 13 12 12 13 13 12 12 10 10 12 14 16 18 19 19 18 16 16 16
28 29 39 44 45 43 35 31 31 31 31 36 28 31 24 30 19 20 19 21 21 20 21 22 21 18 17 17 16 16 15 15 13 13 15 17 19 22 20 18 17 16 16 18
28 32 36 45 48 45 43 36 37 37 40 40 30 38 27 24 31 20 21 24 25 25 24 23 20 20 18 13 13 16 18 18 17 15 16 18 19 18 16 16 15 15 16 16
31 34 34 40 47 47 51 47 44 43 36 32 32 38 35 29 23 16 22 18 24 30 26 18 16 16 12 8 9 11 15 19 19 20 20 20 19 16 15 12 9 14 12 15
35 34 32 36 41 49 49 55 43 38 32 33 31 32 35 35 36 34 30 24 24 32 26 18 17 15 15 11 11 12 12 16 19 20 21 19 17 14 7 6 12 5 7 14
35 29 33 34 39 47 53 43 48 49 45 41 36 34 33 35 39 33 34 28 23 27 27 19 17 17 15 13 14 12 11 12 16 17 16 18 15 10 8 10 9 10 18 16
40 39 30 33 42 43 52 58 49 46 48 44 39 34 31 29 27 29 31 29 20 21 25 26 25 22 19 16 13 12 13 14 15 18 18 15 13 12 15 16 16 18 20 20
45 41 40 38 36 36 41 47 50 52 51 50 44 37 31 30 30 25 23 21 21 17 21 25 28 25 25 20 17 16 16 14 15 19 18 14 14 17 19 21 22 18 21 26
41 44 37 38 35 39 45 50 51 52 44 53 48 46 29 25 29 24 30 37 32 31 36 35 32 31 27 25 20 21 16 15 19 18 20 19 19 16 19 21 20 22 26 26
49 41 49 43 40 31 37 42 46 49 58 51 53 43 38 38 29 35 39 37 34 32 33 34 34 33 31 24 20 23 22 24 24 21 20 19 17 17 18 19 22 24 26 30
53 53 43 46 34 30 32 37 40 49 54 55 48 46 45 38 38 34 32 45 35 28 26 27 29 33 31 29 23 23 25 27 28 24 23 20 17 17 19 18 22 26 29 31
51 52 47 39 37 37 34 36 38 43 48 48 49 48 45 43 37 33 42 44 36 41 29 29 31 28 30 28 27 30 28 29 28 25 24 24 23 22 23 25 27 31 36 38
53 49 49 49 35 33 39 40 38 37 37 45 53 53 46 47 50 46 47 41 40 40 37 32 35 31 33 30 30 32 28 29 27 27 27 27 26 22 24 25 30 35 38 43
45 50 43 39 34 40 43 35 37 38 37 38 39 40 46 52 61 51 54 54 46 39 37 37 35 34 36 39 38 36 33 33 31 29 25 28 28 26 29 32 34 37 40 46
43 43 43 41 42 35 33 28 31 35 38 38 38 37 39 40 41 48 57 56 54 49 40 37 36 37 37 37 38 37 37 34 31 25 26 30 33 30 32 34 37 39 42 47
55 49 42 38 40 38 29 45 38 41 47 42 39 37 38 36 42 49 43 45 46 50 44 43 46 49 41 37 38 36 40 39 31 27 29 33 36 37 38 41 41 43 46 49
58 57 52 44 39 37 38 49 40 40 34 36 35 33 37 36 41 35 26 39 44 44 41 38 47 51 46 41 41 40 42 39 36 35 36 40 41 41 43 46 46 46 48 52
56 59 54 48 45 43 55 46 40 39 33 32 22 22 25 27 32 30 46 49 39 38 35 37 44 48 45 44 43 41 43 44 41 41 43 46 47 47 48 47 49 51 55 56
51 55 50 40 42 48 45 38 40 42 42 35 29 26 26 25 35 43 41 38 38 34 36 42 46 47 45 44 42 40 45 46 45 46 48 53 52 46 48 49 53 55 58 59
38 45 46 44 45 49 48 41 45 39 34 35 33 31 34 34 32 33 33 32 32 36 40 43 45 44 44 43 45 43 46 49 53 53 55 58 64 48 52 53 57 60 64 63
48 50 54 58 62 51 49 48 46 39 34 35 32 33 37 34 29 28 29 34 34 31 35 40 41 41 42 45 45 44 48 50 53 55 58 57 53 52 56 60 66 51 50 50
55 42 52 54 56 53 46 40 34 29 29 30 32 34 36 35 34 33 30 35 31 31 32 33 38 42 44 43 44 47 50 52 52 55 55 57 56 57 59 56 54 50 48 51

GFSCGP_500_spd_030.txt.gz
Wind_Speed
28 32 27 31 28 24 18 17 10 30 27 14 21 24 19 3 4 9 10 10 10 9 8 7 7 9 9 8 8 8 7 6 6 5 4 4 3 3 3 3 4 4 6 7
32 33 25 27 31 28 24 24 22 29 32 15 16 23 19 16 13 12 12 11 10 9 9 8 8 8 8 8 8 8 8 9 8 8 7 6 6 6 6 6 7 8 9 11
21 23 28 31 31 31 30 31 23 29 25 16 14 13 16 23 19 16 15 14 14 14 12 11 10 9 9 8 9 9 9 9 8 9 7 6 7 8 9 9 9 10 13 15
17 24 31 35 34 30 30 31 25 20 27 26 25 22 22 22 22 16 17 16 15 14 13 13 12 12 12 11 10 10 9 10 10 8 8 8 9 11 11 12 13 14 15 14
16 22 28 36 34 31 29 33 26 24 23 25 36 31 23 31 31 29 18 19 20 19 17 16 16 16 16 14 13 13 12 11 11 11 12 11 11 12 14 15 15 13 12 11
23 22 26 29 33 35 30 31 33 30 27 35 34 35 22 30 32 31 31 17 19 19 19 18 19 19 18 16 15 14 15 15 14 14 14 13 11 12 14 12 11 10 9 9
25 26 25 30 35 36 37 34 35 37 39 38 24 38 27 24 34 30 39 23 17 19 20 19 20 19 18 19 19 19 17 16 16 16 16 15 11 12 11 9 9 5 8 6
33 33 30 29 34 36 42 40 44 40 39 35 31 39 42 31 33 33 21 21 21 24 20 21 18 19 17 15 10 10 10 11 13 17 19 17 15 14 9 8 3 8 8 7
37 36 29 31 31 41 39 47 41 38 33 34 31 31 33 33 29 39 14 25 33 37 24 20 23 18 18 15 11 11 8 9 12 17 19 20 18 13 7 4 4 5 3 12
39 34 32 34 34 38 43 35 44 48 46 46 37 37 34 31 34 31 28 25 30 23 21 29 24 18 19 15 15 12 11 9 10 11 13 14 14 10 6 6 8 11 13 10
42 42 34 31 45 41 40 46 47 40 50 49 44 41 27 34 32 32 39 43 25 30 30 35 30 17 20 18 14 13 11 11 11 12 12 14 13 9 7 9 13 12 12 14
46 46 48 41 34 37 40 41 46 54 50 51 47 45 23 31 29 37 36 28 33 33 23 28 32 26 20 17 13 13 15 16 12 11 10 10 10 9 10 12 11 8 11 17
40 50 49 50 43 36 43 42 39 53 49 48 52 53 37 37 38 25 27 20 19 24 30 34 34 26 18 18 16 16 18 18 17 12 11 7 11 13 15 13 5 9 13 17
40 45 55 59 52 38 39 43 42 40 50 57 51 48 46 36 42 23 40 23 30 32 37 36 37 28 21 23 19 23 21 21 21 19 16 12 11 16 14 10 7 12 14 17
56 60 53 48 42 33 38 37 41 45 50 51 57 46 43 47 36 34 23 26 44 45 46 43 41 37 39 43 26 27 26 20 20 19 17 12 13 18 16 14 16 14 19 23
60 64 57 53 39 44 39 39 38 43 44 47 50 49 41 35 46 37 36 39 39 34 41 50 48 42 40 40 36 32 31 30 26 22 18 16 16 19 20 20 20 19 21 25
51 59 62 60 50 37 46 49 38 38 39 40 49 54 49 51 46 49 48 31 30 37 37 47 44 40 35 35 36 36 32 31 29 27 23 21 17 18 22 21 20 20 23 27
51 50 54 58 47 48 57 43 40 37 35 38 40 48 48 55 55 54 50 51 50 43 45 50 52 41 37 39 39 37 33 33 31 30 27 24 19 19 22 24 25 25 26 29
47 53 46 51 46 50 48 39 35 36 39 35 31 27 34 54 63 60 58 57 50 62 41 48 45 45 40 41 43 45 39 36 35 32 32 24 17 20 22 25 27 32 33 34
44 40 37 43 42 49 40 40 28 32 43 44 37 34 34 36 36 55 69 63 60 58 59 58 55 48 46 44 43 46 44 38 37 33 34 29 23 22 25 29 32 35 36 41
50 44 49 42 49 45 36 34 35 42 39 38 45 49 52 50 45 44 39 37 54 72 71 69 65 59 53 52 51 44 43 41 37 38 36 32 27 29 32 35 39 41 42 44
57 55 42 45 39 37 44 46 50 43 47 43 40 45 47 47 46 47 47 44 43 44 49 60 62 52 45 50 57 43 43 43 41 39 38 37 37 39 39 43 48 53 48 41
46 55 49 45 43 40 38 60 48 45 50 45 44 45 40 40 43 41 43 53 58 47 45 44 50 48 43 50 49 50 47 47 46 42 40 42 44 44 45 47 54 57 53 48
45 48 50 44 45 50 51 39 55 53 42 35 45 31 39 38 37 43 45 44 47 47 51 51 45 45 47 47 43 46 49 46 46 43 43 45 47 48 50 53 55 53 56 56
42 46 45 39 42 50 57 58 44 39 56 49 55 40 38 44 41 44 42 37 39 41 49 51 48 48 47 47 44 46 45 44 45 43 44 47 51 55 57 57 55 57 56 55
39 47 43 42 53 54 54 57 52 54 52 46 40 40 39 43 45 41 41 36 34 37 40 45 46 48 44 42 45 44 43 40 45 47 46 48 55 56 54 54 51 53 54 55

GFSCGP_500_spd_033.txt.gz
Wind_Speed
30 30 24 25 24 23 24 26 19 17 28 27 21 23 17 14 11 8 8 6 8 10 12 12 11 10 9 8 8 7 6 6 4 3 3 3 4 3 3 1 1 4 6 7
27 25 25 25 26 27 27 25 17 24 35 29 21 22 12 7 10 15 10 7 8 9 9 10 11 10 9 8 7 7 7 7 6 6 4 3 4 4 3 2 4 6 7 9
16 16 28 30 30 28 29 25 23 29 32 34 27 16 11 14 9 19 9 6 6 9 11 11 10 9 8 7 7 7 7 7 8 8 6 5 6 5 5 4 6 8 9 10
16 18 25 32 33 29 28 23 26 28 20 25 20 13 14 18 11 7 8 4 7 9 8 8 9 8 6 6 6 8 8 9 8 8 8 7 6 6 6 6 9 10 11 8
14 19 18 25 30 33 18 31 30 27 22 29 25 37 32 24 29 18 16 10 11 12 12 10 10 10 9 10 11 11 10 11 10 10 9 9 8 6 7 7 7 6 6 5
24 23 22 18 27 33 26 32 38 33 24 37 28 32 27 27 28 30 24 17 18 14 14 12 10 11 11 11 12 13 13 11 13 13 12 11 9 7 8 5 3 4 3 5
25 27 26 23 24 30 35 36 43 44 41 44 34 34 25 14 29 32 29 29 25 22 17 15 13 9 13 12 13 18 21 18 16 15 14 13 11 11 8 2 2 0 1 4
34 33 29 25 27 28 31 41 46 51 49 42 35 38 31 13 21 24 27 38 29 32 18 18 12 10 13 13 11 10 12 11 13 16 15 15 13 14 11 5 2 1 0 3
38 36 28 32 28 31 33 40 38 46 48 46 45 40 23 21 30 28 34 28 32 30 29 21 13 8 9 12 11 11 8 6 7 8 12 14 16 15 11 6 7 1 6 8
39 41 34 33 34 36 39 32 35 46 50 52 45 44 31 24 30 30 34 33 36 37 26 23 16 13 7 13 15 13 7 8 7 5 5 8 10 9 10 10 9 4 6 11
40 43 41 39 44 40 39 41 45 39 46 48 47 48 35 30 27 34 36 32 32 25 28 15 17 28 17 14 17 14 8 8 8 6 2 4 4 7 9 9 7 9 7 8
42 43 50 48 44 40 42 40 42 48 46 49 52 48 35 30 35 37 31 30 35 38 30 14 26 26 15 17 15 15 12 9 10 9 4 4 4 7 9 8 10 10 9 6
35 50 49 51 50 49 47 42 45 44 46 50 49 48 42 41 33 33 32 36 32 18 18 29 30 27 16 18 20 21 13 12 13 13 11 7 8 8 9 10 11 13 9 7
46 48 57 61 56 50 50 45 42 44 51 48 49 44 38 46 42 36 36 36 31 31 32 38 36 30 26 23 20 24 21 16 15 15 16 14 10 13 15 14 12 15 10 11
60 61 57 57 52 54 53 44 42 49 47 49 41 48 46 47 50 41 31 33 32 25 31 38 40 39 38 30 25 18 23 19 21 17 18 16 13 17 20 16 17 19 19 15
71 65 56 54 54 50 55 54 49 44 43 45 44 45 50 44 42 39 37 36 32 31 44 35 39 39 39 40 38 37 33 25 28 25 19 19 17 16 21 20 19 21 19 16
71 68 60 64 58 53 55 64 57 44 39 39 47 40 39 53 51 36 28 39 43 37 32 38 44 46 44 43 44 46 38 28 30 29 26 25 23 18 19 22 22 23 21 21
68 66 61 64 62 62 65 56 54 52 46 42 40 36 36 41 55 43 38 43 47 45 47 39 40 41 46 51 51 48 45 35 31 32 32 29 26 21 20 23 22 22 25 21
67 59 62 57 68 70 65 55 52 49 46 47 42 38 38 32 53 58 52 50 49 43 53 41 43 49 39 45 45 50 45 40 38 34 35 31 29 25 21 25 24 24 23 22
58 52 52 48 67 77 68 58 45 49 48 47 48 44 33 33 44 63 62 60 58 52 54 54 49 45 54 47 41 43 44 43 39 38 39 38 33 29 24 25 26 27 27 26
59 49 43 45 56 71 62 63 45 37 52 50 52 47 41 40 45 51 69 66 64 63 60 54 60 50 55 50 52 55 50 49 42 43 42 42 38 35 30 27 32 32 32 33
61 57 36 40 49 57 45 42 48 46 52 51 48 51 51 47 47 47 44 59 75 74 71 71 67 64 57 54 54 58 47 47 46 48 46 43 43 39 34 33 37 39 33 37
66 57 44 42 41 44 40 45 48 56 58 52 51 49 51 54 56 55 51 47 44 48 66 80 78 75 71 61 62 66 69 66 62 51 51 45 44 42 37 38 42 39 39 42
71 64 48 50 55 51 53 55 55 48 53 52 53 51 48 49 51 52 48 47 46 49 51 53 54 54 52 60 75 74 76 74 71 53 52 53 47 45 42 42 42 43 44 47
71 61 47 55 52 50 56 62 55 50 50 58 57 48 50 48 46 43 43 46 47 46 50 46 48 53 49 52 51 51 64 69 63 57 53 53 51 47 43 43 44 44 47 51
58 55 56 58 53 56 54 53 56 60 59 53 53 52 50 48 47 52 42 42 42 44 41 39 43 46 49 57 53 51 51 58 51 47 48 47 48 46 41 44 46 46 52 55

GFSCGP_500_spd_036.txt.gz
Wind_Speed
28 29 26 23 22 22 23 17 18 17 14 14 13 14 14 14 9 3 2 4 6 7 9 16 16 16 16 14 11 8 7 6 4 5 6 7 7 6 5 3 2 1 2 3
16 19 25 26 27 24 30 22 24 25 21 16 20 18 22 10 5 4 3 4 7 5 6 10 12 13 12 13 10 9 7 4 3 2 3 5 6 5 4 3 2 2 3 6
12 10 20 28 30 27 28 31 28 29 27 22 30 28 21 11 8 5 4 6 8 8 9 11 11 12 10 8 8 8 9 6 4 4 3 4 5 6 5 5 5 5 6 8
17 16 19 24 30 30 27 28 33 35 31 27 26 20 31 16 10 8 10 8 7 7 7 5 8 9 8 6 3 4 6 8 7 6 6 6 6 7 7 8 8 9 9 8
14 19 19 20 18 29 17 33 36 36 35 34 33 28 22 25 17 14 12 9 10 7 7 4 5 6 5 3 4 5 5 6 7 9 8 7 7 6 8 10 10 10 10 7
24 25 24 20 21 23 24 34 38 41 42 47 39 33 22 30 10 13 14 15 9 11 11 8 8 8 9 6 7 9 9 9 7 10 11 11 8 9 9 12 11 10 9 3
27 29 27 25 23 24 28 37 42 47 50 48 38 34 24 18 18 8 14 15 19 16 15 13 13 16 14 12 11 13 14 14 15 13 13 13 12 13 12 9 11 9 7 4
34 36 28 25 27 24 28 37 45 50 53 46 41 45 23 17 15 12 6 9 12 18 17 13 18 17 16 14 14 12 11 10 14 15 16 15 15 15 13 12 13 11 8 3
38 38 30 33 28 31 29 37 37 46 47 50 48 46 33 26 22 18 14 15 12 13 10 15 21 21 15 13 11 10 7 7 9 12 13 15 17 17 17 15 15 12 6 5
40 43 36 34 35 39 38 30 36 46 51 55 52 51 41 34 23 15 17 19 15 13 15 16 21 22 14 10 10 11 8 8 9 10 8 7 14 17 17 16 17 15 9 5
43 46 39 42 48 42 41 42 41 39 41 45 46 43 44 36 28 20 20 19 18 20 18 14 16 21 22 24 17 11 13 9 7 8 7 5 10 15 16 18 19 15 10 6
57 51 52 48 44 46 45 44 42 44 44 40 37 36 32 37 37 31 25 23 17 21 24 24 14 21 22 16 14 11 14 13 10 10 8 8 7 11 14 17 19 14 11 10
60 63 60 57 54 56 58 52 47 44 41 45 42 37 24 36 41 39 30 27 21 30 29 29 23 27 23 16 17 12 16 17 14 13 13 12 10 10 13 16 16 14 14 14
69 68 69 65 58 55 56 55 54 51 52 47 43 42 22 37 46 39 27 21 25 38 32 27 34 27 21 17 19 15 12 22 20 16 14 15 15 12 14 17 16 16 17 18
76 76 74 71 64 55 57 56 55 56 52 52 40 42 33 29 49 44 35 28 22 33 36 36 38 33 24 21 21 20 18 25 22 20 18 16 19 18 20 21 20 20 19 23
77 80 77 77 74 67 60 60 58 55 52 52 50 46 36 34 46 49 46 40 37 31 38 37 29 30 35 29 28 23 25 28 24 21 19 21 23 22 18 22 24 24 24 27
74 80 79 78 73 65 52 68 65 61 57 53 53 44 36 35 37 53 56 52 39 40 36 27 33 33 28 32 32 34 31 32 26 26 26 28 27 28 24 22 27 29 28 30
78 78 79 78 70 67 69 63 64 62 60 56 54 46 38 34 33 41 52 56 47 41 43 39 30 36 34 41 39 34 35 34 32 31 29 32 32 31 29 27 25 29 32 34
83 73 71 75 68 65 69 66 60 68 63 54 53 51 43 35 32 39 47 56 52 45 33 41 44 37 50 42 42 38 39 43 38 32 29 33 31 33 33 32 28 30 34 35
82 72 64 60 68 62 68 61 63 55 63 59 57 54 41 36 42 37 42 54 51 47 48 51 43 42 49 44 47 31 37 40 43 41 34 36 35 35 34 32 32 33 32 32
86 72 63 45 67 69 68 62 54 50 54 61 61 55 50 45 36 38 39 45 59 58 57 51 49 45 45 48 50 45 46 48 48 40 40 41 42 40 40 38 38 36 36 37
71 70 73 59 58 58 70 75 57 48 53 51 54 59 56 51 47 40 40 34 41 62 63 59 52 50 50 57 52 52 54 45 44 51 43 45 47 47 46 45 44 41 44 45
58 73 77 57 40 62 64 72 61 60 52 53 50 56 55 52 52 48 46 38 37 39 64 65 65 60 52 54 54 53 63 55 56 60 59 51 55 57 44 47 49 46 49 51
37 70 72 51 41 42 65 55 53 59 59 60 55 54 56 56 53 50 47 49 41 43 42 52 70 69 62 60 64 65 65 68 66 67 64 62 59 60 56 54 57 55 52 60
57 34 69 53 42 46 65 47 41 49 52 57 65 63 53 54 51 52 53 54 52 53 52 44 46 52 59 64 67 68 67 75 78 77 73 65 69 72 69 71 65 64 58 58
59 42 48 66 42 47 45 51 47 51 52 54 57 57 56 52 52 55 57 56 53 47 44 43 45 47 45 46 52 55 59 62 59 55 56 52 53 53 70 63 57 59 63 62

GFSCGP_500_spd_039.txt.gz
Wind_Speed
22 27 25 20 19 18 23 21 20 19 19 16 13 7 1 5 6 7 5 7 8 9 12 14 17 16 14 12 11 9 8 9 10 11 10 10 10 10 7 4 2 1 1 2
16 12 21 26 25 24 23 23 23 24 20 19 17 10 7 4 6 6 6 7 7 8 9 13 13 10 11 12 11 10 9 8 8 8 9 10 10 9 7 5 4 3 4 4
16 12 18 23 28 27 25 24 24 22 26 24 23 23 12 3 12 10 10 10 6 7 10 10 12 13 15 13 10 10 10 8 6 7 8 9 9 8 7 6 6 7 7 8
21 19 20 22 27 28 26 23 30 29 33 33 28 26 21 13 10 13 16 14 9 7 8 9 11 12 13 14 13 9 7 6 7 7 8 8 7 8 8 7 7 10 10 10
18 21 22 21 13 26 21 31 35 34 38 40 38 33 18 18 20 14 17 17 14 12 10 11 12 14 14 11 10 9 7 6 5 6 6 7 7 8 8 9 10 13 12 9
27 28 29 22 22 19 22 32 38 44 43 51 40 38 26 18 15 16 9 10 14 12 13 12 11 11 13 16 13 10 9 10 9 9 8 9 9 9 10 10 10 12 9 7
27 30 30 29 26 25 29 38 43 48 53 47 37 40 21 21 20 16 13 9 15 12 7 5 9 16 15 15 14 12 12 12 13 13 12 12 13 13 13 13 10 10 9 7
36 37 33 28 27 26 28 38 45 46 49 42 39 37 12 23 21 23 15 16 16 16 15 11 6 13 16 17 15 14 14 15 17 19 18 16 15 14 15 16 13 11 10 9
38 39 32 32 32 33 29 41 34 42 47 45 44 32 31 29 31 34 24 21 19 12 11 4 7 7 15 16 15 13 14 14 14 19 21 17 17 16 17 20 16 13 12 13
49 47 38 35 39 40 41 31 39 45 46 46 37 29 29 30 30 33 28 24 19 16 14 5 10 11 13 17 14 8 11 14 13 15 16 17 19 21 23 23 20 16 19 14
55 55 45 44 50 44 43 44 42 41 42 43 41 27 25 25 28 31 27 25 21 20 14 7 10 14 13 18 15 13 15 16 13 13 13 13 12 17 23 24 22 19 22 16
59 58 56 53 49 44 46 46 46 50 45 38 37 35 28 30 28 33 34 34 29 25 21 17 18 13 16 19 18 19 19 19 16 15 14 11 11 10 14 19 21 20 23 18
64 63 60 58 57 57 58 55 50 47 45 46 42 39 24 23 28 36 37 32 31 29 27 25 26 23 20 20 18 21 23 20 20 18 17 14 12 11 10 15 19 20 22 19
72 70 67 63 62 57 58 56 54 51 52 47 44 41 25 21 26 32 43 40 35 33 33 32 21 31 21 22 23 23 22 24 25 23 20 17 15 14 13 15 16 19 22 21
80 77 74 71 67 66 63 60 56 55 52 51 40 43 33 22 26 31 36 42 46 43 40 40 27 26 21 24 29 26 25 21 26 27 22 18 17 19 19 16 17 21 23 21
85 82 80 78 74 69 70 68 64 59 55 53 51 48 39 27 31 35 38 43 44 44 43 42 35 31 24 24 34 29 29 25 24 31 24 21 20 20 21 21 19 19 25 26
87 88 85 83 78 76 73 70 68 66 61 56 56 48 42 37 37 41 40 44 49 47 45 44 40 35 27 26 23 33 27 28 26 31 29 24 21 21 23 26 27 24 24 29
89 90 90 89 81 81 68 64 68 68 67 62 57 52 48 43 38 40 44 44 48 51 48 42 43 36 38 32 24 27 29 34 30 34 34 29 35 23 28 30 32 31 30 31
91 89 91 89 84 84 79 72 64 66 65 64 61 56 55 48 44 41 44 44 45 55 54 54 52 47 43 45 29 30 36 38 40 38 41 36 32 33 33 32 34 35 33 32
92 87 86 84 85 86 82 78 75 67 67 59 61 62 57 55 53 48 39 40 43 46 56 61 57 53 52 46 42 40 33 40 39 38 41 40 40 37 33 32 36 39 39 37
95 96 91 83 82 86 81 73 73 67 69 60 58 63 59 58 56 50 43 40 43 46 49 48 46 45 49 52 52 45 43 42 42 40 49 49 38 37 34 36 41 43 43 43
60 80 95 89 81 78 71 60 50 51 66 66 62 57 59 55 51 49 46 41 35 44 43 48 48 47 50 48 52 52 55 47 43 39 44 50 47 45 41 41 43 44 48 48
56 51 65 84 85 67 61 58 54 48 50 62 61 59 55 58 52 49 46 41 33 31 30 27 51 54 51 49 47 49 48 51 49 48 47 51 47 51 54 49 53 47 51 55
47 54 51 41 76 69 53 53 63 57 55 56 60 56 51 50 54 55 50 44 42 32 33 35 34 41 59 58 57 56 49 46 49 52 51 50 52 53 47 52 59 57 56 58
39 49 48 50 45 75 60 57 63 67 62 59 56 61 48 48 46 48 54 54 48 44 37 42 42 40 41 45 57 64 65 65 61 57 51 52 56 60 61 63 65 64 65 64
33 42 48 41 56 72 50 60 65 68 69 59 59 59 59 58 50 51 52 53 52 49 48 49 48 50 47 47 48 48 50 51 51 53 57 59 59 61 65 68 67 67 71 74

GFSCGP_500_spd_042.txt.gz
Wind_Speed
12 15 16 19 15 18 23 23 21 16 17 10 11 7 13 11 9 13 10 8 7 10 12 18 21 20 19 14 9 9 11 12 13 15 14 11 9 9 8 6 4 3 2 1
11 3 10 20 20 22 26 28 23 19 18 16 16 14 14 10 13 13 15 10 9 10 11 13 15 16 15 15 10 8 9 10 11 10 11 11 10 8 7 5 4 4 3 3
16 10 15 15 22 24 26 24 26 23 26 26 25 18 16 10 14 15 18 18 15 12 15 16 17 15 16 14 11 10 8 7 8 8 9 10 11 10 9 8 8 7 5 6
23 20 18 17 19 25 25 23 27 29 31 29 26 25 24 17 17 15 18 21 20 17 14 16 16 17 16 16 15 13 9 7 6 6 8 10 11 11 10 10 9 8 7 8
19 20 19 18 11 21 20 28 26 30 33 34 32 29 22 23 22 18 17 22 22 19 16 16 16 15 14 12 10 12 12 11 10 10 10 10 11 12 12 11 9 8 8 8
31 29 31 24 22 20 22 31 34 35 37 43 32 26 25 21 10 26 23 22 24 23 20 16 15 17 15 17 15 12 10 10 11 12 14 14 13 12 14 12 7 8 8 7
33 32 30 29 28 25 26 33 40 45 47 34 31 34 17 16 19 23 25 23 19 19 19 16 11 10 14 15 16 14 12 13 15 15 16 17 16 13 15 13 10 8 8 6
35 37 32 27 26 24 26 32 38 36 29 24 39 30 11 19 22 22 20 22 23 23 17 15 12 10 12 14 14 14 13 16 17 18 19 18 16 14 15 14 12 10 10 8
44 42 36 35 32 32 31 39 28 39 42 35 35 21 22 22 27 30 27 27 28 23 16 15 14 11 11 13 14 14 15 17 19 21 23 21 19 17 17 19 16 14 12 12
50 48 41 37 39 41 40 32 38 43 42 38 29 25 18 20 27 27 26 22 26 24 23 18 16 17 9 12 18 16 13 7 13 17 18 21 21 21 21 22 19 18 17 15
53 52 48 45 49 43 42 43 43 39 40 38 34 24 17 12 22 32 26 28 29 28 25 19 14 15 14 16 20 21 19 12 11 14 17 19 20 22 24 25 24 21 21 18
59 60 54 51 48 43 44 42 44 46 41 34 34 27 20 15 19 28 30 36 31 31 30 27 24 21 21 22 24 21 20 20 16 17 20 19 19 15 14 18 23 25 23 21
66 64 60 57 57 57 56 52 51 48 44 44 41 29 25 18 14 26 36 37 33 30 33 32 29 28 24 24 25 20 23 20 20 20 21 21 17 14 12 13 15 18 21 22
71 69 65 64 59 60 60 59 55 52 53 43 41 33 24 18 19 20 32 40 41 40 37 34 33 33 31 24 22 27 29 28 27 26 23 22 19 16 14 13 14 16 19 23
76 74 72 70 64 63 61 61 59 58 53 54 43 38 29 20 20 21 26 35 44 44 41 36 39 35 30 27 21 23 29 29 29 28 27 22 21 21 20 18 16 17 19 19
82 79 77 74 72 68 65 62 60 61 58 56 49 45 36 27 27 29 30 31 32 39 43 39 38 38 36 33 29 28 22 29 30 24 23 27 25 23 22 20 19 19 17 19
87 86 82 80 76 73 71 63 62 62 60 57 54 47 38 30 30 31 33 37 34 30 33 41 43 39 38 37 32 28 24 28 31 26 24 23 27 25 24 24 24 23 22 24
91 91 88 86 80 80 72 68 66 67 64 60 57 52 47 40 36 37 38 38 39 36 34 37 39 38 35 33 35 26 26 27 33 34 32 28 28 29 28 27 23 27 28 30
95 95 93 91 87 83 80 77 71 74 68 65 61 57 52 48 46 41 40 41 40 42 37 36 41 39 37 34 30 29 28 21 22 26 28 34 32 35 35 32 34 26 31 35
91 94 95 95 94 91 86 79 75 74 72 68 66 61 55 52 53 46 41 40 40 40 41 40 41 45 45 41 39 37 34 34 28 26 31 36 37 37 40 39 40 36 37 35
89 96 96 97 99 96 91 85 81 78 72 63 64 63 60 58 52 49 42 41 39 37 40 42 41 44 50 49 42 41 42 43 42 27 32 34 36 36 38 46 45 42 40 39
64 84 100 96 101 102 94 88 86 83 77 69 67 57 60 58 52 49 46 42 41 38 36 37 35 40 44 47 49 48 45 40 35 33 37 37 41 41 42 47 54 53 53 45
44 65 80 100 105 95 95 85 84 84 80 77 71 66 61 54 52 45 40 44 38 33 36 40 35 37 41 44 42 41 40 41 39 40 41 47 47 38 46 43 44 48 56 54
32 44 60 75 98 97 98 83 77 73 72 74 69 69 67 59 58 48 43 44 44 38 37 32 31 33 32 44 44 46 44 47 45 44 43 46 47 45 47 50 49 53 51 49
27 33 40 50 70 81 86 87 73 59 48 38 38 43 54 57 53 53 44 43 39 39 37 36 33 35 34 34 36 45 52 55 55 56 53 49 44 48 52 53 56 59 58 59
24 32 46 42 36 52 75 87 70 50 52 42 44 49 42 43 42 42 48 48 48 49 43 43 37 38 41 42 41 40 41 40 39 40 42 43 43 47 52 55 56 60 63 65

GFSCGP_500_spd_045.txt.gz
Wind_Speed
11 13 11 20 20 19 20 26 24 21 20 17 10 16 18 15 15 15 17 16 14 14 17 25 27 24 21 16 13 13 13 13 16 17 17 17 15 15 13 11 8 5 2 1
13 4 8 17 23 23 23 29 25 23 22 20 17 19 17 13 16 20 20 19 16 15 19 22 23 22 20 18 15 13 14 14 15 15 14 15 15 14 11 8 6 3 1 1
18 15 16 18 22 26 28 27 30 27 27 24 22 22 19 17 11 17 20 24 23 19 19 22 22 21 20 16 13 12 13 13 14 15 14 14 13 12 10 8 5 3 3 4
25 23 19 18 20 27 30 29 31 33 32 29 25 25 25 23 20 14 21 20 23 22 20 20 22 22 20 19 18 15 12 11 11 10 11 12 11 11 10 8 6 4 4 7
20 23 20 18 12 24 25 29 31 33 38 36 30 27 25 29 25 17 17 20 22 23 24 22 20 18 19 18 16 17 17 14 14 14 13 12 11 11 9 9 8 6 6 8
33 32 33 22 25 23 27 34 35 37 38 43 28 27 30 33 19 20 18 21 23 24 23 21 20 20 20 20 20 18 16 16 15 15 16 14 14 13 12 12 10 9 7 9
39 36 31 32 32 29 29 35 38 42 44 33 30 36 23 27 28 24 24 23 26 26 27 25 20 17 17 15 16 18 17 16 15 15 15 16 17 16 16 15 14 12 9 8
40 41 36 30 29 26 27 30 34 36 26 35 39 23 15 24 25 25 31 27 31 31 27 25 25 23 21 20 19 17 14 13 13 15 17 18 18 17 19 17 17 16 12 9
46 46 42 38 31 32 32 37 23 34 34 32 28 15 15 26 23 24 27 31 32 32 29 25 25 25 23 21 17 17 17 17 16 17 20 21 21 19 19 22 20 19 15 11
47 50 45 41 40 40 40 34 37 39 39 32 23 15 12 16 23 29 31 32 30 31 32 29 26 23 23 22 20 20 20 18 18 15 15 21 25 26 24 23 22 20 19 14
48 51 51 49 48 44 42 43 41 37 36 33 25 12 8 14 24 31 29 24 26 24 26 25 25 24 24 23 23 22 22 18 17 12 12 16 19 24 24 24 26 24 23 18
56 54 52 52 52 47 44 43 44 44 39 30 29 21 13 13 20 33 38 34 34 30 31 30 28 29 28 25 23 19 23 21 18 16 17 16 19 21 23 23 25 26 26 23
60 61 58 54 55 54 52 50 49 47 43 39 36 23 17 12 21 28 36 36 32 30 36 34 32 29 28 29 27 22 23 25 22 20 20 19 19 20 18 17 15 15 17 20
66 65 61 58 57 56 55 54 53 52 49 40 36 31 23 17 16 23 30 34 35 34 34 39 36 33 29 28 26 23 23 28 24 24 22 21 19 18 18 19 16 14 13 15
71 71 67 63 61 61 60 57 56 55 49 48 37 36 28 22 21 24 33 37 40 39 42 42 39 36 33 31 30 24 24 26 26 24 26 22 21 22 23 21 17 17 14 13
77 75 73 71 68 64 63 62 61 58 55 52 44 42 32 25 25 28 29 35 40 42 42 42 45 40 36 34 31 26 25 23 22 25 25 25 27 24 24 22 19 18 15 14
81 79 77 75 73 71 68 63 63 62 58 54 50 44 35 30 29 26 30 31 34 39 44 48 50 50 47 41 38 30 24 32 30 23 27 29 27 23 24 25 26 22 19 21
84 83 81 79 77 77 69 68 67 66 61 57 54 48 40 35 34 33 33 35 34 33 35 38 42 42 41 36 38 35 36 32 29 30 25 28 29 24 25 29 28 27 26 25
87 87 85 83 81 79 76 72 72 69 63 60 57 52 47 41 38 39 38 36 38 37 34 32 34 36 35 29 28 32 34 33 34 24 23 25 25 29 33 29 30 33 33 31
90 90 90 88 86 85 77 74 74 71 69 64 59 55 53 48 46 37 39 40 41 42 38 36 33 32 31 27 28 28 30 29 28 22 18 21 34 35 36 33 33 36 39 42
83 93 93 91 90 88 84 80 76 74 71 66 65 62 58 54 51 44 38 41 43 46 43 42 37 33 34 34 31 30 31 30 26 27 31 31 27 35 41 46 51 42 42 49
66 84 94 95 96 93 86 82 81 77 75 68 63 62 62 58 56 53 45 43 45 45 42 40 38 37 32 32 36 32 30 36 39 38 37 36 33 35 40 46 43 48 58 51
48 65 79 94 100 94 92 88 83 81 77 73 69 64 62 58 49 42 47 47 42 39 45 42 39 35 31 31 32 32 33 38 39 43 40 38 38 42 44 45 46 45 44 59
33 44 65 78 94 97 100 92 91 86 81 77 74 71 66 60 56 53 47 41 44 43 36 39 38 37 38 38 37 36 35 36 41 40 38 42 39 38 41 39 43 46 51 51
25 31 44 61 71 83 93 96 96 88 85 75 71 70 66 66 66 56 49 47 43 39 38 35 36 37 37 35 35 38 38 38 40 42 45 46 44 44 44 44 48 50 48 48
22 25 33 40 52 69 73 89 96 93 89 73 54 55 47 53 61 62 55 54 52 46 42 41 42 41 39 35 35 37 37 44 49 48 50 51 52 53 52 50 50 48 48 53

GFSCGP_500_spd_048.txt.gz
Wind_Speed
15 17 17 23 23 23 27 31 28 28 30 27 17 18 16 16 11 14 18 20 19 18 20 23 30 28 24 20 16 15 15 16 16 16 17 18 18 16 15 12 10 8 5 4
18 8 17 24 28 24 24 29 30 29 31 28 26 20 22 19 13 15 20 20 20 19 21 25 30 26 23 20 17 16 16 17 18 17 16 14 14 14 12 10 9 7 5 3
20 20 21 27 31 31 28 25 34 33 32 28 27 25 23 20 17 11 17 21 22 23 24 27 28 25 24 21 18 18 19 18 19 18 17 16 15 15 14 10 8 7 6 3
30 30 26 24 28 32 32 29 37 40 35 29 28 25 25 23 22 14 15 17 21 22 24 27 25 25 23 21 22 20 19 18 18 18 18 18 17 15 13 12 11 8 6 4
27 27 25 23 18 29 32 35 37 39 39 36 33 33 28 32 27 19 14 18 21 23 24 26 27 26 25 23 22 21 21 20 18 18 19 17 16 15 13 13 12 9 5 5
34 34 37 28 29 27 36 40 39 38 40 46 32 33 32 36 29 24 20 21 24 25 26 27 28 27 25 22 22 23 22 20 20 19 17 16 16 15 15 15 12 8 7 6
39 40 38 39 36 33 36 43 42 46 49 38 32 38 27 35 31 29 28 25 26 25 27 27 26 24 22 21 21 21 20 20 20 19 17 17 18 16 16 16 14 12 10 8
43 42 39 38 38 37 35 37 44 49 44 39 39 34 23 24 30 35 32 28 29 29 28 29 27 25 24 22 22 21 21 20 19 19 19 20 20 18 18 17 17 14 13 9
51 46 42 41 37 40 36 44 35 39 42 40 30 20 29 24 30 37 35 33 30 27 29 31 29 27 27 27 25 23 22 22 21 20 21 21 21 20 19 19 20 15 15 14
57 53 50 45 42 43 42 34 37 40 42 38 32 25 16 15 32 34 38 34 31 32 30 29 31 30 29 28 27 25 24 22 20 21 19 20 22 22 22 22 19 17 18 16
56 55 56 53 50 48 47 45 43 43 40 34 27 20 15 16 27 30 29 31 28 32 31 32 33 30 29 29 28 26 24 22 19 16 15 15 18 21 23 23 24 21 22 19
56 56 56 55 52 52 48 47 42 43 37 33 24 16 19 17 24 35 33 31 27 32 30 33 32 28 28 29 30 26 23 22 20 19 18 14 14 15 16 18 22 23 21 22
63 58 55 58 57 58 57 52 50 48 44 38 32 27 23 12 22 28 34 34 30 30 32 34 34 33 30 26 22 21 25 25 25 24 24 20 14 13 13 16 20 20 18 19
64 63 60 55 47 53 57 55 53 51 49 40 35 29 24 19 24 29 33 35 36 33 29 28 32 32 31 29 29 26 27 25 25 26 29 26 19 16 13 15 16 13 15 14
68 65 65 63 62 59 58 58 57 57 50 44 36 34 28 24 26 32 38 41 42 41 39 37 37 36 36 34 32 29 27 23 24 24 25 20 19 18 17 16 15 14 13 13
73 71 69 65 62 61 60 60 60 58 53 48 41 38 33 31 29 30 36 40 41 43 45 40 39 40 40 37 32 31 25 23 23 15 11 19 22 23 21 20 19 17 17 14
77 76 73 69 64 64 66 60 58 58 56 52 46 41 39 29 23 24 28 36 41 42 43 43 40 44 45 42 38 34 32 28 25 23 19 20 18 21 25 24 23 21 21 21
80 78 75 73 73 71 65 62 63 60 56 53 48 48 44 38 34 31 33 37 40 43 46 41 41 45 47 48 43 40 34 33 30 25 22 19 19 22 27 28 24 25 25 26
81 79 77 76 77 69 71 71 69 65 64 59 56 57 50 42 38 37 37 34 36 37 38 43 42 42 46 46 47 48 44 42 41 37 28 25 25 27 28 28 25 26 29 31
81 82 81 79 78 77 69 73 74 71 68 63 62 58 53 44 42 40 37 38 38 38 40 40 40 37 33 34 39 41 40 42 40 37 28 28 27 25 23 28 34 36 38 36
81 83 84 82 82 81 80 81 76 73 71 70 66 62 58 51 48 44 43 36 38 40 41 42 39 36 32 30 29 32 31 32 31 33 31 31 28 26 25 27 32 35 38 42
80 87 85 86 86 87 82 82 82 77 78 71 70 67 63 55 52 47 45 41 41 40 41 43 41 37 35 33 34 33 30 28 32 31 30 32 29 30 33 34 37 38 42 50
59 77 90 90 91 87 86 87 84 81 81 73 71 68 65 61 58 55 49 46 43 42 41 41 41 40 37 36 35 34 32 32 31 32 32 33 34 38 39 39 41 39 42 45
45 56 79 88 91 92 89 85 86 84 78 78 75 70 64 59 59 59 53 51 47 45 45 42 43 42 40 38 38 34 37 37 35 35 38 40 43 41 40 42 42 43 46 49
28 42 56 73 83 90 94 91 91 86 85 79 76 74 71 65 58 55 54 50 47 44 40 42 43 42 40 35 38 38 38 39 40 41 42 44 43 41 42 44 45 41 43 45
15 24 40 52 59 73 81 90 93 88 85 81 80 74 68 67 65 61 59 55 50 47 47 41 36 37 38 38 29 31 38 38 38 39 41 42 44 45 47 48 48 47 48 50

GFSCGP_500_spd_051.txt.gz
Wind_Speed
19 21 25 27 26 28 27 25 23 22 23 21 21 16 16 18 15 12 10 13 17 19 19 20 23 29 28 24 22 21 20 21 20 20 20 19 17 15 13 11 9 8 7 5
23 15 17 26 30 28 29 28 28 22 36 23 25 20 17 16 20 13 15 15 19 17 19 22 26 29 26 25 22 20 21 21 22 21 20 18 16 14 13 12 10 9 7 6
26 20 22 27 34 35 33 29 29 30 26 29 33 27 24 22 22 20 15 14 17 18 18 21 27 30 27 24 21 21 21 22 21 19 18 18 18 17 16 12 9 8 7 6
34 30 32 28 34 36 35 30 31 30 30 29 35 27 29 25 27 22 15 18 13 18 19 22 28 27 25 25 25 25 24 23 21 19 18 19 19 15 12 10 11 10 7 7
34 37 34 32 26 32 33 34 36 38 33 32 29 29 20 24 26 25 17 14 17 16 18 23 28 27 27 25 24 24 24 23 21 21 21 19 16 15 14 14 13 10 8 7
39 36 37 34 29 30 35 39 41 42 43 45 40 33 29 27 22 25 23 19 17 19 20 23 29 30 28 24 23 24 24 23 23 22 21 19 18 17 16 15 13 11 10 8
42 40 37 44 40 36 36 44 45 44 46 49 39 40 35 26 26 27 29 23 21 22 22 24 29 30 27 21 20 21 22 21 21 21 20 19 18 16 16 14 13 12 11 10
48 48 45 44 45 40 40 43 49 47 43 37 35 39 34 33 26 29 28 28 25 25 26 27 26 30 28 23 22 21 21 21 20 18 17 17 16 15 15 15 15 13 12 12
52 48 43 46 42 43 41 43 35 35 24 28 26 28 30 27 30 32 35 32 30 26 27 28 28 27 27 24 23 23 23 24 22 21 21 18 16 16 16 17 17 14 11 12
55 39 52 46 48 48 48 35 42 41 36 27 27 24 24 21 26 30 32 33 32 26 23 27 30 30 29 26 26 27 25 24 23 21 19 16 15 16 17 19 17 18 17 14
62 48 38 52 55 49 47 47 44 38 39 30 23 19 20 24 20 30 34 36 36 32 24 27 30 29 31 31 30 27 26 24 20 19 17 16 16 16 17 19 20 21 20 16
61 69 57 51 52 48 49 47 45 45 41 38 24 11 27 22 22 29 36 33 35 33 30 31 30 33 34 33 31 28 28 27 23 20 19 17 16 12 12 12 16 20 20 19
68 69 67 50 41 53 55 52 49 42 41 36 34 25 30 24 19 29 35 33 32 32 27 28 32 35 32 32 31 29 27 22 20 19 21 19 19 14 13 11 11 12 13 15
68 68 66 58 51 46 57 57 53 50 48 38 34 27 36 22 21 33 35 39 38 35 31 33 34 33 33 33 31 27 22 21 22 20 17 20 24 21 19 17 13 10 11 12
70 65 66 60 36 39 43 56 58 56 50 46 27 28 26 25 24 31 35 39 38 30 33 29 33 33 31 29 27 25 25 22 20 18 14 17 18 21 20 16 13 12 12 13
72 69 64 65 59 61 58 57 57 56 56 49 44 31 24 37 32 32 40 42 41 38 37 36 35 34 31 32 31 31 30 26 20 17 12 13 14 15 16 18 17 14 14 16
76 69 70 69 69 68 65 63 59 55 44 52 50 44 38 37 37 34 36 39 40 42 39 38 36 36 37 36 36 35 34 29 23 19 19 16 13 13 15 17 17 17 17 19
73 76 76 73 67 71 61 54 57 54 57 55 53 49 51 46 32 32 35 35 36 43 43 40 41 38 36 33 37 39 39 35 29 27 22 23 17 15 15 16 17 20 22 21
69 71 73 69 69 60 62 62 56 58 58 55 54 51 47 41 39 34 31 32 33 33 40 46 44 45 43 43 43 43 41 38 36 33 26 24 25 22 23 21 22 24 25 25
65 68 71 72 66 50 41 50 67 68 58 61 59 54 52 52 47 40 39 38 37 41 41 41 41 43 44 39 37 36 37 40 39 35 36 34 33 33 32 26 27 28 29 29
66 67 69 70 70 62 42 45 65 67 50 67 65 61 59 55 49 47 43 37 36 39 40 41 38 35 33 33 37 31 32 39 41 41 43 43 40 34 32 29 30 26 24 26
49 72 69 69 72 69 48 61 63 58 71 70 69 64 61 56 51 49 47 43 41 42 43 41 39 39 35 32 30 28 31 28 37 41 42 37 37 36 33 31 32 31 30 30
48 63 55 67 70 76 69 71 67 81 72 75 72 66 64 60 55 53 48 46 42 42 44 45 45 41 37 34 32 30 28 31 31 32 33 35 36 33 32 33 35 34 32 33
49 62 74 83 85 87 86 83 83 84 81 76 66 68 66 63 59 53 51 49 49 44 43 45 44 42 40 37 35 33 33 33 33 35 34 35 35 36 35 36 36 34 37 40
44 57 71 82 85 89 90 89 87 85 81 80 78 71 64 61 57 52 54 53 51 47 44 44 47 44 42 40 39 37 36 33 33 37 39 39 38 38 38 41 42 40 43 42
24 38 53 66 78 86 91 89 88 84 82 80 78 75 73 69 63 57 52 52 52 52 49 47 45 46 46 45 42 38 38 37 37 38 40 42 43 44 45 46 46 48 47 46

GFSCGP_500_spd_054.txt.gz
Wind_Speed
25 24 20 27 28 28 24 24 24 19 15 19 18 32 21 25 20 15 4 10 7 9 13 15 19 23 28 25 23 21 19 19 18 17 16 15 13 11 10 9 9 7 5 3
33 21 18 24 31 32 28 26 23 16 24 31 23 29 22 19 14 15 11 8 11 9 11 13 17 23 27 25 23 22 21 20 20 19 18 15 13 11 11 10 9 7 6 5
31 25 24 25 29 35 32 29 27 22 28 31 19 29 24 19 17 19 18 14 13 9 12 14 18 22 27 24 22 21 21 22 23 21 17 15 14 14 13 9 9 9 7 5
34 33 30 30 28 32 37 30 34 28 30 29 20 27 18 22 21 24 28 24 20 12 12 13 17 23 26 25 23 23 25 25 25 21 19 18 18 15 11 10 11 9 6 5
35 35 35 36 30 32 30 34 38 35 32 28 30 33 26 22 19 28 31 29 17 18 12 13 17 25 27 25 23 24 25 26 24 22 22 20 16 14 13 13 11 8 7 6
39 37 40 37 32 28 25 34 35 40 32 44 34 31 18 27 25 26 23 15 21 17 13 13 17 25 26 25 24 23 23 25 24 24 22 20 18 16 15 12 9 8 8 7
45 43 40 38 37 35 35 37 39 40 46 49 42 39 33 18 24 20 19 22 19 22 14 15 19 25 26 24 21 20 22 22 23 22 20 18 16 14 12 9 8 8 8 8
48 49 44 42 44 40 41 37 47 47 40 38 39 41 36 32 25 19 20 26 27 24 23 17 18 25 26 24 21 19 20 21 20 19 18 16 12 10 8 8 8 9 10 10
53 50 39 44 45 47 44 45 36 30 27 27 28 29 28 31 40 35 32 28 33 30 24 20 20 22 26 24 19 17 19 20 19 18 17 14 12 9 10 11 11 12 12 12
57 34 46 36 47 45 47 37 40 41 36 33 23 25 23 21 31 30 37 38 32 33 23 22 23 22 23 26 24 22 21 20 21 20 16 12 8 8 10 11 11 12 13 14
58 54 41 37 47 50 48 45 43 38 38 31 21 20 18 19 20 24 30 32 37 33 29 19 22 23 24 25 26 25 24 23 19 17 15 12 12 12 12 12 14 16 16 14
59 61 52 41 42 45 48 49 45 45 41 36 25 17 17 24 26 27 27 32 29 31 31 23 18 17 23 27 27 26 25 24 22 20 17 15 13 12 9 9 12 13 14 14
61 72 63 47 42 43 51 50 50 41 35 38 35 23 27 28 25 22 22 33 34 31 37 34 27 24 24 27 27 27 26 25 23 20 16 14 14 15 13 11 9 10 8 9
72 71 73 64 56 39 51 49 48 48 41 38 34 22 30 29 30 32 29 30 36 33 30 30 28 25 25 27 26 27 27 26 24 19 17 15 14 15 18 19 15 13 11 10
73 68 73 65 47 29 39 46 50 52 42 37 29 33 27 31 28 27 34 34 37 33 33 31 27 26 26 29 28 28 28 27 22 21 17 13 14 15 17 19 16 11 11 11
74 70 71 78 57 44 46 43 43 47 45 33 31 24 31 30 37 27 33 34 38 40 38 38 35 35 27 32 30 26 26 25 25 21 15 15 15 15 10 11 10 10 10 11
69 68 72 71 62 53 48 51 43 36 39 41 36 31 22 30 32 29 32 39 39 39 37 37 32 35 37 28 26 28 27 27 26 23 17 16 16 12 10 10 9 9 11 12
67 71 73 65 67 61 54 56 54 39 36 37 37 41 30 33 30 36 36 39 42 40 34 34 33 31 30 26 28 29 29 27 25 23 20 16 15 15 14 13 11 12 13 13
64 68 70 67 69 64 55 55 59 55 52 49 45 45 46 43 39 46 41 40 42 39 35 33 31 30 30 31 34 32 31 28 29 27 24 21 20 18 17 16 17 17 18 18
65 60 62 68 53 60 41 24 40 61 52 58 54 57 56 59 56 56 38 42 39 37 34 31 31 33 35 37 40 38 35 32 29 27 29 30 26 26 22 23 25 26 25 24
49 56 62 59 61 37 43 44 43 48 49 65 67 68 69 67 65 53 42 39 42 40 35 31 29 28 31 31 32 30 22 20 22 31 34 33 32 32 34 34 34 29 28 28
41 46 51 60 57 38 30 44 51 52 57 57 70 68 65 62 58 56 51 45 41 39 35 35 34 32 31 30 31 31 25 17 25 35 34 37 37 39 38 35 33 30 30 31
21 34 46 47 63 53 35 41 56 57 63 67 64 65 66 62 63 58 47 41 41 40 38 38 37 35 32 32 30 26 25 24 29 31 32 34 35 36 39 35 33 32 32 32
29 30 46 57 59 72 50 44 54 61 64 71 76 69 63 63 58 51 49 47 46 46 42 42 42 39 36 34 32 30 30 30 31 28 31 31 32 33 33 33 33 32 33 33
47 45 47 60 67 68 77 68 63 68 73 75 76 75 69 59 61 57 54 51 48 48 46 45 43 41 40 38 36 35 33 34 34 33 33 33 32 34 35 38 34 35 37 36
57 64 66 59 68 85 81 83 85 84 78 75 74 70 60 56 61 55 53 53 51 51 49 46 45 44 44 43 38 36 35 36 37 36 35 36 37 36 38 40 41 42 41 41

GFSCGP_500_spd_057.txt.gz
Wind_Speed
30 28 19 20 24 26 25 26 19 20 23 21 16 18 26 18 12 16 10 6 9 8 9 12 16 23 23 22 20 19 18 17 16 16 14 12 10 8 7 6 7 4 3 3
40 27 22 23 24 28 31 28 19 17 15 14 25 26 17 19 13 17 11 6 7 4 5 5 9 18 22 23 21 20 19 19 18 17 14 11 11 10 9 7 6 5 3 1
35 24 32 28 27 29 31 29 20 26 17 23 34 34 30 25 18 18 12 10 5 4 6 8 7 15 21 25 22 21 20 21 20 19 15 13 12 12 11 9 7 6 3 0
36 33 38 32 31 28 31 26 25 31 23 32 23 31 33 24 17 16 9 14 7 3 6 8 8 13 20 25 24 22 22 22 22 19 17 16 16 13 10 10 10 6 4 2
36 36 39 39 29 31 23 33 32 33 33 30 37 33 21 19 14 13 10 9 7 3 6 7 11 13 19 26 24 22 22 23 22 20 19 19 16 13 12 12 8 8 7 4
44 39 42 37 35 35 24 34 38 43 38 38 31 27 25 16 16 14 20 20 12 3 3 12 14 16 20 25 23 22 20 22 22 22 21 18 15 14 13 12 10 9 7 4
53 47 41 40 39 40 34 35 39 51 53 49 34 30 31 19 18 16 19 13 10 5 4 13 16 18 24 23 20 18 17 17 20 23 19 16 14 13 11 10 9 8 6 3
56 53 50 45 47 42 38 34 35 45 47 40 44 45 30 28 26 29 26 24 12 18 11 15 13 19 24 23 19 16 15 16 18 18 17 14 12 12 9 8 7 7 7 6
56 57 44 45 44 43 40 45 36 36 42 48 48 42 42 28 32 24 22 28 18 20 15 12 12 15 23 23 19 15 16 16 18 18 18 14 12 11 10 9 8 8 9 9
61 58 51 42 39 46 47 35 39 39 40 43 39 33 29 34 38 32 32 20 22 24 18 11 14 14 21 23 21 17 17 18 20 20 18 16 15 11 10 10 11 12 12 12
62 63 60 48 46 49 48 47 41 37 39 35 29 23 5 11 18 29 33 31 28 26 25 13 12 16 17 22 23 21 18 18 17 16 16 15 13 14 12 12 13 15 15 15
64 69 63 62 55 39 42 48 44 44 37 36 30 23 28 12 22 21 17 28 37 31 34 24 13 17 19 21 21 24 22 19 19 20 18 16 16 12 10 9 9 7 8 10
65 69 66 60 55 49 45 45 45 44 37 40 36 27 20 7 18 21 17 20 26 42 42 31 18 17 14 18 22 23 22 21 21 19 17 16 13 12 9 10 7 3 4 7
68 72 74 67 60 53 52 45 41 48 45 39 37 26 18 11 15 22 20 19 25 31 34 34 24 23 18 18 19 22 25 23 22 20 18 16 15 12 12 14 12 11 11 10
68 74 77 70 63 59 45 43 40 47 46 40 33 34 22 18 18 23 22 23 21 34 34 36 29 26 22 23 24 22 24 24 23 21 20 19 15 15 15 13 13 15 13 10
66 69 76 76 64 53 46 40 39 41 42 43 32 38 23 24 27 29 27 31 31 28 40 39 38 32 28 23 28 25 24 24 24 22 21 16 16 18 13 12 12 11 10 9
69 69 74 73 62 58 53 41 44 31 37 43 39 41 30 30 33 36 32 33 34 38 45 45 39 35 26 21 31 31 29 26 24 23 20 16 17 13 11 14 13 11 12 12
65 72 73 75 65 63 53 43 45 37 26 33 33 35 30 25 32 33 36 33 33 36 42 43 42 31 25 21 16 16 29 29 29 28 24 19 18 15 13 14 11 11 11 10
60 72 71 68 68 66 49 49 41 41 47 44 47 39 29 38 39 42 43 41 40 38 38 32 31 30 28 25 25 28 30 31 30 27 24 24 20 17 14 14 13 13 13 14
53 71 72 66 66 61 60 56 54 49 49 54 57 47 43 45 41 48 46 45 43 35 34 31 32 31 31 30 27 26 33 29 27 23 24 27 25 20 16 15 17 17 15 15
49 64 64 64 69 61 63 54 63 52 54 62 64 52 52 52 50 49 48 44 41 38 36 34 32 30 31 32 31 28 26 26 25 23 26 27 28 26 24 23 23 23 24 25
23 44 62 70 62 62 64 57 67 63 63 65 67 60 62 64 64 60 54 41 36 37 34 33 31 29 30 33 33 33 33 29 26 24 21 23 25 28 29 28 29 30 30 30
22 39 54 71 57 75 67 55 68 75 73 69 70 69 69 71 70 65 58 48 30 34 41 36 33 31 31 31 32 33 32 28 32 34 32 33 33 34 35 35 35 36 35 32
33 37 50 60 65 68 57 52 61 78 77 78 75 77 83 79 76 71 64 54 41 38 35 36 38 37 35 32 30 27 24 23 28 36 35 35 36 35 36 37 37 37 37 33
27 33 47 56 62 76 67 46 54 60 71 76 76 77 78 78 73 63 61 59 43 36 40 43 43 41 39 36 34 31 27 28 27 27 30 33 34 35 34 33 30 30 30 30
38 31 41 57 63 69 69 59 39 52 60 62 70 73 74 73 71 65 60 53 47 49 52 50 48 46 44 40 36 34 33 33 33 32 33 34 34 34 34 33 32 32 32 33

GFSCGP_500_spd_060.txt.gz
Wind_Speed
34 33 22 18 22 28 29 27 20 21 23 21 16 19 10 14 9 1 11 3 1 7 12 16 17 21 22 23 20 21 21 19 17 16 16 14 11 9 9 10 10 8 8 9
43 32 24 24 23 26 29 26 23 24 27 28 25 24 8 11 13 10 7 6 3 2 7 16 16 21 23 24 24 24 22 20 19 17 16 13 11 9 9 8 7 7 5 6
40 30 32 30 28 27 26 27 25 19 32 37 42 24 24 19 20 9 3 10 4 3 8 13 16 17 21 26 24 23 22 22 20 17 14 12 11 10 9 8 6 4 3 3
43 36 40 38 33 29 29 24 28 30 40 40 27 28 28 24 16 16 9 9 4 5 9 15 18 19 21 25 26 24 22 21 20 18 16 16 15 12 10 9 7 5 3 2
45 41 43 42 31 34 24 31 32 35 41 36 28 29 25 28 26 13 13 10 5 9 12 15 20 22 23 27 25 24 21 19 19 18 17 17 15 12 12 11 8 7 5 3
52 47 47 41 37 38 32 34 39 44 46 48 36 37 35 31 19 14 15 17 6 6 10 13 17 20 22 25 24 22 21 19 18 19 19 17 15 14 13 11 9 8 5 4
62 56 52 47 46 42 41 39 43 51 54 54 41 41 33 26 20 19 16 11 11 7 9 10 14 17 23 26 22 18 17 17 18 19 19 18 15 14 11 10 8 7 6 5
68 61 58 53 51 46 43 45 44 51 54 45 39 50 29 30 26 21 22 15 11 14 13 9 11 17 19 24 21 18 17 15 16 19 20 18 15 13 11 9 8 8 7 6
72 69 58 52 49 48 47 51 38 42 50 45 48 47 36 33 34 31 23 21 18 16 17 13 7 14 21 24 21 18 16 16 18 20 20 19 16 14 14 12 11 10 10 9
73 73 64 57 48 51 49 43 42 47 48 54 53 49 39 32 27 20 17 23 23 14 20 18 13 14 22 23 22 19 17 16 19 21 22 22 21 18 16 14 14 14 13 12
70 76 67 62 62 53 52 52 47 42 46 48 50 41 30 33 30 23 27 25 21 17 18 24 16 15 20 23 23 21 17 18 19 20 22 22 20 18 16 16 14 14 14 14
63 75 71 68 59 57 49 51 48 45 45 43 37 27 27 26 30 39 41 40 26 26 20 22 16 16 19 20 23 22 18 16 20 23 21 21 21 19 17 14 13 10 10 11
57 72 71 64 61 59 55 53 51 47 40 40 37 27 39 39 30 23 38 35 32 29 23 20 18 19 22 21 20 23 22 19 20 23 24 23 21 19 14 11 9 6 4 3
60 70 72 71 67 59 62 58 54 53 50 40 38 40 33 26 24 28 22 22 23 22 23 19 20 21 22 22 22 21 23 24 20 21 23 23 21 16 13 13 13 12 9 6
59 69 73 75 73 66 63 61 57 53 48 45 34 39 34 23 24 27 24 18 28 28 28 28 28 24 23 21 22 23 24 24 22 22 23 22 20 18 16 16 16 16 14 12
50 64 73 74 69 65 61 60 54 50 43 46 36 36 28 27 30 27 27 21 19 18 22 30 30 28 28 25 24 23 26 25 23 24 24 24 21 18 19 16 15 14 14 11
40 60 74 69 68 67 59 56 48 44 35 38 37 38 33 28 27 26 30 26 24 23 21 21 27 30 29 28 22 24 27 28 28 28 27 26 22 19 17 15 13 14 14 13
31 53 70 65 68 64 62 50 49 50 41 34 44 37 39 33 32 32 36 33 27 27 27 29 30 32 33 30 29 25 30 31 30 30 29 25 20 18 16 14 13 15 14 14
43 52 61 62 71 64 62 56 47 54 49 44 40 45 37 39 38 38 43 38 37 35 35 33 33 29 29 29 32 32 36 34 33 32 29 24 20 19 18 15 16 16 13 12
46 53 61 66 73 62 64 65 54 58 54 50 45 53 46 45 40 41 43 42 43 41 37 33 29 23 22 22 22 25 25 34 36 35 33 31 28 24 21 20 19 18 18 18
33 58 61 70 75 68 62 68 56 61 60 58 51 58 54 53 48 46 45 44 45 44 39 35 34 28 24 25 26 24 21 30 38 40 39 38 36 33 29 25 22 22 21 21
43 60 56 70 75 72 69 69 53 66 68 63 59 64 58 58 55 49 49 48 44 40 40 39 37 34 30 27 26 26 26 28 33 33 34 31 32 35 34 31 29 27 27 26
19 44 47 70 71 79 64 72 53 63 72 64 66 68 70 65 60 55 52 49 47 44 40 40 38 36 36 36 34 32 30 31 35 34 32 30 31 31 32 34 36 33 32 31
20 19 35 65 76 79 78 66 66 52 75 72 68 76 74 69 65 58 56 52 49 46 43 37 35 38 36 34 32 32 34 34 36 39 37 37 35 38 40 41 42 41 40 39
14 13 30 62 73 77 77 50 63 39 71 78 76 73 76 73 68 63 60 59 56 50 44 40 38 40 38 37 35 33 32 33 33 34 33 35 37 42 45 45 46 45 44 42
10 9 26 55 65 69 73 78 43 50 55 68 81 81 79 76 73 67 65 63 60 57 49 40 39 37 36 38 39 37 34 31 31 33 35 39 47 48 45 41 37 35 36 35

GFSCGP_500_spd_063.txt.gz
Wind_Speed
38 36 26 17 23 29 31 29 29 32 33 30 28 21 21 17 12 9 7 5 7 8 13 18 19 21 21 23 22 21 22 22 18 18 17 16 13 12 13 12 11 10 8 9
44 37 27 29 28 29 31 30 27 33 30 26 27 30 24 22 20 16 8 9 7 7 12 17 18 20 23 24 24 22 24 22 22 19 18 14 12 12 14 12 8 9 8 7
42 34 36 36 32 31 31 26 28 29 32 34 35 35 32 24 27 16 12 17 5 4 11 17 19 22 28 26 25 24 23 23 21 19 18 13 12 11 13 12 9 6 6 5
50 40 44 42 38 32 30 24 31 31 37 38 33 32 30 26 21 23 13 15 9 3 10 14 18 23 28 29 29 28 27 24 22 20 19 18 15 11 10 9 8 6 5 4
53 44 48 47 37 36 24 31 31 36 41 40 39 38 33 33 26 30 15 15 10 6 10 13 18 22 31 32 30 28 28 26 23 23 20 18 15 12 11 8 7 5 4 4
58 54 50 42 40 41 34 36 39 44 47 54 44 43 40 31 26 18 21 22 16 10 11 13 17 20 27 32 30 29 28 25 25 24 20 18 15 14 11 8 7 6 4 3
63 60 57 50 48 47 44 43 48 54 57 57 44 51 29 32 25 26 23 19 15 13 8 13 17 18 23 26 28 26 26 25 24 24 23 20 17 15 12 8 7 7 6 5
68 63 63 58 55 49 50 49 51 56 56 51 41 55 27 27 28 27 28 27 22 16 13 12 18 21 24 29 31 27 24 23 24 24 23 21 19 16 13 11 10 9 7 6
72 69 67 63 60 53 54 55 47 49 55 50 50 52 34 36 35 38 33 34 31 25 20 16 14 19 25 30 32 28 26 24 24 24 23 20 20 17 15 13 13 12 11 9
74 73 68 67 63 58 54 51 48 55 56 58 55 54 38 38 36 37 37 33 26 25 25 21 19 18 24 30 32 30 28 25 25 25 23 21 22 20 18 15 14 13 11 11
71 77 68 67 64 59 55 57 55 51 54 55 50 51 36 37 32 34 28 30 28 22 25 27 21 16 23 31 32 28 26 25 24 24 23 23 23 21 17 17 15 12 10 11
63 76 72 71 63 62 61 59 57 58 57 56 50 41 36 38 38 32 36 26 25 23 26 31 28 17 24 30 32 27 24 24 24 24 25 25 25 20 19 17 14 11 11 12
61 73 71 63 61 66 66 64 63 59 54 53 50 33 39 34 44 38 39 33 32 27 30 31 33 23 22 28 32 29 23 22 24 26 26 26 24 22 21 17 13 9 8 8
61 68 67 70 64 70 70 66 62 63 59 52 51 36 28 37 41 42 42 39 37 37 34 26 32 31 25 28 33 30 27 22 22 25 26 27 26 25 22 18 13 13 12 9
57 63 67 68 63 67 68 65 62 64 60 58 44 35 34 39 40 40 39 41 45 42 43 34 31 28 29 29 33 32 30 27 23 21 24 27 29 27 23 19 17 18 16 14
58 62 62 64 61 66 62 64 64 64 63 59 44 36 40 46 47 39 28 33 27 30 38 34 31 21 29 31 33 32 29 28 26 24 26 30 30 26 23 21 20 17 18 17
58 61 60 60 55 65 63 64 68 64 62 59 46 39 45 43 42 31 36 33 24 24 27 24 24 26 29 29 33 33 31 30 27 25 30 30 29 27 25 24 19 18 18 18
59 61 61 50 53 63 70 63 65 64 63 60 52 50 44 40 38 38 41 36 27 22 28 27 30 31 25 29 29 30 30 27 30 29 30 30 29 28 26 21 17 18 18 16
46 61 61 42 57 62 68 59 63 62 64 59 55 54 50 48 42 42 44 39 32 28 27 28 29 32 29 27 27 28 25 28 33 33 33 32 29 26 23 19 18 19 18 16
36 54 52 52 54 58 69 51 60 60 62 59 55 56 52 52 48 50 49 40 34 32 31 27 24 20 22 24 24 27 26 27 31 37 36 34 31 29 26 24 23 25 22 19
37 42 49 52 59 55 61 52 59 60 61 60 59 60 55 57 55 53 51 40 41 40 38 28 23 22 22 23 23 24 25 26 23 35 41 38 36 33 31 31 28 26 25 23
28 33 44 51 57 60 54 48 57 61 60 58 61 63 59 61 61 55 51 46 46 46 42 36 33 28 25 26 29 28 27 29 28 25 37 42 41 37 34 31 30 28 27 25
15 26 25 47 62 65 73 65 62 65 62 62 60 65 64 64 62 60 57 52 50 46 42 38 35 30 25 27 27 27 26 27 27 28 31 41 44 41 39 34 32 32 32 29
18 17 24 43 51 65 69 41 61 60 59 61 63 67 69 66 66 62 61 57 51 48 42 39 35 30 27 25 28 29 30 31 31 35 37 37 37 41 42 43 42 42 40 37
4 5 21 38 57 63 65 76 46 65 54 65 69 64 72 69 69 64 63 60 54 49 46 43 37 34 32 32 32 32 32 33 37 38 40 42 43 44 43 43 47 47 47 46
9 10 14 31 49 65 64 77 63 50 48 73 67 66 67 71 69 69 66 65 57 52 49 47 43 42 40 41 41 37 33 33 33 36 42 45 46 45 44 45 49 51 51 49

GFSCGP_500_spd_066.txt.gz
Wind_Speed
36 36 26 21 26 30 33 31 30 28 26 32 27 22 23 22 17 13 14 15 15 12 18 22 24 26 26 25 24 24 23 23 20 19 18 16 15 15 15 14 12 9 11 11
41 34 29 31 31 31 34 33 32 31 31 31 31 24 31 29 22 23 17 16 14 14 14 20 20 23 27 27 26 25 25 24 23 21 21 17 13 15 16 14 11 10 10 11
43 31 36 37 36 34 34 33 32 32 34 34 39 37 36 35 29 20 17 17 10 11 12 19 22 22 27 28 27 26 27 26 24 22 20 17 15 14 14 13 11 10 9 11
47 43 42 41 40 37 34 29 34 36 42 39 35 32 33 32 31 26 21 18 17 10 14 15 20 24 26 30 30 30 29 29 25 22 20 19 19 18 15 13 11 9 8 9
47 45 47 43 38 38 29 35 35 38 44 43 42 38 34 40 36 25 20 19 19 14 14 16 18 23 29 32 33 31 32 30 27 24 24 21 16 16 15 13 10 8 7 6
54 48 53 49 42 43 38 39 40 44 47 54 45 41 38 37 30 28 24 24 23 15 14 15 20 25 28 32 36 34 32 31 28 27 25 20 18 18 17 13 10 9 8 6
59 57 54 53 52 48 51 45 46 50 55 56 46 47 34 38 30 29 25 23 20 16 13 16 17 18 23 27 32 32 32 30 28 27 24 21 19 19 16 13 11 11 10 7
60 62 59 59 58 53 53 53 54 56 56 53 46 50 36 39 35 31 29 31 30 24 19 17 18 21 22 26 30 31 31 29 28 27 26 23 21 20 16 13 13 13 11 9
60 63 60 62 61 57 57 59 54 53 57 53 53 43 38 45 34 33 31 34 32 28 23 17 21 23 24 28 31 33 31 30 29 29 29 24 23 20 17 16 14 13 13 12
53 62 63 61 62 61 59 58 55 60 58 58 58 41 36 42 38 35 39 35 33 29 24 22 21 23 24 28 32 35 34 33 31 32 31 27 24 23 20 16 15 15 13 11
51 57 62 63 62 61 60 64 60 60 60 58 56 47 35 37 40 37 39 39 36 31 26 22 21 23 26 29 31 34 34 34 35 34 33 30 27 24 22 18 17 16 14 12
55 56 55 62 61 60 63 63 66 65 64 62 58 47 38 35 40 41 41 39 38 33 30 27 23 23 28 28 32 34 33 31 33 33 33 31 30 27 23 20 18 15 13 10
54 62 56 55 59 63 61 65 67 67 66 65 61 52 40 39 43 45 43 41 36 37 35 32 29 26 26 28 32 35 31 29 31 32 34 33 30 27 24 23 19 15 11 11
57 61 62 55 58 60 65 67 67 69 66 64 64 49 42 42 45 45 42 45 43 44 37 37 35 31 27 28 32 35 33 32 31 31 34 33 32 28 27 26 20 16 13 11
59 60 65 56 56 62 62 65 69 71 67 68 60 52 43 40 44 48 49 45 46 44 38 38 35 34 30 30 33 37 37 34 30 30 33 33 34 32 32 27 22 19 17 15
42 58 62 59 56 57 62 66 69 73 71 69 61 47 44 39 39 48 54 51 50 49 41 36 36 36 35 31 34 38 39 35 29 28 31 34 34 35 33 28 25 23 21 19
32 37 45 51 52 57 61 63 67 74 72 68 62 47 45 41 43 45 54 55 53 48 44 44 37 30 28 27 32 37 39 38 33 29 32 33 33 34 32 30 26 24 23 20
32 31 35 42 47 53 56 60 67 72 70 66 62 50 45 41 45 47 53 52 49 50 37 35 40 41 36 23 32 33 37 40 38 35 33 33 33 34 33 29 25 23 22 21
31 31 33 38 46 49 54 59 66 73 67 67 62 50 48 43 46 49 46 44 40 31 36 35 46 42 26 23 30 32 37 38 39 38 34 32 33 33 33 29 28 26 24 23
28 35 37 42 43 48 52 54 64 69 65 63 60 51 50 49 53 52 47 44 39 34 34 32 31 31 30 28 28 34 36 36 37 37 36 33 34 34 34 34 32 31 28 26
27 29 40 45 44 48 37 49 61 64 65 61 59 52 52 55 57 56 45 47 50 38 33 35 32 34 30 33 32 31 34 31 31 34 36 37 37 37 38 37 34 29 25 24
27 30 35 44 44 48 42 47 56 62 54 57 59 56 55 58 58 56 47 51 51 43 37 34 37 35 34 33 31 26 27 27 28 31 33 36 39 39 38 36 34 30 26 24
12 17 14 44 47 49 54 45 56 64 61 45 56 57 56 57 58 58 50 53 54 47 44 42 37 35 36 34 32 31 30 27 25 30 36 18 37 42 40 38 36 31 27 27
6 5 11 49 54 45 48 57 57 58 67 50 55 57 55 61 63 62 58 53 58 57 52 46 43 37 34 34 34 33 32 30 27 27 25 29 23 40 44 42 36 32 30 30
19 10 26 45 48 53 36 48 52 59 58 54 57 55 57 61 64 65 62 58 57 59 57 52 46 45 40 35 35 39 39 40 38 35 33 32 30 30 44 45 40 38 37 37
21 9 12 31 29 31 37 47 58 72 55 47 56 59 58 58 64 67 65 64 62 61 58 54 53 49 44 36 35 37 39 38 39 37 35 35 33 37 38 43 49 47 45 45

GFSCGP_500_spd_069.txt.gz
Wind_Speed
37 34 27 24 27 28 30 31 29 28 27 26 21 29 29 32 23 19 19 20 20 21 24 26 25 27 28 28 27 27 27 26 23 18 18 17 17 16 16 13 11 11 14 16
41 34 30 35 32 32 33 35 33 30 30 30 30 31 33 29 27 25 23 22 21 17 16 22 24 28 28 28 29 27 28 26 25 23 22 18 17 17 17 14 12 11 13 15
39 33 37 38 37 34 33 34 33 32 35 33 38 39 35 31 29 29 22 21 18 19 18 20 24 27 30 30 29 29 28 28 26 24 21 18 16 17 17 15 13 11 11 12
45 41 43 41 41 40 37 31 35 35 38 38 40 46 43 33 29 32 22 18 19 18 18 17 25 29 32 32 32 32 32 30 28 24 22 21 22 23 22 17 14 12 11 11
48 45 44 45 41 42 35 35 35 38 43 42 44 46 44 40 37 33 26 21 20 18 20 20 23 28 34 36 34 34 35 33 29 24 24 23 21 19 18 16 13 12 11 10
53 51 51 47 48 45 42 42 40 44 46 56 47 48 44 41 34 30 32 29 24 25 19 21 25 32 34 38 39 37 36 35 31 28 27 24 21 20 19 17 14 12 11 11
55 55 55 53 50 49 52 50 46 47 54 55 46 51 40 41 37 33 28 27 29 28 22 21 22 24 29 32 36 37 36 34 31 30 29 24 22 23 21 18 14 14 12 11
52 56 57 59 54 54 53 54 52 53 54 51 50 55 40 39 38 41 34 33 33 30 23 22 21 24 27 29 35 34 34 33 33 31 30 25 22 22 20 16 15 16 15 13
43 53 57 60 57 55 58 58 51 55 55 51 56 52 36 46 44 44 38 37 32 27 24 20 21 22 26 30 32 34 34 34 33 32 31 27 24 21 19 18 17 16 16 15
40 46 54 59 59 57 57 58 57 58 60 58 60 48 41 46 42 43 42 42 35 33 31 29 25 23 25 28 34 38 38 37 35 34 33 30 26 23 21 19 18 17 18 16
41 42 47 53 60 59 60 60 63 60 61 61 60 49 43 40 41 48 41 38 36 37 32 29 24 23 26 30 35 37 40 40 39 38 36 33 28 25 22 20 19 19 19 17
49 47 44 45 54 61 60 62 64 66 64 64 63 53 43 35 41 49 43 41 41 37 33 28 25 25 29 30 33 34 38 39 40 38 36 34 32 28 25 24 21 20 20 17
53 53 50 44 47 53 63 62 66 66 65 66 65 57 46 41 44 46 43 44 47 44 37 33 31 27 24 29 32 35 38 38 38 38 37 35 34 30 28 27 25 23 22 19
51 55 55 51 51 54 62 67 65 70 70 66 66 59 49 42 44 48 48 46 49 43 42 39 35 29 26 22 30 34 37 39 38 36 35 34 34 33 32 30 27 26 23 20
47 51 55 53 52 54 56 65 69 71 71 71 65 59 54 48 45 54 55 54 54 52 48 41 39 35 30 27 27 34 39 40 37 34 33 32 35 37 36 32 29 28 23 22
43 46 49 52 53 55 57 59 67 70 72 75 69 63 53 50 47 52 59 58 56 57 53 49 42 39 35 32 26 32 38 38 35 33 32 35 37 38 37 35 32 30 26 24
24 31 40 47 49 55 54 55 62 71 72 73 70 62 55 52 46 49 56 59 57 53 50 46 44 37 37 32 30 29 36 40 36 33 33 33 36 37 38 37 35 31 29 28
27 29 33 39 42 50 53 54 55 68 72 72 69 63 56 52 49 46 52 60 62 58 55 52 46 41 39 33 31 29 34 39 38 37 33 32 33 35 39 39 36 34 32 30
27 33 29 31 37 45 50 54 55 64 70 71 67 64 58 52 48 48 50 48 58 58 53 49 47 39 37 32 33 30 29 35 37 38 32 31 33 35 38 38 37 35 33 32
26 36 35 32 34 43 49 51 54 55 66 68 65 62 59 56 50 48 48 44 47 56 56 51 51 40 39 38 34 30 30 33 36 37 36 34 34 35 35 37 38 37 34 32
19 28 32 32 36 42 47 46 51 55 63 66 64 61 60 53 50 48 47 44 46 49 55 52 47 46 47 44 38 32 33 34 34 37 40 39 38 37 39 41 42 37 35 32
17 20 25 34 35 40 45 44 46 56 57 58 60 59 57 54 51 47 47 44 44 45 42 36 39 38 40 51 45 37 34 34 35 37 37 40 42 41 41 42 41 39 35 31
2 16 20 30 33 37 40 39 42 50 55 54 56 58 57 56 49 48 46 44 46 45 39 43 38 43 44 45 43 39 36 31 31 31 34 37 40 41 40 41 40 39 36 32
4 9 9 16 27 37 40 41 40 37 47 52 52 54 58 54 50 50 50 51 51 47 49 49 43 43 43 46 43 45 38 32 33 32 34 35 37 38 38 40 40 40 37 32
6 8 13 24 27 38 42 47 44 50 47 49 51 52 60 54 51 52 56 55 52 51 55 53 48 45 47 45 46 43 38 35 31 31 30 28 29 33 34 37 40 42 39 35
4 6 11 12 21 38 43 38 43 33 53 50 48 52 57 53 53 52 57 59 54 57 56 52 50 50 48 46 45 44 42 40 38 39 38 36 37 41 30 31 41 42 45 41

GFSCGP_500_spd_072.txt.gz
Wind_Speed
35 36 28 27 29 32 31 34 32 31 33 28 24 26 27 25 25 23 21 20 22 25 26 25 24 26 26 27 27 26 26 25 22 19 18 17 19 17 15 14 14 16 15 15
37 33 33 34 36 34 32 35 35 33 36 33 29 31 30 30 33 29 24 21 21 22 21 24 26 26 27 27 28 28 27 26 25 23 22 20 20 18 16 14 14 16 15 15
40 36 38 39 38 38 35 35 36 35 33 35 33 34 35 35 37 32 27 23 22 22 22 25 25 28 29 28 28 28 28 28 27 24 21 20 19 18 17 15 14 13 13 12
46 43 41 42 41 41 40 35 39 38 41 36 36 34 36 36 36 35 30 22 20 20 21 20 27 29 31 30 30 31 31 31 29 25 22 21 22 22 19 15 14 14 12 11
50 47 46 43 43 43 39 41 40 39 44 42 39 43 32 40 40 37 29 24 21 20 21 22 23 29 34 36 34 33 33 31 29 27 24 24 23 21 18 16 13 13 12 11
55 53 53 48 48 48 43 47 42 42 45 52 49 44 42 45 43 35 32 28 23 22 20 20 22 32 37 40 39 37 35 33 31 28 25 23 21 21 20 18 15 14 13 12
54 58 56 56 52 50 51 48 48 47 49 52 48 51 47 43 46 40 35 32 29 29 25 23 24 26 34 37 39 38 36 34 32 29 28 25 21 21 22 19 15 14 13 10
43 53 60 60 57 53 54 52 52 50 47 48 47 55 52 49 48 46 43 39 38 36 29 28 24 24 32 33 37 37 36 37 33 30 30 27 22 24 23 19 17 15 13 11
37 39 53 60 59 58 56 58 51 41 31 48 39 49 51 48 48 47 46 42 40 35 30 28 24 24 28 33 35 37 37 37 36 33 33 29 24 24 22 21 18 16 15 14
36 35 44 56 60 59 58 52 56 56 48 51 42 41 50 47 45 43 43 44 36 34 34 30 26 25 26 30 34 39 40 40 37 38 36 33 29 27 25 23 19 17 17 16
42 37 42 43 51 56 59 62 58 55 57 52 40 35 48 43 42 43 42 44 39 39 35 31 28 24 25 29 34 38 41 41 40 39 39 35 32 30 28 23 22 19 18 17
49 47 45 40 47 54 60 62 61 53 60 60 38 34 49 49 36 37 43 46 47 45 40 37 33 30 27 27 29 34 40 42 41 40 40 37 35 33 28 26 24 21 19 19
54 52 50 45 44 44 49 57 63 50 50 53 55 48 46 52 40 41 44 50 51 50 45 38 36 30 27 24 27 29 37 41 41 42 40 38 36 34 30 29 28 24 21 21
56 56 57 50 40 47 53 55 62 65 64 61 58 38 56 51 43 46 52 54 52 50 44 41 38 33 29 24 23 29 33 39 42 42 42 40 37 34 33 32 30 26 23 24
50 55 57 58 56 53 57 60 58 70 72 68 51 47 56 56 51 42 49 54 54 51 48 46 40 38 32 27 22 28 32 36 41 41 41 39 38 36 36 35 31 29 25 24
39 45 53 55 56 59 58 61 58 63 71 72 69 64 61 64 51 45 52 56 58 56 52 48 47 40 36 29 24 23 30 33 38 40 39 39 38 38 36 35 34 32 28 27
21 31 44 49 48 58 61 55 55 59 62 70 73 66 61 61 52 50 49 56 56 53 52 53 49 44 37 31 30 26 26 32 36 40 40 38 37 37 36 37 38 34 31 31
20 22 25 36 42 50 51 60 60 60 60 62 70 69 69 61 56 53 52 55 59 57 55 56 51 46 40 35 34 31 30 31 35 40 41 38 36 35 38 40 39 37 36 34
23 26 27 28 28 39 42 60 59 59 62 66 67 72 68 64 61 55 52 53 61 62 60 57 56 50 45 40 37 34 30 26 33 39 40 36 34 35 37 38 38 38 37 36
19 26 31 32 30 28 44 55 59 57 58 61 60 69 68 65 63 61 54 52 60 63 62 62 57 57 45 42 42 41 32 28 24 32 38 37 35 33 34 36 36 38 38 38
13 23 30 34 36 37 43 54 57 54 58 57 57 61 67 66 65 62 54 53 54 61 64 62 60 58 51 48 45 42 37 27 25 29 38 39 36 32 33 36 37 37 37 38
8 16 23 29 39 40 36 40 51 54 51 50 53 52 62 67 65 64 57 53 52 51 54 61 64 59 50 49 45 42 41 40 35 32 34 39 40 38 33 31 33 34 35 37
7 9 16 26 31 35 39 44 47 48 52 49 45 48 57 66 65 64 57 53 49 50 50 50 59 60 55 52 47 48 46 48 42 36 33 36 41 41 39 36 33 34 36 37
7 7 9 20 27 34 41 46 47 49 47 49 48 42 56 61 64 63 58 52 48 48 50 46 49 57 58 53 54 49 50 50 48 42 38 36 38 39 40 39 37 34 36 37
1 5 11 10 20 35 39 45 47 47 42 36 44 44 49 61 62 60 56 52 49 48 48 43 45 46 50 55 55 53 56 56 49 43 37 34 34 38 37 37 38 36 35 36
5 1 8 12 17 31 35 38 42 42 39 41 39 45 43 58 58 58 53 51 50 50 48 47 46 48 50 49 49 52 62 57 53 43 34 36 35 37 39 39 39 39 40 40

GFSCGP_500_spd_075.txt.gz
Wind_Speed
29 32 29 24 30 27 26 28 31 27 27 28 28 26 31 15 22 20 14 17 21 23 24 23 22 21 23 23 24 24 23 20 19 16 15 15 16 16 14 13 12 11 12 12
35 30 28 33 33 34 34 31 33 32 29 29 29 28 34 21 25 25 16 19 21 22 21 22 22 22 23 23 24 24 24 23 21 19 17 15 15 15 14 14 14 13 12 12
39 35 34 37 38 37 38 33 33 36 28 33 27 29 32 38 33 27 26 23 20 18 19 21 22 23 25 24 24 25 26 26 24 21 19 17 16 16 15 14 13 12 11 10
46 43 42 40 41 40 38 35 37 39 34 33 37 31 33 41 24 23 32 27 23 20 20 20 22 24 26 27 27 28 28 27 26 23 21 19 19 18 17 15 13 12 11 9
49 49 49 45 41 41 40 39 39 39 44 35 28 38 27 34 36 31 34 28 22 19 17 18 21 25 28 31 30 31 30 30 28 25 22 22 21 19 16 14 14 13 11 10
54 53 54 50 48 46 44 44 45 42 43 48 44 32 34 31 35 32 34 30 26 23 20 21 24 24 29 32 33 33 32 32 30 27 24 22 22 20 18 15 13 13 11 10
47 56 58 57 55 50 47 48 46 46 46 49 43 43 32 30 36 29 33 31 30 26 25 24 23 22 24 30 33 33 33 33 31 28 26 24 22 21 21 18 14 12 12 10
22 34 54 54 60 53 53 52 51 37 39 44 41 43 46 36 23 32 27 36 34 32 29 26 22 19 22 27 31 34 33 35 32 29 28 26 23 21 23 20 16 14 12 11
23 27 27 36 55 54 49 55 47 33 27 33 29 41 34 45 31 36 42 36 45 37 34 31 27 21 21 24 30 32 35 37 34 33 31 29 26 22 23 22 19 16 14 14
37 35 36 33 44 50 43 32 47 43 39 34 31 29 33 41 44 42 42 34 37 35 37 36 32 26 22 23 27 32 36 38 38 37 34 31 28 24 25 24 21 18 16 17
41 43 37 31 41 45 54 57 46 37 41 37 29 29 25 30 41 41 46 45 44 42 36 37 34 28 28 27 28 31 34 39 39 37 36 33 31 28 27 25 23 20 18 18
44 46 46 39 29 33 37 38 50 39 39 42 33 29 14 26 27 31 42 32 38 38 39 38 37 33 31 25 26 29 33 36 40 39 39 37 35 31 29 25 24 22 19 19
47 48 46 49 45 36 45 52 50 50 37 39 40 34 25 37 34 23 24 33 33 40 43 37 42 36 32 26 22 25 30 33 39 41 40 40 38 34 31 27 26 25 23 21
51 50 51 41 32 41 37 45 47 41 49 42 39 37 26 19 24 37 41 48 57 57 54 48 45 37 34 30 24 24 27 32 36 40 41 40 38 35 32 31 29 28 25 23
46 54 53 56 51 49 47 47 52 54 55 50 43 36 38 28 29 42 45 44 51 47 47 49 43 41 38 34 27 23 25 28 32 37 40 39 39 38 35 36 32 31 29 25
35 42 53 61 59 60 56 57 55 62 68 66 59 54 50 44 42 47 47 46 46 52 51 49 49 46 41 37 31 25 21 24 27 33 36 39 40 39 36 37 35 33 31 28
24 32 36 48 52 54 65 62 57 57 57 64 66 59 64 51 48 52 57 43 47 53 53 51 50 51 43 40 34 26 23 24 25 29 35 40 41 42 39 38 38 35 33 32
22 24 28 28 25 37 52 51 60 52 57 61 69 69 57 68 64 61 54 46 48 55 55 54 51 49 47 43 38 32 27 24 22 27 31 36 39 39 39 37 35 36 36 34
15 24 26 28 29 24 28 48 58 67 56 60 58 64 74 66 73 69 59 51 49 55 57 57 56 54 51 48 46 35 31 27 24 23 27 32 37 38 37 35 35 36 38 37
9 15 30 28 26 29 32 40 48 60 61 65 67 72 81 84 74 71 62 57 54 52 56 58 61 60 58 49 40 40 35 30 25 20 23 30 35 38 36 34 35 36 37 37
15 17 19 25 36 28 36 40 45 53 59 62 67 63 63 64 70 70 67 58 56 58 56 57 58 57 47 50 50 43 38 33 29 25 24 29 33 37 36 36 35 34 34 36
8 12 17 22 31 39 42 41 46 55 55 60 62 61 59 62 63 73 71 61 59 57 57 60 61 60 55 54 49 44 43 40 37 31 28 26 30 34 38 36 33 31 32 32
11 14 15 19 26 33 39 47 47 44 52 56 62 61 60 59 62 71 73 66 60 59 57 59 61 62 59 55 54 50 49 46 41 37 33 28 26 32 37 37 33 28 27 30
13 15 17 16 17 27 35 40 44 48 50 56 47 61 57 57 62 67 70 67 61 60 58 57 59 60 63 61 58 55 53 44 45 43 40 33 28 29 32 37 36 32 27 27
20 16 20 19 17 19 25 32 42 47 47 50 53 53 52 53 61 64 65 66 62 60 57 58 56 57 60 63 60 56 54 51 52 50 47 42 33 29 28 32 36 37 35 31
19 18 11 15 18 20 21 24 35 45 45 42 40 50 47 48 56 62 61 61 60 58 57 58 58 53 54 57 58 60 60 53 53 52 50 47 42 38 34 32 35 39 39 36

GFSCGP_500_spd_078.txt.gz
Wind_Speed
23 25 24 24 24 26 26 27 24 27 21 21 25 28 27 27 30 26 14 13 10 14 17 17 14 15 16 16 18 19 18 15 15 13 11 11 10 9 9 9 10 11 10 11
29 24 23 26 30 29 30 29 31 20 20 22 23 31 32 27 23 18 12 10 12 13 14 15 14 17 18 18 18 20 20 17 16 16 15 13 11 10 10 11 12 10 10 8
33 29 31 29 30 34 33 34 28 32 23 22 25 29 32 31 33 23 19 16 15 12 11 12 14 17 19 19 19 21 22 21 18 16 17 17 15 12 10 10 10 9 8 8
38 37 38 36 33 34 36 34 33 35 33 27 26 30 35 31 20 16 27 23 20 14 9 10 12 18 18 22 22 23 23 24 21 18 17 18 17 15 13 11 9 8 7 6
39 42 44 42 40 39 37 36 36 37 38 37 30 30 25 33 30 27 34 26 23 19 13 11 14 17 21 23 25 25 25 25 23 20 18 18 17 15 13 12 10 7 6 5
40 45 47 48 45 45 43 41 41 40 39 46 41 29 27 41 26 28 20 24 25 24 18 15 17 17 20 23 25 25 26 26 25 22 20 19 19 18 15 13 12 10 8 5
35 39 45 50 52 49 48 45 42 43 42 47 42 44 37 19 28 28 24 27 26 25 22 20 18 19 19 21 23 26 26 27 27 25 22 20 20 20 18 16 12 11 9 6
24 19 34 42 50 48 52 48 43 43 39 42 41 44 42 27 30 37 31 35 26 29 26 23 19 19 20 18 22 26 27 29 29 27 24 23 21 19 20 18 14 12 9 8
28 26 14 21 29 48 43 44 44 31 27 32 27 34 34 33 25 35 32 34 38 41 30 25 24 22 17 16 18 25 28 31 31 30 28 25 23 19 19 21 18 14 11 10
30 32 29 20 16 27 39 35 35 36 34 35 25 26 31 28 42 32 48 40 47 42 34 34 28 27 22 17 20 22 28 32 33 33 31 28 25 22 20 22 20 18 15 13
38 37 30 41 24 28 31 42 35 30 37 34 27 22 18 31 26 44 45 49 45 39 43 38 31 29 28 24 22 21 26 31 33 34 32 29 27 25 22 21 21 19 18 15
39 40 42 40 46 19 41 37 36 35 42 39 29 25 17 26 29 30 33 38 43 43 27 36 23 28 26 28 22 19 21 27 33 35 36 34 33 30 25 23 21 21 19 17
41 37 43 43 46 48 36 44 47 36 36 37 34 38 20 24 20 27 29 33 34 34 22 18 21 34 26 26 22 18 20 24 30 34 36 37 35 32 27 25 24 23 23 20
46 44 44 49 33 39 37 36 51 37 34 39 41 37 29 28 31 29 35 34 41 38 38 36 35 39 32 25 24 21 18 20 26 31 35 37 36 34 31 28 28 24 24 23
35 40 51 51 51 45 49 43 40 43 46 49 40 42 43 40 44 46 36 31 35 48 45 45 48 40 32 23 27 27 22 21 22 26 32 35 38 36 36 33 31 28 26 26
28 32 43 59 54 58 57 57 53 56 60 57 56 58 44 44 49 43 54 55 50 53 54 53 52 40 38 40 33 32 24 21 21 24 27 33 39 39 36 35 33 33 29 28
23 24 28 40 52 60 62 58 59 56 61 53 69 53 43 52 46 56 60 54 58 59 57 51 45 42 46 26 44 36 28 24 19 21 25 29 34 38 37 36 35 33 31 29
20 18 20 28 26 51 61 59 48 60 54 61 64 68 61 44 43 43 54 64 48 57 50 48 51 48 50 52 37 31 31 25 21 18 22 25 29 32 37 37 35 33 32 31
14 12 23 21 24 23 40 43 43 56 62 66 73 78 72 46 56 49 55 55 52 46 50 51 52 52 50 52 48 41 33 28 24 19 17 22 27 30 33 35 35 34 33 33
17 12 14 25 25 29 26 34 50 47 54 71 73 81 77 72 48 54 55 61 59 54 50 51 54 54 52 51 50 46 39 35 28 22 19 21 26 29 31 33 34 35 34 33
13 16 14 15 30 31 34 22 35 45 58 65 69 75 83 82 81 64 65 58 50 54 53 53 55 55 52 53 50 48 46 38 33 28 25 24 24 25 28 32 33 33 33 33
11 12 16 16 20 25 38 37 35 45 45 51 66 71 75 84 83 78 72 68 54 54 50 52 55 55 54 53 52 53 52 47 42 33 29 25 24 25 27 30 32 32 32 31
11 13 14 19 20 25 35 41 54 41 52 50 52 65 74 75 85 93 77 77 69 52 46 50 54 57 58 57 56 60 62 50 45 36 33 29 26 25 27 28 32 33 31 29
18 18 20 22 25 32 33 38 37 46 52 53 57 54 61 69 72 81 92 86 78 74 67 63 58 56 58 60 60 58 54 52 48 40 36 35 31 28 26 28 32 33 32 29
19 21 23 27 31 26 33 33 41 45 48 60 60 56 60 61 64 70 75 82 87 86 79 67 62 59 58 59 59 54 48 48 45 46 41 38 39 32 29 27 29 33 33 33
19 18 19 19 21 20 25 26 28 32 34 46 60 54 59 62 61 64 63 65 71 72 73 72 68 64 59 60 61 58 54 48 45 45 45 45 43 37 34 31 28 29 32 34

GFSCGP_500_spd_081.txt.gz
Wind_Speed
22 22 21 23 22 24 23 27 27 23 6 17 19 24 21 24 19 15 20 13 15 11 11 13 11 8 10 13 12 13 13 11 10 10 9 8 8 8 11 11 11 12 11 14
27 21 20 22 25 25 26 25 27 27 15 11 16 23 19 17 20 24 27 28 19 12 10 13 10 9 11 15 15 14 15 13 11 11 12 10 9 10 11 10 10 10 12 12
30 27 28 26 26 28 28 26 25 28 26 26 24 27 26 24 22 25 27 18 19 13 9 11 11 11 13 15 17 17 18 16 14 13 13 12 10 11 11 10 9 8 9 11
33 32 33 31 28 28 29 29 27 28 35 34 29 28 35 30 22 19 30 24 22 12 15 8 7 12 14 17 18 20 19 19 16 15 16 14 13 13 12 11 9 8 5 7
35 37 36 34 34 33 29 32 32 34 34 36 37 37 31 35 31 27 24 14 28 19 13 11 10 12 16 18 19 21 22 21 18 16 18 17 14 13 11 10 8 7 5 4
34 39 41 40 39 38 37 35 35 38 40 40 36 41 37 32 27 24 21 17 17 17 15 15 12 13 14 17 20 20 21 22 22 19 17 19 16 14 12 10 9 7 5 2
35 35 36 40 46 43 42 41 39 39 41 37 34 40 39 35 23 15 22 21 12 12 19 16 13 11 12 15 19 22 22 22 23 22 19 20 21 18 15 12 8 8 5 3
28 32 27 21 32 42 46 44 43 42 39 35 31 40 36 35 33 22 23 22 23 20 17 22 18 16 15 16 18 23 24 25 24 24 23 21 21 22 19 16 12 9 8 6
28 29 34 36 40 38 40 44 41 41 38 36 33 29 27 24 30 32 32 28 27 27 22 30 25 18 15 16 16 21 26 27 27 26 25 23 21 21 22 21 17 14 11 9
27 26 24 32 39 41 43 39 33 35 39 42 35 28 15 9 17 39 38 26 26 28 33 34 28 27 19 18 17 17 22 27 29 30 27 26 25 23 23 23 21 18 14 12
28 29 26 28 31 31 29 28 33 30 32 37 35 28 13 19 9 24 26 28 42 41 39 29 43 31 31 24 17 13 17 24 28 29 29 28 25 24 23 22 22 21 17 14
30 32 32 32 30 29 37 38 43 39 37 34 33 28 24 18 22 29 26 24 26 37 37 38 32 41 35 32 21 17 17 18 27 31 31 31 30 27 23 21 22 22 20 17
32 34 35 33 35 42 42 43 42 43 45 42 39 41 31 22 13 29 27 26 30 31 30 40 57 53 42 36 28 22 20 20 22 29 32 33 31 27 25 24 23 22 22 20
33 35 37 38 38 49 49 48 43 51 44 41 47 46 38 29 22 31 40 41 36 35 38 43 49 34 53 37 28 23 23 20 19 25 31 33 34 31 30 27 25 23 24 23
23 28 36 40 44 48 53 54 55 50 45 48 51 51 49 40 36 33 38 37 30 41 36 34 38 34 46 40 36 29 29 22 17 21 27 31 36 37 34 32 28 26 23 23
21 23 27 36 40 44 56 59 63 61 52 52 58 47 67 52 46 45 48 49 47 34 30 34 23 35 40 38 31 30 35 27 21 20 24 31 35 37 36 35 32 29 26 24
27 30 31 33 35 37 56 54 61 64 65 68 55 54 76 60 57 54 56 50 56 47 47 44 39 39 38 31 35 30 36 34 25 20 22 25 30 33 36 37 36 33 29 29
25 30 30 30 34 33 43 59 59 64 70 69 69 65 64 71 62 56 62 61 53 57 51 48 45 44 46 40 40 43 49 36 29 24 18 22 25 29 34 36 36 34 34 31
25 26 25 27 25 21 30 55 61 66 69 72 71 76 70 65 59 60 67 67 61 57 52 54 50 46 51 46 46 42 32 26 27 20 18 19 23 25 30 33 34 34 34 34
21 23 23 24 19 26 23 33 64 57 66 72 68 78 80 74 68 69 63 74 69 56 61 58 58 54 55 51 51 51 38 39 17 20 20 19 21 23 25 29 33 36 35 34
21 20 17 16 12 24 27 35 35 56 59 59 72 73 82 82 77 68 66 64 52 62 62 63 63 62 61 58 56 45 35 33 27 27 26 23 20 19 23 26 30 34 35 36
18 18 17 16 22 25 32 38 34 40 51 60 59 74 75 85 86 85 64 55 60 57 65 69 67 63 61 59 57 50 40 39 36 34 33 28 24 22 22 24 28 31 34 34
14 15 16 18 20 26 24 31 41 43 39 47 62 58 75 76 84 83 86 68 56 57 59 63 62 58 59 55 55 53 46 44 41 41 37 33 30 25 23 23 26 30 33 33
13 15 17 19 23 22 31 31 36 42 53 50 45 71 73 74 82 82 80 85 63 56 57 62 66 60 57 55 54 53 49 46 43 43 43 39 36 31 27 25 26 29 31 32
16 13 15 19 20 19 27 27 32 40 41 51 58 52 64 75 81 84 88 80 83 80 57 51 62 61 60 58 57 55 53 50 47 47 46 48 44 40 34 28 28 27 28 32
20 19 19 20 22 21 19 24 25 27 35 44 52 64 64 67 68 81 86 89 84 85 87 67 60 58 61 60 58 56 54 53 52 53 55 52 53 49 40 35 31 28 27 32

GFSCGP_500_spd_084.txt.gz
Wind_Speed
25 24 22 22 21 22 21 23 22 23 19 15 15 15 10 10 7 7 15 12 8 8 12 15 14 14 15 14 13 13 13 13 11 9 10 9 9 10 12 10 13 15 16 16
26 22 21 25 24 24 24 23 21 25 24 24 18 8 12 12 10 11 12 7 17 14 7 13 15 14 15 17 17 15 14 14 12 11 11 10 9 10 10 11 12 13 15 14
29 28 28 28 28 27 26 24 23 28 27 27 25 22 18 14 14 11 9 10 15 20 9 12 15 16 15 17 18 17 16 16 13 12 11 11 9 10 9 10 12 12 11 10
34 32 32 30 27 28 29 24 26 30 31 25 27 23 22 18 18 11 9 9 8 11 9 8 16 17 16 17 20 19 19 16 15 14 14 12 11 11 9 9 8 9 6 6
36 37 35 34 31 30 29 29 28 32 34 35 30 29 26 25 18 12 10 5 11 16 12 11 12 18 22 19 20 22 21 19 17 15 16 13 12 11 10 9 6 6 5 5
33 36 37 36 36 37 35 33 34 35 36 35 30 30 30 29 21 18 18 6 9 20 11 15 16 16 18 21 22 21 22 22 21 19 17 16 15 13 11 9 7 5 4 5
38 39 38 39 38 38 38 36 34 35 37 34 37 40 30 27 25 19 17 19 15 20 15 22 16 11 14 16 22 22 21 22 23 22 20 19 17 17 14 11 9 8 5 3
33 34 39 40 42 40 40 39 38 37 35 33 33 47 34 27 25 27 25 20 22 24 20 20 21 17 18 18 20 24 24 25 24 25 24 22 20 18 17 15 12 9 7 3
30 30 35 36 39 43 39 41 39 39 36 37 34 31 25 41 37 34 28 26 23 21 22 28 28 21 21 19 17 21 25 26 27 27 27 24 23 21 20 18 16 13 10 7
24 19 25 25 30 36 40 42 40 43 42 41 34 26 29 31 32 35 34 33 20 21 26 29 32 27 25 25 25 22 22 25 28 30 30 28 27 26 25 22 19 16 14 11
27 23 22 24 27 30 32 38 41 42 38 38 34 26 30 34 32 31 33 31 14 18 21 27 30 32 26 23 23 24 24 24 25 27 29 28 27 26 25 25 24 21 18 14
24 25 24 27 34 34 33 35 37 45 39 38 34 33 35 35 34 33 30 28 24 17 21 29 30 36 36 28 25 22 24 24 27 28 30 30 28 28 26 25 26 25 21 20
24 28 28 30 36 39 37 36 40 41 46 41 38 34 39 37 32 35 35 35 34 32 35 36 33 38 37 33 31 27 24 23 25 31 32 34 32 30 29 27 26 25 24 24
29 29 30 34 37 40 42 42 42 41 44 48 48 43 47 41 38 27 36 39 41 38 39 35 34 32 37 42 36 36 33 28 29 28 33 35 34 32 31 30 29 26 25 25
30 31 32 34 35 39 41 46 49 45 48 49 51 47 53 51 44 33 27 37 42 40 39 34 26 36 44 41 40 44 42 35 34 34 33 32 36 37 36 34 32 29 26 26
25 24 28 30 35 36 37 46 53 52 54 52 55 54 60 60 43 46 35 36 41 45 47 36 37 34 34 30 44 52 49 39 40 37 37 36 37 40 39 37 34 32 29 27
22 22 25 25 28 31 37 40 53 59 60 61 59 58 61 62 59 55 46 40 45 49 45 44 47 41 35 28 39 49 57 44 41 40 40 39 39 38 40 39 37 34 32 30
21 18 18 23 25 29 34 37 41 60 65 65 66 67 67 67 72 60 54 48 47 43 41 44 33 36 27 36 36 46 44 47 45 39 34 34 37 40 40 41 40 37 36 33
19 19 21 21 25 29 35 40 45 49 67 68 70 71 71 74 73 69 58 58 53 49 50 46 43 41 36 34 38 39 41 41 47 44 38 33 34 38 40 39 39 39 39 38
24 22 21 24 26 26 30 35 40 39 55 70 73 75 77 74 70 75 68 63 60 56 51 48 55 54 49 44 44 41 44 49 46 44 40 32 32 35 36 36 38 41 43 41
22 23 24 25 27 29 28 29 37 37 40 63 71 76 79 80 76 80 76 64 68 65 61 60 50 58 53 47 48 39 41 39 42 47 44 38 31 27 32 35 37 39 42 43
17 22 25 25 27 32 24 28 33 34 36 49 63 74 73 79 84 80 80 77 65 70 71 66 64 63 57 52 49 46 47 46 47 41 40 41 31 24 24 26 28 35 39 41
12 19 22 25 26 29 31 34 34 35 38 46 54 55 72 77 82 83 78 78 81 74 69 70 70 59 62 63 59 58 50 47 47 37 31 33 37 36 30 25 25 30 33 37
11 14 16 21 26 29 31 33 36 37 35 40 47 49 63 68 83 79 80 78 83 81 74 68 78 67 79 84 69 62 55 53 50 46 44 30 27 26 31 28 27 27 29 31
13 16 19 19 20 21 25 28 31 32 36 40 44 49 59 69 70 82 82 79 82 87 88 74 82 83 53 78 73 60 60 56 53 49 45 46 41 40 36 33 31 29 27 29
17 21 21 22 23 24 25 24 23 24 26 33 39 45 55 62 77 79 79 88 84 82 93 91 70 66 67 74 70 61 65 58 53 52 48 48 47 49 45 39 38 34 31 29

GFSCGP_500_spd_087.txt.gz
Wind_Speed
25 25 22 22 21 26 23 25 25 23 23 23 25 20 16 17 13 12 9 5 6 4 7 10 12 14 16 17 16 13 14 15 12 9 9 12 13 13 14 16 16 19 20 17
26 22 22 25 27 27 26 24 26 26 28 26 23 24 21 19 16 11 9 6 6 4 7 9 13 13 17 22 21 17 16 17 14 10 11 11 13 12 14 13 15 18 21 19
27 26 28 28 28 28 25 24 27 32 32 27 25 24 18 19 17 14 10 6 6 6 10 7 17 16 16 18 23 22 20 19 16 13 14 13 13 12 13 11 12 15 17 18
30 32 30 29 26 27 27 25 31 33 32 31 30 26 20 19 16 15 10 3 4 6 11 10 16 16 15 19 22 24 21 20 18 15 15 14 12 12 12 11 9 12 13 13
34 35 32 32 29 26 26 32 37 38 33 32 32 29 25 20 11 13 11 5 1 11 12 13 19 21 20 19 19 23 24 21 19 17 15 15 13 12 10 11 9 10 9 11
35 36 37 34 34 30 30 30 36 39 37 34 32 29 23 16 14 15 14 9 5 11 14 13 17 18 19 20 21 21 23 23 21 19 15 15 15 12 11 10 9 7 7 7
37 38 38 36 36 36 34 33 32 36 37 34 34 30 24 21 20 21 16 16 16 14 19 21 18 17 14 14 18 21 23 25 23 22 19 17 17 16 12 9 9 8 6 4
33 34 35 37 38 37 37 37 36 34 34 38 39 36 29 25 25 23 21 20 24 21 22 22 21 19 18 18 21 24 24 25 25 23 22 21 19 18 16 13 10 9 7 4
28 31 34 36 36 37 37 39 38 36 36 37 42 43 36 33 31 29 25 25 19 17 23 19 20 19 20 20 23 27 28 29 27 27 25 23 22 20 18 17 14 12 10 9
23 23 27 31 34 35 39 39 39 40 38 39 37 40 44 41 43 37 30 29 26 20 20 20 13 23 21 21 24 29 33 33 32 32 29 26 25 24 23 21 18 15 14 10
21 22 24 27 31 34 34 39 42 41 40 41 39 39 41 42 39 41 38 33 32 27 25 21 17 21 24 26 25 26 31 34 34 32 32 32 28 26 25 24 22 20 17 13
24 25 26 31 32 33 34 35 36 38 41 43 41 42 46 41 39 36 34 35 37 32 34 30 27 28 34 33 32 28 31 33 34 33 34 34 34 32 28 25 24 23 21 18
25 26 30 32 34 34 36 36 35 36 35 38 40 44 42 45 42 38 36 34 37 38 37 34 33 36 35 36 37 34 33 31 34 39 37 36 35 33 31 29 27 26 26 23
26 27 29 32 35 37 39 38 38 38 38 38 43 46 42 44 43 42 41 39 38 37 42 39 39 38 34 35 40 37 36 35 33 34 39 40 38 36 36 35 32 29 28 28
28 27 28 31 33 37 39 41 42 41 41 39 43 46 46 44 43 44 45 44 42 41 45 43 42 42 38 37 44 42 40 38 36 34 31 36 40 41 41 40 37 35 31 29
28 28 29 30 32 34 37 41 44 45 45 42 42 44 49 48 44 47 49 48 46 46 48 47 44 45 42 41 48 48 44 41 39 36 35 35 40 43 43 44 42 39 35 33
25 29 28 27 27 31 35 37 40 45 47 47 48 46 48 49 49 46 52 53 51 47 56 52 48 49 43 46 49 45 47 47 47 43 40 41 41 43 46 47 47 43 40 37
20 22 24 24 25 29 33 36 36 38 46 52 51 53 55 54 51 52 54 57 53 55 52 56 52 51 47 42 48 51 47 59 56 53 52 46 44 44 45 48 49 45 42 40
23 23 24 27 25 25 26 30 34 36 38 42 55 59 60 62 58 56 54 59 58 54 48 41 50 55 54 51 51 49 57 58 56 60 53 52 47 45 47 46 47 48 45 42
28 29 28 27 28 27 25 26 29 33 34 36 43 52 66 68 68 63 63 56 63 59 48 48 53 56 56 56 55 49 47 49 57 65 58 57 50 48 48 50 49 51 51 47
27 32 32 33 32 30 29 31 30 31 35 37 37 48 59 72 75 74 70 68 66 70 63 58 48 48 55 54 52 47 45 37 41 53 58 63 57 48 46 50 52 51 50 52
10 16 23 28 31 33 33 32 33 35 35 38 38 39 54 67 79 82 78 76 74 73 75 65 61 63 56 55 50 52 53 49 60 61 54 56 47 53 51 45 47 48 50 51
7 6 7 10 16 24 29 30 32 34 38 40 42 43 46 53 69 82 84 81 81 80 80 77 68 64 46 49 63 58 50 49 44 45 42 50 44 43 48 43 43 44 44 47
12 13 12 11 11 15 21 28 33 37 37 40 45 48 48 49 50 65 81 80 84 84 85 87 82 78 77 52 53 52 59 56 52 48 43 45 33 47 50 46 44 42 42 43
20 19 17 15 15 16 21 29 30 34 37 40 42 46 51 50 52 51 66 73 81 85 85 90 91 85 79 69 62 60 64 60 56 51 46 46 46 35 42 60 42 38 36 38
26 27 26 23 22 23 26 28 25 25 31 34 37 39 42 49 46 54 47 68 74 83 84 86 89 90 83 84 76 52 67 62 60 55 53 52 40 39 37 49 46 38 39 36

GFSCGP_500_spd_090.txt.gz
Wind_Speed
21 22 20 22 24 24 26 26 24 23 21 22 22 16 20 21 18 16 18 14 10 10 12 12 11 17 19 17 16 17 15 14 14 13 13 13 14 15 18 17 15 16 15 15
22 20 23 25 26 27 28 30 30 29 27 24 25 23 16 16 16 23 15 15 15 11 12 13 12 14 19 20 19 17 17 15 13 13 13 13 15 15 17 18 16 16 15 14
24 23 24 26 28 27 26 28 31 32 31 27 25 24 20 18 17 19 18 14 13 14 12 15 15 15 17 19 20 20 17 15 14 12 14 15 15 15 15 18 18 16 17 14
27 29 27 26 25 25 25 26 29 32 30 30 27 23 19 17 17 18 19 12 11 13 18 14 19 18 18 21 22 21 19 16 15 14 15 16 14 13 15 16 16 16 16 16
30 31 30 27 25 23 27 31 32 33 30 29 29 26 22 17 17 17 19 14 14 16 17 16 22 22 22 22 23 24 22 19 17 16 16 16 14 13 11 12 15 14 15 16
33 34 33 31 31 26 29 31 32 32 32 29 29 25 25 23 24 29 27 21 20 19 21 18 22 23 22 24 25 24 24 23 21 18 17 19 18 16 13 11 13 13 13 15
35 36 35 34 34 32 31 31 34 35 34 32 31 26 23 27 27 26 24 22 21 24 24 22 20 19 19 21 23 24 25 25 24 22 19 20 20 18 15 12 10 11 11 12
33 36 36 36 37 35 35 34 33 35 34 34 33 32 26 26 26 29 27 24 19 12 20 24 25 24 22 23 25 26 27 26 26 25 23 21 20 18 16 13 11 10 10 9
29 32 34 35 37 38 37 37 36 34 36 38 40 37 32 30 29 27 27 27 23 19 16 22 24 23 21 19 21 24 29 29 28 27 26 24 22 21 18 16 13 10 8 7
26 29 32 33 34 38 38 39 39 39 39 40 40 38 38 35 35 32 30 26 25 20 21 21 22 27 24 22 24 28 28 30 31 31 28 25 25 23 23 20 15 13 10 7
21 24 27 29 32 33 36 39 40 40 41 42 40 40 38 38 38 36 33 29 28 26 23 23 25 30 30 28 25 27 28 31 32 32 31 28 26 27 24 21 20 17 13 11
21 24 26 29 30 31 31 34 39 41 40 42 42 41 41 40 38 37 36 34 33 31 30 28 29 31 32 34 30 29 30 30 33 34 35 34 32 29 27 25 23 22 20 16
25 29 32 31 32 32 33 33 34 37 38 42 43 43 41 41 38 38 36 35 37 40 36 37 35 32 31 34 32 32 30 29 32 35 37 38 36 34 32 30 28 26 25 22
27 32 34 36 37 36 35 33 34 34 37 39 41 41 42 42 40 40 38 38 38 39 41 41 40 39 34 34 34 33 33 34 33 34 38 39 39 38 38 36 34 31 30 28
28 33 34 37 38 38 38 37 36 34 35 37 39 39 40 41 41 39 41 42 41 42 40 42 43 43 39 39 37 36 36 36 33 34 35 39 41 41 41 41 37 35 34 32
26 28 30 32 35 36 37 38 38 38 38 40 39 39 41 42 43 40 39 45 47 44 43 42 44 49 46 41 39 40 41 40 38 38 37 37 41 43 42 43 42 39 37 36
27 27 29 30 32 33 35 37 39 40 40 41 41 42 42 41 43 44 42 43 48 52 50 47 46 48 51 47 45 45 44 46 45 42 39 38 36 36 42 45 45 44 41 40
27 27 28 28 30 32 33 32 34 36 40 43 44 45 46 47 45 44 45 45 49 53 56 55 53 50 53 53 51 50 51 47 50 47 46 44 42 40 40 39 44 46 47 44
27 28 27 27 29 32 33 33 33 34 36 39 43 47 50 50 50 49 49 47 49 55 58 60 60 58 57 57 56 55 48 47 54 51 52 50 46 44 43 42 43 47 50 48
25 30 31 30 27 29 32 32 32 31 34 38 42 44 48 52 54 55 54 53 50 55 62 62 62 58 58 62 60 60 58 52 53 58 54 54 55 54 50 51 49 47 49 51
19 25 29 32 32 31 30 30 32 33 33 35 40 44 48 49 53 57 59 59 57 55 60 68 63 60 53 55 60 62 62 54 55 57 58 56 57 61 58 57 53 52 49 52
8 10 15 22 29 31 31 33 34 36 37 38 39 39 43 48 50 51 59 63 63 62 60 68 72 69 63 58 53 61 64 63 57 57 63 64 55 66 65 63 60 54 52 50
10 9 7 11 15 20 22 24 28 34 39 43 45 46 45 45 48 53 54 60 67 68 66 65 72 75 71 67 67 46 56 62 64 60 56 60 63 61 72 64 59 55 59 54
16 13 13 11 11 12 13 13 16 21 24 28 38 47 50 50 50 49 52 56 60 70 74 73 69 80 79 76 70 65 52 54 60 54 62 61 49 56 58 60 67 70 55 52
24 25 27 25 24 22 25 24 23 26 26 34 33 35 43 50 51 53 51 54 55 54 70 80 78 72 83 80 76 75 66 69 61 55 54 67 40 37 51 53 53 43 49 54
28 28 30 31 34 33 34 33 32 31 32 31 32 35 37 39 47 51 51 51 52 56 57 70 85 83 79 85 84 79 74 61 64 68 59 53 51 46 42 40 31 44 44 52

GFSCGP_500_spd_093.txt.gz
Wind_Speed
23 23 21 25 27 26 26 24 23 21 19 17 17 17 20 28 26 19 15 14 16 17 15 14 18 21 20 19 18 18 15 12 14 17 15 16 13 11 14 14 16 16 12 11
21 22 27 28 27 27 28 28 29 25 24 24 23 19 17 22 16 13 16 16 16 15 14 15 15 20 21 22 21 18 16 13 12 16 18 15 13 11 13 15 13 15 14 13
22 24 26 27 28 27 28 30 31 29 27 26 24 21 22 19 15 16 16 16 14 14 16 17 18 21 21 22 23 21 21 16 14 16 19 19 17 13 13 14 14 13 14 13
28 27 25 26 28 28 26 27 31 32 29 27 26 26 23 21 22 26 19 18 17 16 16 17 20 21 24 25 25 23 21 20 18 18 20 19 18 15 12 12 13 13 11 12
30 29 27 25 25 27 28 30 33 33 32 31 29 28 27 25 26 25 26 23 21 16 21 21 22 24 28 27 27 25 23 21 20 20 20 19 17 16 15 13 11 10 11 11
33 33 32 30 29 28 31 31 30 30 32 31 32 32 29 27 30 28 28 25 24 24 17 25 23 24 23 27 27 27 24 22 21 19 19 21 19 18 15 14 13 12 11 11
34 36 36 34 33 32 30 31 32 32 32 32 31 35 32 31 31 31 29 26 25 24 28 28 25 23 22 22 24 25 25 23 21 21 19 21 21 19 16 16 14 11 10 10
34 37 37 37 36 35 34 32 32 34 31 29 27 33 35 35 34 32 31 28 24 25 27 27 27 29 25 23 26 28 26 25 23 21 21 21 20 20 18 16 15 14 10 8
32 36 38 39 39 37 37 36 34 32 32 30 32 31 32 34 35 35 33 29 26 22 29 27 26 31 31 26 24 28 31 30 27 25 23 23 22 23 21 18 17 15 14 11
29 31 36 37 39 40 40 38 39 37 36 37 35 33 35 34 33 32 31 30 29 27 22 28 29 27 28 29 31 32 33 33 33 32 27 26 25 25 24 21 18 17 14 12
27 29 31 33 37 39 41 42 41 40 40 39 37 36 35 34 34 32 29 28 31 29 29 24 21 26 26 29 30 31 34 36 36 34 32 29 28 27 26 25 22 19 17 15
21 24 27 30 32 35 38 41 43 43 43 42 40 38 38 34 34 34 33 31 30 29 29 28 26 28 30 30 29 31 34 36 37 38 36 34 32 30 27 26 25 23 20 18
24 26 26 29 30 31 34 36 40 42 44 44 42 43 39 38 37 35 34 36 35 34 33 32 30 29 26 29 31 29 30 33 37 39 39 37 35 33 31 30 28 27 24 22
30 30 31 33 33 32 32 33 35 39 42 44 45 43 42 41 38 37 38 38 38 40 38 38 36 34 31 32 30 32 32 31 32 33 37 37 36 36 36 35 33 31 29 26
30 35 36 35 36 35 36 36 36 38 39 43 44 44 44 44 43 41 41 40 40 40 39 39 41 39 40 38 35 35 38 35 34 34 33 35 37 38 39 38 36 35 32 30
29 34 37 39 39 38 39 38 37 36 37 39 40 41 43 45 45 44 45 44 44 44 42 42 42 43 45 47 44 42 41 46 40 40 37 37 39 40 41 40 41 40 36 34
26 29 31 35 37 38 39 39 39 39 39 39 39 39 39 40 42 43 42 43 46 48 49 46 45 44 44 46 48 49 46 42 38 42 42 40 40 39 41 43 43 43 42 40
27 28 30 31 33 36 37 37 37 39 40 40 40 40 41 42 43 43 42 44 46 49 52 52 50 49 47 46 49 51 51 48 52 48 54 46 42 39 37 38 41 43 44 43
25 27 30 30 33 34 35 35 37 39 40 42 43 43 43 43 44 45 45 45 46 47 52 55 55 55 53 51 49 50 54 52 51 46 37 44 43 42 40 38 36 38 45 45
21 24 28 30 33 33 33 35 36 38 39 40 41 42 43 44 46 48 50 51 50 50 50 55 59 60 60 57 55 52 54 56 54 53 52 49 51 48 48 45 45 45 47 42
14 19 24 28 32 34 36 37 38 38 37 38 39 40 41 43 45 47 49 52 52 53 53 54 56 63 65 64 61 60 57 58 58 56 59 60 59 58 52 53 51 48 47 37
9 11 15 22 28 33 36 38 37 36 37 38 39 39 40 42 45 47 50 53 54 55 56 57 58 59 66 69 68 66 63 63 60 60 60 61 61 54 60 60 59 57 50 53
12 10 10 11 13 18 27 35 37 37 36 36 37 38 39 42 44 46 48 53 56 59 61 61 60 60 62 69 72 72 70 66 63 63 62 65 60 54 56 61 60 61 62 59
17 16 15 12 10 8 7 11 19 24 26 26 27 32 37 41 47 51 52 52 53 58 61 63 65 64 63 65 71 75 75 74 68 65 64 60 61 55 54 60 64 61 63 56
22 22 23 24 23 20 19 20 22 24 25 25 28 28 31 33 36 38 48 58 60 60 60 61 64 66 67 69 67 72 80 79 76 66 61 61 59 62 61 64 67 65 68 57
28 28 24 27 29 30 30 32 32 32 35 35 35 36 37 38 37 37 40 40 48 60 65 64 62 62 66 70 72 73 74 82 83 80 72 67 59 61 60 61 59 53 49 69

GFSCGP_500_spd_096.txt.gz
Wind_Speed
26 28 27 30 29 31 26 25 24 21 20 20 19 23 26 27 22 23 19 17 17 18 17 16 19 18 19 19 18 14 13 11 13 12 12 12 13 12 11 12 12 13 13 13
27 27 30 31 32 28 27 27 28 24 22 22 20 25 31 27 24 22 21 20 19 17 16 15 18 20 20 21 20 16 13 12 12 12 15 15 14 12 12 13 13 12 11 12
26 28 31 31 30 30 31 30 29 30 26 24 24 32 33 31 26 16 15 19 20 20 20 19 18 20 21 22 22 20 15 14 13 14 15 14 16 13 10 11 13 12 10 10
31 30 30 30 29 30 32 36 33 29 28 23 27 37 29 29 25 20 17 19 21 20 20 22 22 21 22 24 23 22 17 15 15 16 15 14 15 17 13 10 12 14 11 10
36 33 30 30 31 31 32 35 34 33 33 30 26 11 27 31 25 23 24 22 20 21 20 22 22 23 27 26 24 23 20 17 17 17 16 14 14 15 16 13 11 11 13 10
39 38 36 33 32 33 33 32 32 29 33 32 28 24 28 28 27 28 25 23 20 20 22 22 26 26 26 28 27 23 22 21 19 18 18 16 15 14 14 13 12 12 12 11
38 39 37 34 32 34 34 33 30 30 33 26 32 36 34 35 31 29 29 27 23 20 19 24 26 27 25 24 25 26 24 24 22 20 20 20 18 15 14 12 10 9 9 10
39 39 41 39 39 36 33 33 26 24 25 26 33 41 42 39 36 32 31 29 25 24 22 23 26 27 29 27 26 27 26 26 25 23 22 22 21 18 15 14 13 11 10 10
33 41 40 40 39 37 37 37 31 23 26 22 32 45 39 41 38 35 33 28 26 26 29 29 27 29 30 30 29 30 31 30 28 26 24 23 24 22 19 16 14 14 12 10
36 39 39 40 41 40 40 39 38 35 26 25 31 33 44 44 41 38 34 32 31 28 25 28 29 24 30 32 32 33 34 34 34 32 28 26 25 24 23 20 18 16 14 11
31 33 36 37 41 44 42 42 40 33 27 25 26 38 39 38 39 38 36 33 32 32 30 32 32 29 25 31 32 33 34 35 36 34 31 29 28 27 26 24 21 20 17 15
26 29 31 37 36 40 41 45 44 42 39 34 29 37 36 37 37 35 32 30 34 35 34 31 30 22 30 29 27 31 33 35 36 36 34 32 31 29 27 27 26 23 21 19
25 28 28 31 34 37 41 43 44 43 41 34 31 37 35 35 34 34 33 32 33 35 36 34 31 30 30 34 30 29 30 33 35 36 36 35 33 31 30 29 29 27 25 23
24 27 28 23 28 35 38 41 44 44 44 33 41 44 42 37 36 36 35 37 38 38 37 37 36 33 32 35 37 34 33 33 33 35 38 37 35 34 34 34 31 29 29 27
30 30 30 31 35 38 37 40 42 45 49 46 41 50 47 42 41 39 39 39 41 43 43 42 40 38 36 36 34 30 33 33 34 35 37 39 38 37 37 36 34 33 31 29
27 33 35 35 34 34 37 39 39 43 44 47 54 48 48 48 46 45 44 42 42 44 45 46 47 45 43 41 39 39 34 36 37 37 35 37 39 42 40 40 39 37 36 34
29 33 32 37 38 38 38 37 38 41 40 45 47 48 47 48 48 47 47 46 46 47 46 46 47 47 48 48 47 45 42 39 40 40 37 40 41 42 45 44 43 41 40 41
27 28 30 36 35 39 43 40 40 40 40 43 43 40 42 44 46 48 49 48 49 50 50 50 50 49 48 49 49 51 50 48 47 46 46 45 46 43 43 45 45 44 44 43
28 29 31 32 33 37 37 36 38 41 42 43 43 43 43 44 43 45 46 47 48 49 51 53 54 53 53 51 52 51 53 56 56 54 53 49 48 48 46 48 45 44 44 45
19 25 30 32 34 35 37 36 38 40 41 41 42 43 43 43 44 49 47 48 48 49 49 51 54 55 56 57 56 55 54 54 54 57 58 57 55 53 50 58 49 45 43 42
14 19 23 28 32 36 35 35 37 38 42 41 43 43 45 46 48 48 46 49 49 50 52 51 53 56 59 59 59 60 60 57 57 56 59 60 58 54 50 38 49 47 46 44
11 11 15 21 27 33 35 36 37 38 38 40 41 43 44 45 46 48 49 49 51 51 53 54 56 56 58 61 63 62 63 63 62 60 59 58 57 57 56 52 48 47 40 49
18 15 15 15 18 22 29 33 36 37 38 40 41 43 44 45 46 47 48 50 51 52 53 54 55 57 60 61 62 66 67 67 66 65 64 63 59 57 59 57 54 53 53 51
23 23 20 18 15 15 16 19 27 34 38 39 39 39 40 40 42 45 48 51 53 55 57 58 58 58 59 60 62 65 67 70 71 70 68 67 66 63 61 63 62 58 55 54
25 26 24 27 23 21 18 18 17 16 19 25 32 35 36 36 37 41 45 47 48 50 54 58 60 62 62 63 64 64 64 69 71 74 74 73 71 70 67 64 64 62 60 60
26 29 32 31 30 29 29 28 25 26 26 27 29 30 32 34 35 35 36 38 42 43 43 42 58 64 66 66 69 70 68 68 69 72 75 77 76 73 72 68 67 64 60 60

GFSCGP_500_spd_099.txt.gz
Wind_Speed
31 33 33 29 26 19 16 15 18 20 17 17 12 15 23 18 21 21 20 18 17 17 18 21 19 17 16 14 12 13 11 8 9 9 8 8 9 10 11 13 14 12 12 11
33 31 31 32 31 30 26 24 19 22 17 17 13 16 31 23 20 22 21 20 19 18 17 18 19 18 18 16 14 12 12 11 9 8 10 9 9 9 8 9 12 12 13 11
30 31 34 35 35 32 28 27 30 24 22 24 16 17 16 22 22 22 20 18 18 18 18 17 19 19 18 17 17 13 11 11 10 9 8 8 7 9 9 7 8 10 12 11
31 34 37 35 33 32 27 24 25 22 26 22 22 22 8 28 27 25 17 16 18 19 20 19 20 22 21 21 20 16 13 12 11 11 9 7 7 7 9 8 6 7 9 10
35 37 36 36 32 34 21 32 37 29 23 22 25 26 36 29 28 27 18 18 18 19 18 18 19 21 24 23 22 20 16 14 12 11 12 10 9 8 8 9 7 6 6 8
26 37 34 35 35 35 34 32 35 29 25 24 30 29 33 24 34 32 20 20 19 17 17 20 22 22 23 24 24 21 19 17 16 13 14 12 12 10 9 8 10 8 7 7
40 40 37 40 32 39 41 35 26 29 29 24 22 21 29 26 35 33 23 21 20 17 15 19 20 22 20 22 24 23 20 20 18 16 15 16 15 14 12 10 8 8 8 8
36 37 42 41 35 31 40 29 23 22 25 24 21 30 37 33 27 31 28 23 22 20 19 20 22 25 24 23 24 26 24 23 23 20 18 18 18 16 14 11 10 10 10 9
26 24 44 42 42 38 34 37 23 17 20 24 32 43 42 40 31 30 26 25 24 22 21 24 27 22 21 27 25 26 28 26 25 25 21 21 22 20 16 12 12 11 10 10
25 34 37 43 41 39 36 31 29 28 22 29 33 38 38 43 35 32 31 27 27 26 25 26 23 22 18 28 29 29 31 31 30 28 25 24 24 23 20 16 14 13 11 9
30 27 35 44 45 38 40 37 38 28 21 30 25 28 45 39 40 38 35 32 31 30 29 27 26 22 30 25 35 33 33 33 32 31 29 26 26 24 23 21 18 16 14 11
43 27 21 25 45 46 47 34 31 30 31 25 35 33 38 29 35 40 39 36 34 34 33 32 31 32 31 30 24 21 32 33 32 32 30 28 27 26 24 24 22 19 17 15
31 23 20 32 40 45 46 44 45 31 25 29 30 36 31 33 33 37 39 40 39 37 34 33 36 34 35 34 35 32 31 33 32 34 32 31 29 28 26 25 25 23 20 19
28 22 25 16 20 28 43 49 47 44 35 26 30 37 33 36 31 36 37 38 38 39 38 38 39 41 39 42 22 31 32 32 31 29 28 30 31 30 29 29 27 26 25 23
24 27 30 30 31 35 39 46 48 48 46 28 36 40 44 40 40 32 38 39 40 41 41 39 40 41 35 34 28 28 28 35 34 32 31 32 33 33 32 32 31 30 28 27
27 28 30 32 35 36 40 41 43 47 50 43 53 50 48 45 46 39 38 40 43 45 46 45 44 43 43 38 36 34 35 36 36 36 35 34 33 34 35 36 36 34 32 32
33 30 31 32 31 35 38 36 38 41 46 42 55 56 49 47 46 48 44 42 42 44 45 47 48 47 47 46 44 42 39 36 36 36 35 34 35 35 37 39 38 38 38 37
30 34 35 31 35 36 36 38 38 39 46 43 54 54 56 55 53 48 47 49 47 47 47 47 48 49 50 50 50 48 44 42 43 41 39 32 32 39 36 40 39 40 41 41
30 30 32 30 37 32 37 38 39 38 41 38 47 48 44 46 49 51 52 51 51 51 50 50 51 51 50 50 51 52 51 50 49 48 47 44 42 42 40 38 39 41 43 46
28 31 33 33 36 21 27 39 41 38 41 43 46 46 44 43 46 49 48 50 50 50 51 52 53 54 53 53 52 52 52 52 53 53 54 52 50 48 49 49 42 46 45 47
21 24 30 31 35 26 37 37 34 37 37 43 43 46 46 47 50 52 48 47 48 49 50 51 53 55 55 56 55 56 56 55 54 56 56 57 58 57 56 56 51 47 49 48
20 21 24 27 31 24 41 39 38 39 40 42 44 44 45 46 45 48 50 49 49 51 52 53 54 55 56 57 58 58 58 59 59 59 59 58 58 58 58 58 57 54 54 53
25 24 22 21 23 31 34 37 38 38 40 41 43 43 45 47 48 48 50 49 50 51 52 53 55 56 57 59 59 60 61 61 61 61 61 62 61 60 60 58 58 58 57 55
30 29 26 26 25 24 24 27 32 37 42 44 46 46 46 47 48 49 51 51 51 52 53 53 54 55 57 60 61 60 62 63 63 63 64 64 63 63 63 63 61 60 58 57
30 31 27 30 32 27 26 23 26 29 34 38 42 44 45 45 47 48 49 50 50 52 53 54 54 55 56 58 60 61 63 64 65 66 66 67 67 67 66 65 66 64 62 60
28 29 32 32 36 34 31 27 24 23 23 24 28 32 37 41 44 45 46 46 47 50 53 54 54 55 56 58 63 65 66 67 66 67 67 69 71 72 71 70 68 67 66 64

GFSCGP_500_spd_102.txt.gz
Wind_Speed
32 35 33 30 26 22 10 9 21 16 25 16 15 16 12 17 32 27 24 20 18 19 20 19 16 13 11 10 10 9 8 6 8 7 7 9 10 9 8 6 10 11 12 13
33 33 32 31 28 26 27 25 23 21 24 22 19 16 15 22 32 26 22 21 19 18 17 17 17 15 14 12 9 10 10 8 8 7 6 7 4 9 7 7 8 10 11 13
33 29 32 34 31 34 27 18 28 33 29 27 20 12 18 13 23 24 29 24 20 17 16 15 18 17 15 14 11 10 10 10 8 6 7 8 8 10 9 6 5 8 9 10
32 33 33 37 38 35 32 25 28 22 23 23 16 14 12 16 19 33 27 13 15 16 20 16 18 20 18 17 14 10 11 12 10 6 9 8 5 5 7 10 7 8 8 9
32 37 36 36 36 35 38 16 13 16 23 28 20 20 18 21 14 25 16 16 14 16 16 17 16 18 19 18 16 14 11 12 11 10 7 5 5 10 5 7 7 7 8 8
34 34 24 40 36 34 35 38 24 26 22 24 21 15 27 24 23 16 17 18 17 15 14 16 16 16 18 19 17 15 14 13 13 12 11 6 4 7 6 6 2 4 7 7
33 24 29 35 34 33 36 36 29 32 23 21 27 26 32 29 27 25 26 18 17 21 20 15 13 14 16 16 19 18 16 16 14 14 14 10 8 7 13 8 5 3 5 5
34 21 30 34 37 23 35 36 21 26 24 18 25 31 38 36 35 17 30 23 20 20 26 16 12 14 18 16 19 20 20 19 18 17 16 16 14 11 7 2 6 10 8 6
20 26 28 39 40 38 33 44 30 14 14 17 33 40 37 30 29 29 18 24 23 18 16 14 8 22 23 18 20 22 25 23 22 21 18 18 17 15 12 10 9 10 9 6
31 29 34 37 43 44 35 32 37 32 29 26 34 37 43 37 26 25 24 29 29 24 21 24 24 20 18 29 32 25 27 26 26 23 20 19 18 17 15 13 10 10 11 10
24 26 21 38 40 43 40 34 43 28 19 27 24 33 40 46 39 35 31 27 26 27 24 22 25 25 22 27 36 31 29 27 29 28 24 21 20 18 17 16 14 13 10 7
29 23 11 21 39 39 42 33 36 34 37 29 33 32 42 36 29 27 34 33 29 29 29 28 30 28 29 21 20 33 36 33 29 29 25 25 22 20 19 18 17 17 12 11
43 25 12 16 26 39 47 44 32 32 28 31 25 33 29 27 20 24 21 34 35 33 33 32 33 32 32 28 25 27 39 23 26 29 27 27 25 22 22 21 19 19 17 14
43 31 17 24 24 21 36 44 44 42 32 22 34 37 29 21 20 22 23 29 34 37 36 36 36 36 36 32 35 34 30 14 24 34 27 27 29 27 26 25 23 21 21 20
47 40 24 14 24 29 32 41 45 48 50 29 33 32 26 28 23 24 27 28 35 40 41 40 41 40 41 39 36 37 28 24 25 19 23 25 28 27 29 28 27 26 24 23
41 39 44 25 22 30 36 33 39 50 48 28 47 37 35 39 37 36 34 30 35 40 42 44 45 46 46 43 38 35 35 36 29 29 28 25 27 27 29 30 29 29 28 27
25 37 42 39 29 23 35 38 38 44 48 27 48 55 45 41 45 42 44 38 34 42 44 46 46 47 48 48 45 41 37 39 31 27 34 32 31 30 27 30 31 31 31 31
29 28 28 36 37 35 32 32 34 37 30 28 54 58 57 54 50 47 47 46 44 39 44 48 48 47 48 48 47 45 43 40 41 36 34 32 38 37 36 32 34 33 32 32
30 28 33 35 29 27 34 39 37 34 23 31 48 56 59 55 56 52 51 49 47 47 48 44 47 49 49 50 50 49 47 46 45 42 39 39 38 40 46 38 33 34 36 35
30 28 30 31 33 23 36 31 35 35 37 39 43 47 47 52 50 53 54 58 55 52 49 49 51 50 49 50 50 49 49 48 49 49 47 44 42 47 44 40 35 39 34 34
24 27 29 30 32 26 37 33 29 30 34 39 43 46 46 49 49 52 53 52 53 55 53 54 54 53 53 54 53 53 52 51 50 50 49 49 49 50 49 45 45 44 43 39
20 22 26 29 33 26 30 34 42 37 36 37 40 40 44 44 49 48 50 44 46 47 49 50 52 52 53 53 54 54 54 54 53 52 52 51 51 51 52 51 49 47 48 47
26 24 24 24 28 35 42 45 41 42 42 41 39 43 45 45 44 46 51 52 50 49 50 51 51 52 54 54 53 54 55 55 55 55 55 55 55 55 55 54 54 54 51 50
34 33 30 27 28 28 30 33 34 39 41 42 44 45 46 46 45 47 48 50 50 50 50 52 52 53 54 55 55 56 56 56 56 56 56 57 57 58 58 58 58 58 58 56
32 37 36 31 35 33 28 28 28 30 33 34 39 46 48 49 48 46 48 49 50 51 51 51 52 53 55 56 56 57 57 58 59 59 59 59 60 60 60 60 60 60 60 59
25 36 35 33 38 40 37 35 34 31 28 29 32 39 45 47 49 50 50 51 51 51 52 52 53 54 55 57 58 59 59 59 59 60 62 62 62 62 63 64 64 63 62 61

GFSCGP_500_spd_105.txt.gz
Wind_Speed
34 34 33 30 28 27 20 13 14 21 19 15 14 16 12 11 21 30 25 21 17 16 17 17 14 12 10 8 7 7 6 7 9 11 10 12 13 12 12 13 14 14 15 17
35 36 31 30 30 26 29 27 25 28 22 24 19 17 17 16 14 35 26 20 16 16 16 16 15 14 13 10 7 8 7 6 10 9 8 12 11 11 10 13 14 14 16 17
35 29 31 31 31 31 31 29 27 18 23 25 19 16 19 20 19 31 24 24 18 14 14 15 17 16 15 12 9 8 7 6 7 8 6 8 10 9 10 10 11 13 15 15
34 32 34 33 32 34 32 21 28 23 25 21 6 13 16 17 18 39 29 27 20 15 16 16 17 16 17 15 12 8 8 8 7 9 7 6 5 8 7 8 10 12 13 15
30 34 36 37 32 37 33 18 25 29 21 29 11 10 14 16 20 34 27 24 23 19 19 19 15 17 17 16 16 13 10 9 9 11 12 7 5 7 5 6 6 9 10 12
31 33 36 37 35 39 31 25 24 21 21 24 11 15 18 17 18 22 30 31 22 20 18 16 16 15 17 17 16 15 13 9 8 7 11 9 5 6 5 5 6 8 9 10
34 39 33 37 37 45 42 31 19 23 30 7 3 18 23 23 22 8 34 30 26 19 19 19 19 17 14 16 17 16 15 13 10 9 11 9 8 8 7 5 4 5 8 11
32 35 37 34 41 40 44 41 31 24 21 6 13 24 24 24 22 28 33 39 22 28 24 24 24 20 18 16 19 17 17 15 14 12 12 14 12 10 8 6 3 4 2 4
21 28 21 33 28 43 47 45 33 20 10 21 25 26 19 24 18 23 27 17 20 26 27 26 20 22 19 20 14 15 20 19 15 14 12 14 15 12 10 7 5 1 1 2
28 29 29 26 23 42 49 52 36 32 28 26 26 28 29 28 28 25 16 30 16 17 18 18 24 28 16 14 14 16 19 21 23 19 16 14 15 15 13 11 8 5 4 3
38 34 35 35 29 34 43 45 45 37 33 32 23 26 27 32 30 29 24 23 27 18 16 11 10 15 11 17 16 16 21 21 22 23 21 20 18 16 15 14 12 8 5 7
41 33 43 46 28 33 36 40 45 41 34 29 31 28 28 26 34 31 29 28 23 32 18 16 15 16 17 18 18 17 15 25 24 26 25 24 21 20 17 14 13 12 10 9
36 31 28 25 38 37 42 38 38 49 40 32 30 35 34 24 24 20 21 23 25 24 26 25 24 23 25 23 22 19 20 26 34 30 29 27 24 23 20 17 16 17 17 15
34 35 24 32 28 28 40 43 39 45 47 36 39 34 30 26 28 18 22 23 24 28 30 31 29 25 26 27 26 28 29 23 19 39 35 32 29 26 23 22 21 20 21 20
39 39 26 15 25 25 27 39 46 44 51 39 43 33 30 28 18 19 23 21 23 27 33 34 32 30 30 31 31 32 31 28 21 19 31 30 27 25 27 26 24 24 22 23
37 53 27 22 32 32 30 31 40 47 50 52 51 35 23 26 22 23 24 24 24 24 29 33 34 34 35 35 35 34 33 31 27 23 17 24 36 36 37 29 27 27 26 26
37 50 43 22 30 33 31 31 38 52 35 55 60 54 41 23 25 28 29 27 25 24 26 30 33 36 39 39 39 38 37 35 31 25 29 32 20 25 26 28 24 27 27 28
19 38 48 44 36 32 32 34 37 41 35 52 56 59 61 54 36 30 32 35 33 29 28 29 34 36 39 40 41 41 38 37 35 31 28 32 19 28 24 28 27 26 29 30
24 23 29 34 44 46 29 32 29 32 26 29 51 57 58 59 57 50 43 36 33 34 36 39 37 37 40 43 43 44 42 40 39 35 34 32 39 29 29 26 30 30 33 33
29 25 27 30 29 31 42 46 37 32 32 36 43 47 53 59 58 56 50 43 42 42 45 46 43 44 45 43 44 46 44 43 43 43 41 40 37 35 35 33 32 36 38 38
16 25 27 28 30 34 37 36 35 27 37 43 39 44 45 45 48 54 56 54 51 50 53 53 51 49 47 45 47 48 48 46 44 43 43 43 42 39 38 37 37 37 41 46
25 18 20 26 33 35 31 30 38 32 33 34 40 48 49 50 47 45 46 48 50 49 49 54 55 55 53 54 53 51 51 51 49 47 45 45 45 45 43 41 40 41 40 42
30 28 21 20 29 35 37 38 34 35 39 36 37 36 38 43 43 39 47 45 45 46 46 47 51 54 53 51 50 50 49 51 51 50 48 46 47 50 49 47 46 45 44 43
25 34 29 28 21 26 26 34 41 42 35 37 41 44 44 41 39 43 29 43 46 45 46 48 49 50 52 52 52 52 51 50 50 51 51 50 49 50 51 51 51 50 49 49
28 30 30 33 35 35 32 28 27 29 33 40 44 46 48 48 46 47 49 46 45 48 49 48 50 51 52 54 55 54 53 53 52 52 52 52 51 51 52 53 53 53 53 52
29 29 29 34 36 37 39 38 37 32 31 30 30 32 36 41 43 46 50 50 48 46 47 49 50 51 52 53 55 56 56 55 55 54 53 53 52 53 54 54 55 56 55 55

GFSCGP_500_spd_108.txt.gz
Wind_Speed
38 35 36 28 24 21 20 24 22 19 17 12 12 13 12 10 9 13 29 25 17 16 16 14 14 11 9 7 8 13 12 14 15 14 13 13 14 12 12 12 12 14 14 17
35 32 37 36 30 27 26 27 25 19 17 16 18 18 16 10 10 13 27 15 19 17 16 13 12 11 9 5 6 9 14 12 14 17 15 14 11 12 11 11 12 13 15 15
33 33 36 36 33 31 29 29 27 23 22 20 21 18 21 16 14 13 19 17 19 20 20 16 14 13 12 10 8 7 9 10 13 14 14 16 11 13 12 10 12 13 14 13
33 34 35 36 36 33 30 30 34 27 28 27 20 22 20 17 16 17 20 21 21 19 19 19 18 17 16 14 10 9 10 10 10 14 14 14 12 10 13 10 10 11 11 12
29 33 34 34 35 33 32 31 28 28 27 36 16 14 9 10 8 14 22 24 22 19 19 20 20 20 18 17 15 11 11 11 10 11 15 15 12 10 11 10 8 8 9 11
32 37 37 34 33 32 36 32 30 26 25 22 16 19 17 9 11 12 19 29 24 23 21 22 23 22 20 19 18 15 13 12 11 10 11 14 14 13 10 9 9 8 11 10
30 35 38 37 37 38 34 27 28 30 23 18 23 25 17 13 10 12 15 35 28 27 25 24 23 22 20 19 19 18 15 13 13 11 9 9 14 12 11 10 9 8 6 9
32 34 35 37 39 41 37 30 29 31 18 14 20 17 15 16 15 14 18 29 36 43 30 27 26 22 22 24 20 19 19 16 15 14 12 10 11 12 11 10 8 8 7 7
36 34 32 36 39 46 45 37 40 27 19 18 24 28 17 15 14 16 17 14 32 32 34 32 32 28 25 21 22 23 21 20 18 16 15 14 13 13 14 11 8 8 6 8
38 36 35 33 34 39 46 42 34 27 23 19 23 21 21 21 21 19 21 16 23 33 38 39 35 25 29 22 23 23 22 20 17 16 15 15 16 15 13 13 11 9 8 6
39 37 35 34 31 32 42 45 39 35 32 25 24 20 18 21 24 23 23 18 23 34 21 31 33 27 30 22 20 18 20 19 17 20 18 18 17 18 18 16 14 12 11 10
36 33 38 39 34 33 37 40 46 40 33 32 32 30 27 21 19 24 26 20 16 11 17 22 28 17 35 29 29 18 15 18 10 23 25 25 24 23 22 21 19 17 16 15
38 37 38 35 36 35 39 38 46 45 42 38 38 31 38 32 24 27 29 26 22 19 14 21 11 14 26 21 22 18 15 12 23 18 30 30 28 26 24 24 23 23 22 20
35 37 38 37 44 40 41 42 42 42 49 48 43 46 43 41 33 32 31 28 21 21 20 21 23 21 13 13 15 13 13 19 30 13 21 38 33 29 30 27 28 27 25 23
33 36 37 34 46 47 42 37 42 41 44 53 48 47 39 40 40 45 28 27 24 20 20 26 26 27 22 20 19 18 20 23 20 18 21 26 29 35 35 32 31 31 27 25
22 39 39 38 44 46 41 41 42 48 51 51 57 54 45 38 37 25 25 22 22 24 22 23 26 26 26 24 25 24 22 21 22 21 17 19 34 33 39 34 32 33 33 31
22 25 35 33 39 39 37 34 36 44 53 40 46 55 54 39 33 28 22 22 24 23 19 20 25 29 31 30 31 29 26 24 25 27 19 17 18 31 34 34 33 37 34 31
16 17 26 25 39 47 39 32 31 33 55 54 52 52 50 45 36 22 25 26 28 26 23 21 22 25 27 29 29 29 30 30 29 28 25 18 17 33 33 36 39 37 35 34
20 20 20 28 36 34 36 39 34 30 49 56 59 58 56 53 46 45 25 24 27 26 27 29 28 26 25 24 26 29 31 32 30 29 29 24 23 24 28 33 31 30 29 28
28 25 24 27 35 40 45 37 30 42 44 45 47 53 55 54 51 46 40 41 40 34 29 28 30 30 33 32 32 31 32 32 33 32 32 31 29 30 28 26 29 25 22 24
14 21 26 29 32 31 31 33 38 39 42 44 44 46 48 46 46 49 48 44 41 43 42 38 38 41 42 42 41 38 36 37 39 35 33 35 35 33 32 31 30 30 31 31
22 19 13 26 32 33 32 31 30 31 44 43 42 41 42 39 38 37 35 33 34 35 37 41 43 45 47 48 47 45 43 43 43 42 38 38 39 38 37 35 34 34 34 36
27 27 23 17 20 30 30 30 28 24 28 32 43 50 49 44 42 42 44 43 43 41 38 39 41 42 47 49 49 48 48 48 48 46 45 42 41 43 43 43 42 40 39 38
26 25 25 24 23 21 24 28 30 30 30 32 38 40 36 37 38 37 32 33 37 38 40 43 40 42 42 43 45 47 47 47 46 46 45 43 41 42 44 46 46 46 46 44
23 23 25 25 26 29 26 19 25 29 35 38 41 41 42 43 44 43 43 43 38 34 38 37 40 40 41 43 44 46 46 45 47 48 48 47 46 44 43 45 46 46 48 48
25 22 28 29 26 28 29 31 34 30 28 29 34 42 47 48 46 46 45 46 45 43 46 51 48 46 44 44 44 46 48 49 49 49 49 49 49 48 48 47 47 49 50 52

GFSCGP_500_spd_111.txt.gz
Wind_Speed
38 37 29 26 25 26 23 22 21 19 22 11 12 10 8 8 7 13 17 5 15 20 19 17 17 16 12 11 10 13 10 13 12 13 14 13 11 13 13 12 13 14 17 18
38 33 31 33 30 28 26 26 21 17 17 17 17 15 12 12 10 9 19 13 22 19 23 19 17 15 15 12 11 12 12 13 13 12 14 13 12 13 14 11 12 13 15 16
32 32 37 38 35 32 29 26 24 21 24 23 17 15 18 18 15 18 17 26 19 20 23 22 18 16 17 17 15 13 13 13 15 14 14 14 15 12 13 13 10 11 12 15
31 35 37 37 36 35 31 25 26 25 23 26 26 21 25 16 18 20 18 20 20 24 28 24 21 21 18 17 18 14 13 14 16 16 16 14 15 12 11 12 11 10 10 12
32 37 36 35 32 35 30 36 31 30 32 31 30 22 20 14 16 20 16 14 17 19 27 24 24 23 21 18 17 18 15 13 15 15 15 16 16 15 13 13 11 9 7 9
32 37 36 32 34 38 40 37 34 35 33 36 28 27 12 10 12 15 16 24 24 24 29 28 25 25 21 20 16 16 16 15 14 16 15 15 16 16 15 13 12 10 8 7
31 34 34 34 35 39 43 41 37 35 34 29 24 22 25 17 16 16 13 22 29 27 28 30 23 18 21 21 19 17 17 18 16 17 15 14 15 14 14 14 12 11 10 9
32 30 30 32 34 38 40 44 41 41 28 18 23 23 19 22 22 18 12 13 30 30 25 25 23 20 22 22 22 21 19 18 19 17 16 14 15 16 14 14 13 12 12 11
34 31 33 32 34 38 40 43 39 38 35 30 27 21 20 25 21 16 12 13 23 36 27 27 28 25 28 26 25 24 22 19 18 16 15 15 17 15 17 16 16 13 13 12
37 33 32 33 34 40 42 41 38 43 37 31 31 23 27 22 16 15 15 12 13 36 34 32 41 35 27 28 28 26 25 23 21 18 16 15 14 13 16 17 17 15 13 14
39 36 34 31 36 40 45 45 45 36 36 35 30 27 23 25 23 21 20 17 12 18 32 54 46 34 30 30 29 30 29 28 26 24 22 21 20 18 17 17 16 16 16 15
35 36 36 40 38 38 49 49 47 43 38 38 35 28 24 23 22 24 21 22 13 16 21 27 42 37 45 35 30 27 28 32 30 29 28 27 25 23 21 21 20 18 18 17
33 33 32 41 40 37 40 47 52 49 45 43 38 35 32 29 24 22 18 17 17 24 26 35 39 26 30 32 36 35 39 30 31 32 32 30 29 27 25 24 22 21 21 20
32 33 36 38 45 40 39 42 46 48 49 50 43 37 37 36 34 31 31 25 22 21 25 26 19 38 23 40 37 39 29 34 28 30 41 35 29 28 27 26 26 26 24 23
36 34 38 37 43 42 40 41 40 40 46 47 52 42 34 35 31 33 34 32 27 21 21 26 28 21 15 19 35 32 36 21 36 19 24 14 14 36 32 31 32 32 30 28
37 34 36 37 38 43 44 44 41 42 45 48 51 53 48 35 39 39 35 30 22 21 23 26 21 20 20 23 22 27 23 17 13 8 4 6 9 13 41 37 35 35 34 33
12 34 34 36 34 37 44 45 44 37 44 43 44 41 40 48 38 35 30 28 29 29 20 26 23 24 24 21 24 22 22 20 19 17 10 9 12 7 34 37 39 40 40 39
19 18 21 27 38 39 40 45 48 41 42 46 43 41 41 42 43 44 35 28 25 25 28 29 23 23 23 22 21 23 23 24 24 22 19 16 14 13 12 30 41 44 48 47
20 21 20 24 31 39 39 43 42 36 41 49 51 49 45 44 37 39 42 42 24 28 28 26 24 23 22 21 22 24 24 23 24 23 22 22 19 17 15 22 31 40 43 47
24 24 20 23 25 30 31 35 53 46 46 48 48 49 50 46 43 38 34 32 36 29 33 30 26 24 23 22 22 21 21 21 22 23 22 24 23 21 22 21 21 23 30 47
21 25 28 29 28 27 27 32 38 41 35 38 42 43 43 44 46 45 38 34 35 38 47 48 44 42 35 31 29 29 29 27 27 26 27 28 27 25 26 26 26 24 24 26
22 21 20 21 29 28 24 23 28 30 36 39 36 37 33 34 37 43 39 38 38 42 40 42 43 42 42 42 42 41 42 41 40 39 36 35 34 33 33 31 29 29 28 27
22 23 22 20 16 21 24 24 22 21 23 29 41 40 35 35 32 34 33 30 33 35 38 44 46 48 49 49 48 48 48 49 48 46 44 42 41 38 38 38 36 35 33 33
23 23 23 23 23 19 18 23 27 25 25 26 31 40 41 40 38 37 36 37 38 40 42 41 43 42 41 43 46 47 47 48 49 48 47 46 44 42 39 39 41 41 39 39
24 24 22 22 24 25 26 22 20 25 30 31 32 33 34 35 33 33 34 34 35 34 34 36 42 41 43 45 45 43 45 45 46 47 47 48 47 45 41 41 41 42 44 43
25 24 22 20 21 25 25 25 25 26 26 34 37 37 38 38 39 38 38 38 37 37 35 36 36 38 38 43 46 43 46 47 47 47 46 45 45 45 45 44 43 43 45 47

GFSCGP_500_spd_114.txt.gz
Wind_Speed
34 32 26 23 24 24 24 19 16 16 16 16 13 11 9 11 11 8 3 4 16 19 19 18 18 16 15 12 12 13 10 11 11 10 12 12 13 12 12 10 12 15 16 18
33 33 30 28 26 26 26 22 18 16 19 21 18 17 12 10 10 7 10 9 11 15 19 19 19 18 17 17 14 14 14 10 11 12 13 12 12 14 12 12 12 13 16 18
30 33 35 33 31 29 27 24 21 22 21 20 21 19 17 16 10 13 10 12 18 22 20 24 19 19 18 19 16 15 15 11 12 12 12 13 14 13 13 12 12 13 13 13
31 34 36 38 36 30 28 27 28 26 25 24 22 25 17 17 17 17 15 22 20 19 26 27 23 21 19 19 18 15 15 14 12 13 12 12 15 13 11 12 14 13 13 11
30 35 36 37 34 34 32 32 31 30 27 27 23 25 25 21 16 17 20 18 19 21 25 26 26 25 20 19 19 17 15 18 15 15 12 13 13 15 14 12 14 14 13 12
35 36 37 32 35 35 36 37 35 32 32 32 25 26 18 17 14 22 23 20 15 22 23 28 27 24 23 21 20 20 18 18 17 15 16 14 13 14 15 13 13 14 14 14
33 33 33 34 36 37 37 40 39 35 39 34 30 33 26 21 21 14 14 23 21 24 24 28 30 26 25 25 23 22 19 17 18 19 18 18 17 16 15 15 14 13 14 15
32 30 27 31 32 34 34 41 41 41 38 30 32 35 28 24 19 21 17 18 22 24 30 27 27 27 28 28 27 24 24 20 18 19 18 18 19 17 17 15 14 14 14 12
34 30 30 31 32 34 37 43 42 39 36 34 34 30 28 22 20 18 20 17 16 18 26 25 23 26 28 28 28 28 26 25 22 21 19 17 19 19 19 17 15 15 15 14
33 31 33 32 33 36 35 37 43 44 42 38 39 27 21 20 18 19 19 15 13 13 28 27 30 34 32 32 31 29 27 25 24 23 23 20 21 19 19 19 18 15 15 14
34 33 34 35 35 36 36 37 40 37 41 41 39 35 28 22 21 22 22 17 12 7 20 29 32 31 32 33 31 30 29 27 26 26 25 25 22 21 21 19 20 17 17 16
31 33 31 35 36 38 39 40 40 42 40 41 42 36 29 27 25 25 23 19 16 12 11 21 19 39 40 38 33 35 32 33 32 31 29 28 26 25 24 23 22 21 20 19
27 33 31 35 38 38 42 43 42 43 40 40 38 35 32 30 29 26 25 26 13 11 10 14 20 27 42 46 38 34 35 34 33 33 34 33 31 30 29 28 25 23 22 21
24 27 32 36 40 41 42 44 46 46 44 43 42 33 32 29 26 22 20 16 14 15 16 18 19 23 28 41 44 34 36 37 38 36 37 36 34 32 30 30 28 27 26 24
25 25 26 33 41 41 42 45 43 42 47 44 43 39 31 33 34 31 23 19 18 19 25 27 29 22 19 31 37 42 40 41 40 38 40 40 37 35 34 32 31 30 29 28
22 26 30 31 38 42 46 45 42 39 39 41 43 41 39 40 35 30 27 24 24 26 26 27 24 24 27 19 37 45 37 39 42 35 36 41 41 36 34 38 36 35 32 31
17 18 31 32 35 41 40 47 44 39 37 35 34 35 35 42 47 42 32 21 22 22 22 25 23 19 17 20 18 23 18 42 33 29 15 33 20 44 23 31 40 40 35 35
15 14 19 29 36 39 38 32 46 44 39 39 35 36 39 35 40 40 34 31 28 24 22 22 25 24 28 22 14 16 19 22 22 13 11 14 16 14 14 22 38 43 38 41
20 17 17 16 27 33 35 40 36 38 44 39 44 37 31 34 32 33 29 29 30 32 25 23 28 27 25 21 23 22 18 19 17 16 10 15 16 16 16 17 24 33 36 40
21 21 22 23 24 27 27 33 37 32 32 37 38 40 38 34 34 32 30 27 27 30 31 31 31 28 28 25 26 26 23 20 18 15 18 16 15 16 16 18 20 20 25 26
20 23 26 26 23 24 22 26 33 39 34 34 35 35 43 38 39 41 40 35 30 28 28 30 32 31 30 29 29 27 24 21 19 19 19 17 18 17 16 18 21 25 27 25
22 22 22 25 29 29 25 22 23 27 31 38 40 39 36 38 32 34 37 39 39 36 33 34 36 37 36 33 28 30 30 28 27 26 27 25 24 25 26 25 25 26 27 26
23 22 22 22 20 19 22 27 24 23 25 39 42 40 37 28 28 29 32 36 37 38 39 40 40 41 42 42 43 43 40 37 38 36 36 36 36 37 36 36 33 33 32 31
23 25 23 22 23 21 13 17 25 25 20 28 32 39 36 37 31 31 32 33 38 40 40 42 44 45 44 46 45 46 44 44 44 44 44 44 44 43 42 42 42 41 40 38
22 22 21 21 21 24 22 19 18 22 24 26 27 30 32 30 32 30 33 37 36 35 39 42 41 42 47 50 51 51 51 52 52 51 51 50 50 49 49 48 47 46 44 44
20 19 21 20 21 23 25 26 26 24 23 27 32 33 33 33 31 32 38 39 38 39 39 41 43 45 48 49 50 51 51 49 49 49 49 50 51 51 51 51 49 49 50 49

GFSCGP_500_spd_117.txt.gz
Wind_Speed
30 31 27 24 25 24 24 19 17 17 15 15 14 13 11 10 11 6 4 5 15 16 18 18 15 14 13 12 14 12 12 13 14 13 12 9 10 13 14 15 14 14 15 16
31 30 29 29 27 26 24 21 20 18 17 17 18 15 13 15 13 10 8 8 8 16 19 18 18 17 14 12 12 13 14 13 16 14 12 12 11 13 14 14 14 14 15 17
30 32 33 29 27 27 25 23 22 20 19 20 21 19 18 16 15 14 13 14 6 17 19 20 20 19 17 14 12 12 13 13 15 16 13 11 13 13 13 13 13 15 15 14
36 36 36 34 30 28 28 26 25 24 23 22 21 23 21 20 20 14 16 13 15 12 19 24 23 22 21 18 17 15 15 13 14 17 15 14 12 13 13 13 13 14 15 14
35 36 37 36 34 30 28 29 29 29 28 27 25 21 21 21 14 9 17 12 14 17 16 26 27 26 24 22 19 18 18 17 13 14 16 16 14 13 13 13 13 13 14 14
36 37 38 37 36 35 34 33 33 32 32 31 28 24 19 14 16 13 9 14 16 15 14 28 27 23 22 24 22 22 21 20 17 15 15 17 15 15 14 15 15 14 14 14
33 39 38 36 38 38 37 36 36 35 36 33 28 28 19 19 13 10 10 9 18 14 16 24 25 25 24 24 25 24 23 23 20 18 16 16 16 16 17 17 16 15 15 14
32 34 34 34 34 32 33 35 38 38 36 30 31 33 26 25 22 19 16 14 14 18 18 22 28 27 25 26 26 26 25 25 24 21 20 17 15 16 17 17 16 15 16 15
31 32 33 33 34 32 34 37 37 38 35 33 35 31 25 26 22 20 17 18 15 15 20 25 28 29 26 29 27 27 27 26 25 23 20 18 18 17 17 16 17 18 17 15
29 29 31 32 32 33 34 33 37 40 38 35 35 32 24 19 18 15 19 19 17 18 22 25 28 30 30 31 31 27 27 26 25 24 22 20 21 20 19 19 18 18 18 16
27 30 31 32 33 33 34 35 37 38 37 36 34 29 21 19 15 16 21 21 18 19 18 29 31 36 33 33 33 33 29 27 26 26 25 24 22 22 22 22 21 21 19 18
26 29 30 32 34 34 34 33 33 36 38 38 38 32 25 26 26 21 19 22 19 18 10 8 19 32 33 36 34 36 37 33 31 29 28 27 26 25 26 25 24 23 19 20
24 29 30 33 36 36 36 35 36 35 35 37 34 33 27 25 23 21 21 23 21 19 13 9 6 8 28 34 40 40 40 39 36 34 32 31 30 29 29 27 27 24 23 21
19 23 29 34 35 38 38 37 38 37 37 34 34 33 27 27 27 25 25 24 25 25 18 9 5 8 15 17 31 36 45 44 38 37 34 35 34 32 32 31 28 27 25 24
18 19 24 30 37 38 40 40 39 41 40 36 32 33 28 26 28 25 23 23 21 34 15 15 13 13 15 19 20 29 39 47 39 39 40 39 39 36 34 33 32 31 29 27
22 23 21 27 33 39 41 41 39 40 42 42 39 36 32 30 31 29 29 27 24 18 20 19 22 20 17 20 20 31 35 51 46 45 43 44 40 41 39 37 34 34 33 33
19 19 25 28 32 32 41 45 43 40 42 40 36 34 34 33 33 35 34 31 30 24 18 22 22 20 19 16 20 23 34 50 50 48 46 46 41 43 42 38 36 35 36 37
16 15 22 27 35 36 39 43 43 42 39 39 34 33 33 30 33 35 38 40 35 28 20 15 17 20 20 21 17 16 31 32 37 42 51 47 43 44 46 39 31 32 38 43
20 17 18 20 23 35 36 37 42 35 41 41 40 35 33 32 30 30 32 36 37 36 29 28 26 28 26 23 22 24 23 19 16 16 39 49 31 28 36 50 44 36 41 47
22 21 20 22 21 24 35 35 35 38 35 35 37 41 35 33 34 24 25 23 28 27 26 26 28 27 25 25 26 23 26 17 16 9 17 20 16 20 22 26 30 28 28 31
22 24 26 24 23 19 20 23 27 31 36 36 26 24 31 34 33 34 30 31 32 31 30 31 31 30 32 27 28 26 23 24 23 19 10 14 19 18 23 24 24 26 25 22
26 25 24 25 26 25 22 20 22 25 27 28 31 29 28 33 34 36 37 37 35 32 32 31 35 34 34 32 35 32 30 30 32 23 20 18 17 23 24 18 18 18 20 22
28 26 26 26 23 25 24 27 26 25 24 32 38 36 34 36 38 41 41 40 38 36 37 39 39 36 32 31 32 33 28 27 21 24 22 21 25 24 25 25 26 26 27 27
28 28 25 25 25 23 21 21 26 29 26 26 28 34 38 41 34 39 39 40 40 39 41 43 42 41 41 39 36 37 39 39 36 33 33 32 30 32 33 33 35 34 34 35
19 24 25 25 24 25 25 23 21 26 30 28 28 30 42 43 41 34 39 40 46 47 48 43 43 45 45 45 43 43 45 45 41 40 41 40 40 42 41 41 42 43 44 43
16 17 21 22 21 22 24 26 26 24 25 29 30 30 30 44 38 43 36 37 42 47 46 50 49 48 48 47 46 45 44 44 43 44 45 47 48 49 50 51 51 50 49 49

GFSCGP_500_spd_120.txt.gz
Wind_Speed
32 31 28 25 28 33 25 19 18 17 12 12 11 7 8 13 10 18 14 14 17 15 15 15 12 11 12 14 16 12 14 14 14 14 12 11 13 14 14 14 14 16 16 16
32 31 31 34 30 26 23 19 19 19 18 16 13 10 8 11 9 7 10 13 12 18 17 16 16 14 13 14 14 14 15 15 14 13 13 13 12 13 12 14 15 15 15 17
31 33 34 30 29 28 25 23 22 21 18 17 18 15 14 13 9 10 12 17 8 7 19 18 18 18 15 15 14 14 15 16 14 13 13 15 14 14 14 14 15 16 15 16
35 36 33 31 31 31 28 27 24 22 18 15 19 14 18 17 16 12 13 11 9 11 21 19 18 19 18 17 17 15 15 16 16 13 13 15 14 13 13 13 14 15 16 15
39 35 38 36 34 32 34 30 27 26 25 22 21 18 21 17 19 19 9 15 12 18 18 16 21 22 20 17 17 16 16 17 17 15 14 14 14 15 14 12 13 13 13 15
38 40 39 39 38 34 34 32 31 27 26 25 23 20 19 12 10 18 6 10 17 12 10 11 27 26 22 22 19 19 17 17 19 18 17 16 14 14 14 14 14 13 13 12
33 37 40 38 37 39 34 33 29 30 30 22 27 25 20 15 8 2 5 6 6 12 13 13 18 28 25 25 22 20 19 18 17 18 18 17 17 16 15 15 15 14 13 12
30 36 38 38 39 40 37 34 26 23 21 22 29 28 26 20 16 13 12 11 10 9 14 10 21 28 25 25 24 22 22 21 19 18 18 18 17 16 16 16 15 15 14 14
30 26 35 35 35 37 38 41 35 28 23 24 25 32 26 25 22 21 19 16 14 10 11 17 18 24 28 27 26 25 24 24 23 19 19 19 17 16 17 17 17 16 15 14
27 23 27 30 31 33 40 38 36 39 24 24 25 26 19 22 18 17 17 19 17 15 13 13 22 26 30 30 27 26 26 26 25 24 22 21 19 18 17 16 17 18 17 17
25 24 25 27 28 28 34 35 39 25 29 22 22 22 26 24 19 14 17 17 17 16 16 15 20 31 33 34 32 30 29 29 28 27 25 24 22 21 19 19 18 17 17 17
26 23 18 16 32 32 31 31 33 32 26 31 25 21 26 21 19 16 12 15 18 17 17 17 18 32 30 36 33 32 33 30 30 29 28 27 25 23 23 22 20 19 18 18
24 24 21 21 27 30 31 36 35 29 24 25 26 25 28 23 23 24 21 20 19 20 19 15 9 14 32 37 33 32 35 35 34 32 32 30 29 28 26 25 23 22 20 19
20 22 27 18 25 24 33 33 33 32 26 23 23 23 30 26 24 23 23 20 21 23 23 16 12 6 12 35 32 32 38 38 39 39 36 34 33 31 30 28 27 23 24 22
18 22 27 36 35 35 38 35 35 34 29 28 23 24 31 26 24 28 27 23 24 24 27 25 17 10 11 10 15 21 34 33 42 42 43 39 37 35 34 34 31 29 27 26
19 21 22 28 34 36 36 35 38 39 39 37 36 22 30 29 28 25 25 24 23 28 27 31 25 16 13 11 15 21 28 32 37 42 48 47 43 40 38 37 35 33 31 30
19 19 24 21 27 29 34 39 40 42 42 40 34 35 34 32 31 31 29 29 26 26 22 21 14 17 17 23 19 19 24 26 29 39 44 50 46 45 43 42 40 37 36 36
21 20 20 19 28 26 27 34 41 44 41 38 39 40 36 32 31 33 35 37 35 33 27 27 24 21 22 22 19 21 20 26 28 32 41 53 47 41 47 46 42 45 41 39
22 21 17 21 21 21 33 39 37 40 45 41 37 36 35 33 33 31 34 36 38 39 36 33 29 26 23 25 23 22 23 22 36 34 40 47 54 47 47 47 45 50 46 43
24 25 24 20 22 19 27 34 36 34 35 42 44 41 35 33 32 33 30 29 32 37 40 42 36 35 28 27 29 27 27 27 22 22 29 30 47 54 48 53 41 36 46 47
26 26 22 21 27 24 31 21 25 30 30 35 42 38 43 39 36 34 35 36 33 37 38 35 35 33 28 28 28 29 30 29 27 23 11 15 19 26 45 38 40 43 47 45
27 27 28 28 26 23 25 23 24 30 31 35 37 41 30 32 37 39 36 35 37 36 37 35 33 33 33 32 31 33 31 29 29 28 19 21 21 31 22 22 22 25 23 26
29 30 27 29 22 30 28 27 24 23 23 24 29 31 35 35 34 37 38 38 38 39 33 36 37 34 34 35 38 39 36 33 32 31 25 32 23 23 24 19 22 28 26 26
23 28 29 28 31 29 25 26 26 27 25 24 24 31 33 36 37 34 37 40 41 42 42 40 39 36 34 36 46 43 39 34 30 30 29 22 31 34 34 34 34 31 30 29
16 21 27 27 26 26 27 26 23 24 26 27 28 30 36 41 35 37 37 37 37 39 41 41 42 40 41 41 42 43 36 34 35 33 32 33 29 29 31 38 41 41 41 37
12 17 20 23 26 25 24 23 26 25 23 25 31 33 32 32 36 40 43 35 34 43 46 41 43 45 45 46 47 47 46 43 43 42 41 45 43 39 36 39 39 38 38 40

GFSCGP_500_spd_123.txt.gz
Wind_Speed
33 33 31 27 25 25 25 22 23 28 20 16 10 11 14 12 15 18 14 14 16 14 11 12 12 8 9 10 15 13 11 12 9 10 9 9 11 12 13 13 12 14 14 14
36 35 29 29 28 33 29 23 17 7 12 17 12 10 17 13 15 16 28 21 18 15 14 12 12 11 9 13 12 12 12 12 13 11 9 9 9 9 11 12 13 12 15 15
30 29 32 36 39 33 22 12 28 22 19 19 16 14 8 10 7 5 7 17 16 20 19 15 13 13 11 12 12 11 12 12 12 10 9 9 9 10 11 12 13 13 14 14
31 29 37 36 30 30 22 29 32 23 23 20 17 13 15 11 10 10 10 15 9 23 21 16 15 12 12 13 12 13 13 13 12 12 11 10 10 10 11 12 13 14 14 14
32 32 39 33 33 33 29 31 29 12 17 14 18 17 16 13 12 13 9 11 8 9 18 19 15 13 14 14 13 12 13 15 14 14 13 11 10 10 10 11 12 13 13 14
24 36 35 32 35 38 32 29 34 22 15 16 14 12 16 5 3 13 10 3 11 15 18 19 15 18 15 18 15 14 13 13 15 15 13 13 12 10 10 10 10 11 11 9
36 35 36 38 39 39 44 33 19 20 17 17 14 16 25 12 8 1 7 14 1 1 7 14 13 37 27 21 19 16 15 14 15 16 15 14 14 13 11 11 11 10 11 11
21 30 37 36 35 31 34 31 23 16 14 15 26 23 21 24 14 11 5 4 6 4 5 11 14 13 18 23 23 20 17 16 15 16 16 16 15 14 13 13 13 13 12 11
19 16 23 32 36 38 33 36 28 22 27 17 21 19 25 34 23 20 16 12 11 9 9 9 17 20 29 29 24 22 20 19 17 15 15 17 17 16 15 15 14 14 14 14
21 21 24 23 35 38 32 23 33 29 16 19 23 22 18 19 31 25 20 21 20 17 13 11 14 18 27 27 26 24 23 21 19 17 17 16 16 15 15 16 16 17 15 14
18 19 17 22 32 28 37 37 30 25 25 21 20 18 23 19 23 25 19 21 21 21 19 16 11 16 18 24 28 27 25 23 21 20 20 20 19 19 17 16 17 17 16 16
26 20 10 14 16 25 22 30 30 26 25 26 23 33 27 13 14 23 21 17 20 19 18 17 17 13 15 28 32 32 29 25 24 23 23 23 22 22 21 19 17 16 16 17
24 23 18 17 18 27 32 21 21 24 21 22 20 28 29 25 16 20 25 21 16 17 16 18 19 18 21 27 33 33 34 30 28 26 26 26 25 25 24 22 22 20 19 18
24 26 27 26 24 19 22 26 25 26 25 22 21 29 33 36 32 25 26 28 19 17 18 18 17 16 19 21 32 36 36 32 29 29 29 28 29 29 29 27 26 25 24 23
26 26 32 19 20 30 22 20 24 25 26 26 22 30 21 20 33 34 31 30 25 23 22 22 21 14 12 15 24 31 34 27 25 29 32 32 32 32 31 31 30 28 29 28
22 30 34 39 12 22 24 16 22 23 23 26 25 23 38 28 32 33 33 31 27 24 25 22 25 24 17 12 11 17 23 21 29 32 29 34 39 36 37 35 35 34 32 31
22 17 19 25 25 27 25 29 25 23 23 30 28 37 29 36 29 28 28 31 31 28 26 29 27 28 24 17 17 17 19 20 22 26 29 37 41 42 44 42 40 37 38 36
12 21 19 15 24 20 21 28 31 31 35 35 36 21 51 45 42 24 28 30 31 29 31 33 30 32 20 18 18 18 21 23 25 26 29 33 35 42 47 48 47 44 44 42
19 20 14 16 17 18 13 29 30 29 28 39 37 42 42 41 38 33 34 36 38 37 34 31 28 32 24 23 23 22 24 26 24 28 29 35 31 34 47 50 50 53 49 48
22 24 22 16 22 25 34 30 28 22 27 39 33 40 44 36 37 36 36 36 37 43 41 41 36 33 30 32 31 31 29 31 27 30 30 29 37 40 44 47 55 56 51 53
21 27 23 21 22 22 35 28 31 27 27 38 37 38 41 40 36 31 38 39 38 36 41 44 44 43 40 37 37 33 31 32 30 30 31 29 28 34 35 40 52 47 49 49
25 21 24 26 31 35 38 36 32 37 27 33 36 34 33 35 40 42 40 40 42 39 39 42 43 43 45 47 46 41 39 36 34 31 32 29 27 25 30 38 45 48 53 50
25 31 30 35 33 41 39 29 40 30 31 27 31 37 34 31 36 42 48 48 42 41 40 42 40 42 43 43 43 44 42 41 37 35 33 30 27 27 30 21 22 31 47 39
17 24 29 35 16 33 41 35 29 30 29 24 26 30 34 33 34 39 36 43 44 42 42 42 43 40 42 44 43 42 43 42 38 38 36 35 33 31 39 30 27 30 21 25
15 18 26 33 43 33 38 33 28 23 24 25 25 24 26 29 33 34 39 39 40 40 44 44 39 40 40 41 42 41 40 40 48 44 42 38 35 33 36 34 34 31 28 27
11 13 17 18 29 18 30 27 27 25 22 22 23 25 28 28 29 35 37 41 44 45 31 42 42 44 48 49 46 46 41 40 45 45 43 38 37 32 27 36 38 37 37 36